| time (UTC) | temp F | wind direction | speed knots | gust knots | rain 1hr in | rain 24hr in | rain mn in | humidity % | barometer mb |
| 20260905154738 | 73 | 260 | 6.1 | 13.9 | 0.00 | 0.13 | 0.13 | 67 | 1021.0 |
| 20260905154700 | 73 | 232 | 6.1 | 13.9 | 0.00 | 0.13 | 0.13 | 68 | 1021.0 |
| 20260905154638 | 73 | 266 | 6.1 | 13.9 | 0.00 | 0.13 | 0.13 | 68 | 1021.0 |
| 20260905154538 | 73 | 230 | 5.2 | 13.9 | 0.00 | 0.13 | 0.13 | 67 | 1021.0 |
| 20260905154438 | 73 | 211 | 5.2 | 13.9 | 0.00 | 0.13 | 0.13 | 67 | 1021.1 |
| 20260905154338 | 73 | 225 | 4.3 | 13.0 | 0.00 | 0.13 | 0.13 | 67 | 1021.0 |
| 20260905154238 | 73 | 263 | 4.3 | 11.3 | 0.00 | 0.13 | 0.13 | 67 | 1021.0 |
| 20260905154200 | 73 | 225 | 4.3 | 11.3 | 0.00 | 0.13 | 0.13 | 67 | 1021.1 |
| 20260905154139 | 73 | 236 | 4.3 | 11.3 | 0.00 | 0.13 | 0.13 | 67 | 1021.1 |
| 20260905154039 | 73 | 213 | 3.5 | 9.6 | 0.00 | 0.13 | 0.13 | 66 | 1021.1 |
| 20260905153939 | 73 | 200 | 3.5 | 9.6 | 0.00 | 0.13 | 0.13 | 66 | 1021.1 |
| 20260905153838 | 72 | 238 | 3.5 | 9.6 | 0.00 | 0.13 | 0.13 | 65 | 1021.1 |
| 20260905153738 | 72 | 221 | 3.5 | 7.8 | 0.00 | 0.13 | 0.13 | 65 | 1021.1 |
| 20260905153702 | 72 | 220 | 3.5 | 7.8 | 0.00 | 0.13 | 0.13 | 64 | 1021.0 |
| 20260905153638 | 72 | 219 | 3.5 | 7.8 | 0.00 | 0.13 | 0.13 | 64 | 1021.0 |
| 20260905153538 | 72 | 225 | 3.5 | 7.8 | 0.00 | 0.13 | 0.13 | 64 | 1021.0 |
| 20260905153438 | 72 | 222 | 3.5 | 7.8 | 0.00 | 0.13 | 0.13 | 64 | 1021.1 |
| 20260905153334 | 73 | 252 | 3.5 | 7.8 | 0.00 | 0.13 | 0.13 | 64 | 1021.0 |
| 20260905153234 | 73 | 288 | 2.6 | 7.8 | 0.00 | 0.13 | 0.13 | 64 | 1021.1 |
| 20260905153200 | 73 | 281 | 2.6 | 6.1 | 0.00 | 0.13 | 0.13 | 64 | 1021.1 |
| 20260905153135 | 73 | 256 | 2.6 | 6.1 | 0.00 | 0.13 | 0.13 | 64 | 1021.1 |
| 20260905153034 | 73 | 242 | 2.6 | 6.1 | 0.00 | 0.13 | 0.13 | 64 | 1021.1 |
| 20260905152935 | 73 | 260 | 2.6 | 6.1 | 0.00 | 0.13 | 0.13 | 63 | 1021.1 |
| 20260905152835 | 73 | 252 | 2.6 | 6.1 | 0.00 | 0.13 | 0.13 | 63 | 1021.1 |
| 20260905152735 | 73 | 301 | 3.5 | 7.0 | 0.00 | 0.13 | 0.13 | 62 | 1021.1 |
| 20260905152701 | 73 | 306 | 3.5 | 7.0 | 0.00 | 0.13 | 0.13 | 62 | 1021.1 |
| 20260905152635 | 73 | 229 | 3.5 | 8.7 | 0.00 | 0.13 | 0.13 | 63 | 1021.1 |
| 20260905152534 | 73 | 229 | 3.5 | 8.7 | 0.00 | 0.13 | 0.13 | 63 | 1021.1 |
| 20260905152434 | 73 | 262 | 4.3 | 9.6 | 0.00 | 0.13 | 0.13 | 63 | 1021.1 |
| 20260905152422 | 74 | 263 | 5.2 | 9.6 | 0.00 | 0.13 | 0.13 | 61 | 1021.0 |
| 20260905152416 | 73 | 254 | 4.3 | 9.6 | 0.00 | 0.13 | 0.13 | 62 | 1021.1 |
| 20260905152413 | 74 | 245 | 4.3 | 9.6 | 0.00 | 0.13 | 0.13 | 61 | 1021.0 |
| 20260905152134 | 74 | 225 | 5.2 | 9.6 | 0.00 | 0.13 | 0.13 | 61 | 1021.0 |
| 20260905152035 | 74 | 229 | 5.2 | 10.4 | 0.00 | 0.13 | 0.13 | 61 | 1021.0 |
| 20260905151934 | 74 | 289 | 5.2 | 10.4 | 0.00 | 0.13 | 0.13 | 61 | 1021.0 |
| 20260905151834 | 74 | 248 | 5.2 | 10.4 | 0.00 | 0.13 | 0.13 | 61 | 1021.0 |
| 20260905151734 | 74 | 251 | 5.2 | 10.4 | 0.00 | 0.13 | 0.13 | 60 | 1021.0 |
| 20260905151701 | 74 | 241 | 5.2 | 10.4 | 0.00 | 0.13 | 0.13 | 60 | 1021.0 |
| 20260905151634 | 74 | 306 | 5.2 | 10.4 | 0.00 | 0.13 | 0.13 | 60 | 1021.0 |
| 20260905151538 | 74 | 218 | 5.2 | 10.4 | 0.00 | 0.13 | 0.13 | 59 | 1021.0 |
| 20260905151431 | 74 | 242 | 5.2 | 10.4 | 0.00 | 0.13 | 0.13 | 59 | 1021.0 |
| 20260905151331 | 74 | 286 | 5.2 | 10.4 | 0.00 | 0.13 | 0.13 | 59 | 1021.0 |
| 20260905151230 | 74 | 277 | 5.2 | 10.4 | 0.00 | 0.13 | 0.13 | 60 | 1021.0 |
| 20260905151201 | 74 | 250 | 5.2 | 10.4 | 0.00 | 0.13 | 0.13 | 60 | 1021.0 |
| 20260905151129 | 74 | 228 | 5.2 | 10.4 | 0.00 | 0.13 | 0.13 | 59 | 1021.0 |
| 20260905151029 | 74 | 264 | 6.1 | 11.3 | 0.00 | 0.13 | 0.13 | 59 | 1021.0 |
| 20260905150929 | 74 | 284 | 6.1 | 12.2 | 0.00 | 0.13 | 0.13 | 58 | 1021.1 |
| 20260905150828 | 74 | 235 | 6.1 | 12.2 | 0.00 | 0.13 | 0.13 | 59 | 1021.1 |
| 20260905150728 | 74 | 231 | 6.1 | 12.2 | 0.00 | 0.13 | 0.13 | 59 | 1021.1 |
| 20260905150701 | 74 | 220 | 6.1 | 12.2 | 0.00 | 0.13 | 0.13 | 59 | 1021.1 |
| 20260905150628 | 74 | 257 | 6.1 | 12.2 | 0.00 | 0.13 | 0.13 | 59 | 1021.1 |
| 20260905150532 | 74 | 221 | 6.1 | 12.2 | 0.00 | 0.13 | 0.13 | 59 | 1021.1 |
| 20260905150429 | 74 | 225 | 6.1 | 12.2 | 0.00 | 0.13 | 0.13 | 58 | 1021.1 |
| 20260905150329 | 74 | 229 | 6.1 | 13.0 | 0.00 | 0.13 | 0.13 | 58 | 1021.1 |
| 20260905150228 | 74 | 226 | 6.1 | 13.0 | 0.00 | 0.13 | 0.13 | 58 | 1021.1 |
| 20260905150201 | 74 | 255 | 6.1 | 13.0 | 0.00 | 0.13 | 0.13 | 58 | 1021.1 |
| 20260905150128 | 74 | 225 | 6.1 | 13.0 | 0.00 | 0.13 | 0.13 | 58 | 1021.1 |
| 20260905150030 | 74 | 225 | 6.1 | 13.0 | 0.00 | 0.13 | 0.13 | 59 | 1021.2 |
| 20260905145928 | 74 | 260 | 6.1 | 13.0 | 0.00 | 0.13 | 0.13 | 58 | 1021.1 |
| 20260905145828 | 74 | 285 | 6.1 | 13.0 | 0.00 | 0.13 | 0.13 | 58 | 1021.0 |
| 20260905145729 | 74 | 238 | 6.1 | 13.0 | 0.00 | 0.13 | 0.13 | 58 | 1021.1 |
| 20260905145700 | 74 | 257 | 6.1 | 13.0 | 0.00 | 0.13 | 0.13 | 58 | 1021.0 |
| 20260905145629 | 74 | 231 | 6.1 | 13.0 | 0.00 | 0.13 | 0.13 | 57 | 1021.1 |
| 20260905145528 | 74 | 225 | 6.1 | 13.0 | 0.00 | 0.13 | 0.13 | 57 | 1021.1 |
| 20260905145426 | 74 | 248 | 6.1 | 13.0 | 0.00 | 0.13 | 0.13 | 58 | 1021.1 |
| 20260905145326 | 74 | 252 | 5.2 | 12.2 | 0.00 | 0.13 | 0.13 | 57 | 1021.0 |
| 20260905145226 | 75 | 223 | 5.2 | 12.2 | 0.00 | 0.13 | 0.13 | 56 | 1021.0 |
| 20260905145201 | 75 | 227 | 6.1 | 12.2 | 0.00 | 0.13 | 0.13 | 56 | 1021.0 |
| 20260905145126 | 75 | 207 | 6.1 | 12.2 | 0.00 | 0.13 | 0.13 | 57 | 1021.0 |
| 20260905145026 | 75 | 234 | 6.1 | 12.2 | 0.00 | 0.13 | 0.13 | 58 | 1021.0 |
| 20260905144926 | 75 | 214 | 5.2 | 12.2 | 0.00 | 0.13 | 0.13 | 58 | 1021.0 |
| 20260905144826 | 75 | 233 | 5.2 | 9.6 | 0.00 | 0.13 | 0.13 | 57 | 1021.0 |
| 20260905144726 | 75 | 213 | 5.2 | 9.6 | 0.00 | 0.13 | 0.13 | 57 | 1021.1 |
| 20260905144701 | 75 | 244 | 6.1 | 9.6 | 0.00 | 0.13 | 0.13 | 57 | 1021.0 |
| 20260905144627 | 75 | 210 | 6.1 | 9.6 | 0.00 | 0.13 | 0.13 | 58 | 1021.0 |
| 20260905144525 | 75 | 211 | 5.2 | 9.6 | 0.00 | 0.13 | 0.13 | 58 | 1021.0 |
| 20260905144424 | 75 | 284 | 5.2 | 9.6 | 0.00 | 0.13 | 0.13 | 58 | 1021.1 |
| 20260905144319 | 75 | 207 | 5.2 | 9.6 | 0.00 | 0.13 | 0.13 | 56 | 1021.1 |
| 20260905144219 | 75 | 221 | 5.2 | 9.6 | 0.00 | 0.13 | 0.13 | 56 | 1021.0 |
| 20260905144201 | 75 | 272 | 5.2 | 9.6 | 0.00 | 0.13 | 0.13 | 56 | 1021.0 |
| 20260905144118 | 75 | 265 | 5.2 | 9.6 | 0.00 | 0.13 | 0.13 | 55 | 1021.1 |
| 20260905144019 | 76 | 231 | 5.2 | 9.6 | 0.00 | 0.13 | 0.13 | 55 | 1021.0 |
| 20260905143918 | 76 | 233 | 5.2 | 9.6 | 0.00 | 0.13 | 0.13 | 57 | 1021.1 |
| 20260905143819 | 76 | 262 | 5.2 | 10.4 | 0.00 | 0.13 | 0.13 | 56 | 1021.1 |
| 20260905143716 | 76 | 225 | 5.2 | 10.4 | 0.00 | 0.13 | 0.13 | 56 | 1021.1 |
| 20260905143700 | 76 | 250 | 5.2 | 10.4 | 0.00 | 0.13 | 0.13 | 56 | 1021.1 |
| 20260905143614 | 76 | 221 | 5.2 | 10.4 | 0.00 | 0.13 | 0.13 | 56 | 1021.1 |
| 20260905143514 | 76 | 212 | 5.2 | 10.4 | 0.00 | 0.13 | 0.13 | 56 | 1021.1 |
| 20260905143414 | 76 | 281 | 5.2 | 10.4 | 0.00 | 0.13 | 0.13 | 55 | 1021.1 |
| 20260905143314 | 76 | 285 | 5.2 | 10.4 | 0.00 | 0.13 | 0.13 | 55 | 1021.1 |
| 20260905143215 | 76 | 269 | 5.2 | 10.4 | 0.00 | 0.13 | 0.13 | 56 | 1021.2 |
| 20260905143200 | 76 | 247 | 5.2 | 10.4 | 0.00 | 0.13 | 0.13 | 56 | 1021.2 |
| 20260905143115 | 76 | 259 | 5.2 | 10.4 | 0.00 | 0.13 | 0.13 | 55 | 1021.2 |
| 20260905143013 | 76 | 255 | 5.2 | 11.3 | 0.00 | 0.13 | 0.13 | 56 | 1021.2 |
| 20260905142913 | 76 | 295 | 5.2 | 11.3 | 0.00 | 0.13 | 0.13 | 55 | 1021.2 |
| 20260905142811 | 76 | 210 | 6.1 | 11.3 | 0.00 | 0.13 | 0.13 | 57 | 1021.1 |
| 20260905142701 | 76 | 229 | 6.1 | 11.3 | 0.00 | 0.13 | 0.13 | 55 | 1021.1 |
| 20260905142608 | 76 | 215 | 6.1 | 11.3 | 0.00 | 0.13 | 0.13 | 54 | 1021.2 |
| 20260905142507 | 76 | 260 | 6.1 | 11.3 | 0.00 | 0.13 | 0.13 | 54 | 1021.1 |
| 20260905142407 | 76 | 243 | 6.1 | 11.3 | 0.00 | 0.13 | 0.13 | 54 | 1021.2 |
| 20260905142307 | 76 | 342 | 7.0 | 11.3 | 0.00 | 0.13 | 0.13 | 53 | 1021.1 |
| 20260905142206 | 76 | 280 | 7.0 | 11.3 | 0.00 | 0.13 | 0.13 | 54 | 1021.2 |
| 20260905142200 | 76 | 302 | 7.0 | 11.3 | 0.00 | 0.13 | 0.13 | 54 | 1021.2 |
| 20260905142106 | 76 | 270 | 7.0 | 11.3 | 0.00 | 0.13 | 0.13 | 55 | 1021.1 |
| 20260905142004 | 76 | 257 | 7.0 | 11.3 | 0.00 | 0.13 | 0.13 | 54 | 1021.1 |
| 20260905141925 | 76 | 254 | 6.1 | 11.3 | 0.00 | 0.13 | 0.13 | 54 | 1021.1 |
| 20260905141919 | 76 | 243 | 7.0 | 11.3 | 0.00 | 0.13 | 0.13 | 54 | 1021.1 |
| 20260905141915 | 76 | 219 | 7.0 | 11.3 | 0.00 | 0.13 | 0.13 | 54 | 1021.2 |
| 20260905141911 | 76 | 235 | 6.1 | 11.3 | 0.00 | 0.13 | 0.13 | 54 | 1021.1 |
| 20260905141603 | 76 | 244 | 6.1 | 11.3 | 0.00 | 0.13 | 0.13 | 55 | 1021.1 |
| 20260905141502 | 76 | 256 | 7.0 | 11.3 | 0.00 | 0.13 | 0.13 | 53 | 1021.1 |
| 20260905141420 | 76 | 257 | 6.1 | 11.3 | 0.00 | 0.13 | 0.13 | 53 | 1021.2 |
| 20260905141416 | 76 | 271 | 6.1 | 11.3 | 0.00 | 0.13 | 0.13 | 54 | 1021.2 |
| 20260905141412 | 76 | 290 | 6.1 | 11.3 | 0.00 | 0.13 | 0.13 | 54 | 1021.2 |
| 20260905141101 | 76 | 257 | 5.2 | 11.3 | 0.00 | 0.13 | 0.13 | 53 | 1021.2 |
| 20260905141001 | 75 | 264 | 5.2 | 11.3 | 0.00 | 0.13 | 0.13 | 55 | 1021.2 |
| 20260905140901 | 75 | 232 | 5.2 | 9.6 | 0.00 | 0.13 | 0.13 | 55 | 1021.2 |
| 20260905140801 | 75 | 219 | 5.2 | 11.3 | 0.00 | 0.13 | 0.13 | 55 | 1021.2 |
| 20260905140701 | 75 | 233 | 6.1 | 11.3 | 0.00 | 0.13 | 0.13 | 55 | 1021.3 |
| 20260905140601 | 75 | 273 | 6.1 | 11.3 | 0.00 | 0.13 | 0.13 | 55 | 1021.3 |
| 20260905140501 | 75 | 211 | 6.1 | 11.3 | 0.00 | 0.13 | 0.13 | 56 | 1021.3 |
| 20260905140401 | 75 | 257 | 6.1 | 11.3 | 0.00 | 0.13 | 0.13 | 56 | 1021.3 |
| 20260905140301 | 75 | 225 | 6.1 | 11.3 | 0.00 | 0.13 | 0.13 | 54 | 1021.3 |
| 20260905140201 | 75 | 217 | 7.0 | 11.3 | 0.00 | 0.13 | 0.13 | 54 | 1021.3 |
| 20260905140001 | 75 | 284 | 7.0 | 12.2 | 0.00 | 0.13 | 0.13 | 55 | 1021.3 |
| 20260905135901 | 75 | 234 | 7.0 | 12.2 | 0.00 | 0.13 | 0.13 | 56 | 1021.3 |
| 20260905135801 | 75 | 278 | 7.0 | 12.2 | 0.00 | 0.13 | 0.13 | 55 | 1021.3 |
| 20260905135701 | 75 | 239 | 7.0 | 12.2 | 0.00 | 0.13 | 0.13 | 54 | 1021.3 |
| 20260905135601 | 75 | 219 | 7.0 | 12.2 | 0.00 | 0.13 | 0.13 | 55 | 1021.3 |
| 20260905135506 | 75 | 260 | 7.0 | 12.2 | 0.00 | 0.13 | 0.13 | 55 | 1021.3 |
| 20260905135400 | 75 | 286 | 6.1 | 12.2 | 0.00 | 0.13 | 0.13 | 55 | 1021.3 |
| 20260905135300 | 75 | 269 | 7.0 | 12.2 | 0.00 | 0.13 | 0.13 | 54 | 1021.3 |
| 20260905135205 | 75 | 260 | 6.1 | 12.2 | 0.00 | 0.13 | 0.13 | 55 | 1021.2 |
| 20260905135201 | 75 | 260 | 6.1 | 12.2 | 0.00 | 0.13 | 0.13 | 55 | 1021.2 |
| 20260905135101 | 75 | 292 | 6.1 | 12.2 | 0.00 | 0.13 | 0.13 | 55 | 1021.3 |
| 20260905135003 | 75 | 284 | 6.1 | 11.3 | 0.00 | 0.13 | 0.13 | 55 | 1021.3 |
| 20260905134857 | 75 | 232 | 5.2 | 11.3 | 0.00 | 0.13 | 0.13 | 56 | 1021.3 |
| 20260905134756 | 75 | 238 | 6.1 | 11.3 | 0.00 | 0.13 | 0.13 | 55 | 1021.3 |
| 20260905134700 | 75 | 257 | 5.2 | 11.3 | 0.00 | 0.13 | 0.13 | 56 | 1021.5 |
| 20260905134656 | 75 | 248 | 5.2 | 11.3 | 0.00 | 0.13 | 0.13 | 56 | 1021.5 |
| 20260905134556 | 75 | 271 | 5.2 | 11.3 | 0.00 | 0.13 | 0.13 | 55 | 1021.3 |
| 20260905134457 | 75 | 272 | 5.2 | 11.3 | 0.00 | 0.13 | 0.13 | 56 | 1021.3 |
| 20260905134350 | 75 | 272 | 5.2 | 11.3 | 0.00 | 0.13 | 0.13 | 56 | 1021.3 |
| 20260905134248 | 75 | 280 | 5.2 | 11.3 | 0.00 | 0.13 | 0.13 | 56 | 1021.5 |
| 20260905134202 | 75 | 226 | 5.2 | 9.6 | 0.00 | 0.13 | 0.13 | 56 | 1021.3 |
| 20260905134149 | 75 | 238 | 5.2 | 9.6 | 0.00 | 0.13 | 0.13 | 57 | 1021.3 |
| 20260905134048 | 75 | 225 | 6.1 | 9.6 | 0.00 | 0.13 | 0.13 | 56 | 1021.3 |
| 20260905133951 | 75 | 292 | 6.1 | 9.6 | 0.00 | 0.13 | 0.13 | 57 | 1021.3 |
| 20260905133844 | 75 | 251 | 7.0 | 10.4 | 0.00 | 0.13 | 0.13 | 56 | 1021.3 |
| 20260905133744 | 75 | 290 | 6.1 | 10.4 | 0.00 | 0.13 | 0.13 | 56 | 1021.3 |
| 20260905133701 | 75 | 287 | 6.1 | 10.4 | 0.00 | 0.13 | 0.13 | 57 | 1021.5 |
| 20260905133644 | 75 | 264 | 6.1 | 10.4 | 0.00 | 0.13 | 0.13 | 57 | 1021.5 |
| 20260905133544 | 74 | 269 | 6.1 | 10.4 | 0.00 | 0.13 | 0.13 | 57 | 1021.3 |
| 20260905133441 | 74 | 297 | 6.1 | 10.4 | 0.00 | 0.13 | 0.13 | 56 | 1021.3 |
| 20260905133421 | 74 | 310 | 6.1 | 10.4 | 0.00 | 0.13 | 0.13 | 57 | 1021.3 |
| 20260905133416 | 74 | 283 | 6.1 | 10.4 | 0.00 | 0.13 | 0.13 | 57 | 1021.5 |
| 20260905133412 | 74 | 306 | 6.1 | 10.4 | 0.00 | 0.13 | 0.13 | 57 | 1021.5 |
| 20260905133136 | 74 | 278 | 6.1 | 10.4 | 0.00 | 0.13 | 0.13 | 56 | 1021.3 |
| 20260905133036 | 74 | 241 | 6.1 | 10.4 | 0.00 | 0.13 | 0.13 | 56 | 1021.5 |
| 20260905132936 | 74 | 260 | 5.2 | 10.4 | 0.00 | 0.13 | 0.13 | 58 | 1021.3 |
| 20260905132836 | 74 | 281 | 5.2 | 9.6 | 0.00 | 0.13 | 0.13 | 59 | 1021.5 |
| 20260905132736 | 74 | 275 | 5.2 | 10.4 | 0.00 | 0.13 | 0.13 | 60 | 1021.3 |
| 20260905132701 | 74 | 260 | 5.2 | 10.4 | 0.00 | 0.13 | 0.13 | 60 | 1021.3 |
| 20260905132634 | 74 | 267 | 5.2 | 10.4 | 0.00 | 0.13 | 0.13 | 60 | 1021.3 |
| 20260905132535 | 74 | 285 | 5.2 | 10.4 | 0.00 | 0.13 | 0.13 | 59 | 1021.3 |
| 20260905132434 | 74 | 209 | 5.2 | 10.4 | 0.00 | 0.13 | 0.13 | 60 | 1021.3 |
| 20260905132334 | 74 | 261 | 5.2 | 10.4 | 0.00 | 0.13 | 0.13 | 60 | 1021.3 |
| 20260905132235 | 74 | 306 | 5.2 | 10.4 | 0.00 | 0.13 | 0.13 | 61 | 1021.3 |
| 20260905132201 | 73 | 255 | 5.2 | 10.4 | 0.00 | 0.13 | 0.13 | 60 | 1021.5 |
| 20260905132132 | 73 | 281 | 5.2 | 11.3 | 0.00 | 0.13 | 0.13 | 60 | 1021.5 |
| 20260905132032 | 73 | 233 | 5.2 | 11.3 | 0.00 | 0.13 | 0.13 | 60 | 1021.3 |
| 20260905131932 | 73 | 229 | 5.2 | 11.3 | 0.00 | 0.13 | 0.13 | 59 | 1021.5 |
| 20260905131832 | 73 | 279 | 6.1 | 11.3 | 0.00 | 0.13 | 0.13 | 59 | 1021.5 |
| 20260905131732 | 73 | 221 | 6.1 | 11.3 | 0.00 | 0.13 | 0.13 | 60 | 1021.6 |
| 20260905131700 | 73 | 288 | 6.1 | 11.3 | 0.00 | 0.13 | 0.13 | 60 | 1021.6 |
| 20260905131632 | 73 | 210 | 6.1 | 12.2 | 0.00 | 0.13 | 0.13 | 60 | 1021.6 |
| 20260905131530 | 73 | 227 | 6.1 | 12.2 | 0.00 | 0.13 | 0.13 | 60 | 1021.6 |
| 20260905131429 | 73 | 274 | 6.1 | 12.2 | 0.00 | 0.13 | 0.13 | 59 | 1021.5 |
| 20260905131423 | 73 | 271 | 6.1 | 12.2 | 0.00 | 0.13 | 0.13 | 59 | 1021.5 |
| 20260905131416 | 73 | 281 | 6.1 | 12.2 | 0.00 | 0.13 | 0.13 | 58 | 1021.3 |
| 20260905131412 | 73 | 284 | 6.1 | 12.2 | 0.00 | 0.13 | 0.13 | 59 | 1021.5 |
| 20260905131130 | 73 | 248 | 6.1 | 12.2 | 0.00 | 0.13 | 0.13 | 59 | 1021.5 |
| 20260905131029 | 73 | 278 | 6.1 | 12.2 | 0.00 | 0.13 | 0.13 | 59 | 1021.3 |
| 20260905130928 | 73 | 259 | 6.1 | 12.2 | 0.00 | 0.13 | 0.13 | 59 | 1021.5 |
| 20260905130829 | 73 | 286 | 6.1 | 12.2 | 0.00 | 0.13 | 0.13 | 61 | 1021.5 |
| 20260905130728 | 73 | 262 | 6.1 | 12.2 | 0.00 | 0.13 | 0.13 | 61 | 1021.5 |
| 20260905130701 | 73 | 266 | 6.1 | 12.2 | 0.00 | 0.13 | 0.13 | 61 | 1021.5 |
| 20260905130622 | 73 | 274 | 6.1 | 12.2 | 0.00 | 0.13 | 0.13 | 60 | 1021.3 |
| 20260905130522 | 73 | 260 | 6.1 | 12.2 | 0.00 | 0.13 | 0.13 | 60 | 1021.3 |
| 20260905130422 | 73 | 246 | 6.1 | 12.2 | 0.00 | 0.13 | 0.13 | 61 | 1021.2 |
| 20260905130322 | 73 | 252 | 6.1 | 12.2 | 0.00 | 0.13 | 0.13 | 59 | 1021.5 |
| 20260905130221 | 73 | 262 | 5.2 | 12.2 | 0.00 | 0.13 | 0.13 | 60 | 1021.5 |
| 20260905130201 | 73 | 252 | 5.2 | 12.2 | 0.00 | 0.13 | 0.13 | 60 | 1021.5 |
| 20260905130118 | 73 | 266 | 5.2 | 12.2 | 0.00 | 0.13 | 0.13 | 61 | 1021.3 |
| 20260905130019 | 73 | 262 | 4.3 | 12.2 | 0.00 | 0.13 | 0.13 | 60 | 1021.2 |
| 20260905125917 | 73 | 296 | 4.3 | 9.6 | 0.00 | 0.13 | 0.13 | 60 | 1021.3 |
| 20260905125817 | 73 | 249 | 4.3 | 9.6 | 0.00 | 0.13 | 0.13 | 60 | 1021.3 |
| 20260905125716 | 73 | 244 | 4.3 | 8.7 | 0.00 | 0.13 | 0.13 | 61 | 1021.3 |
| 20260905125701 | 73 | 256 | 4.3 | 8.7 | 0.00 | 0.13 | 0.13 | 61 | 1021.3 |
| 20260905125610 | 73 | 237 | 4.3 | 7.8 | 0.00 | 0.13 | 0.13 | 61 | 1021.3 |
| 20260905125511 | 72 | 236 | 4.3 | 7.8 | 0.00 | 0.13 | 0.13 | 64 | 1021.5 |
| 20260905125410 | 72 | 244 | 4.3 | 7.8 | 0.00 | 0.13 | 0.13 | 65 | 1021.3 |
| 20260905125310 | 72 | 246 | 4.3 | 7.8 | 0.00 | 0.13 | 0.13 | 64 | 1021.3 |
| 20260905125201 | 72 | 257 | 4.3 | 7.8 | 0.00 | 0.13 | 0.13 | 67 | 1021.3 |
| 20260905125104 | 72 | 305 | 4.3 | 8.7 | 0.00 | 0.13 | 0.13 | 67 | 1021.3 |
| 20260905125004 | 72 | 273 | 5.2 | 8.7 | 0.00 | 0.13 | 0.13 | 67 | 1021.3 |
| 20260905124904 | 72 | 319 | 5.2 | 8.7 | 0.00 | 0.13 | 0.13 | 67 | 1021.3 |
| 20260905124805 | 72 | 267 | 5.2 | 8.7 | 0.00 | 0.13 | 0.13 | 67 | 1021.3 |
| 20260905124705 | 72 | 263 | 5.2 | 8.7 | 0.00 | 0.13 | 0.13 | 67 | 1021.3 |
| 20260905124700 | 72 | 274 | 5.2 | 8.7 | 0.00 | 0.13 | 0.13 | 67 | 1021.3 |
| 20260905124604 | 71 | 289 | 5.2 | 8.7 | 0.00 | 0.13 | 0.13 | 68 | 1021.5 |
| 20260905124501 | 71 | 235 | 6.1 | 10.4 | 0.00 | 0.13 | 0.13 | 68 | 1021.3 |
| 20260905124402 | 71 | 200 | 6.1 | 10.4 | 0.00 | 0.13 | 0.13 | 69 | 1021.5 |
| 20260905124301 | 71 | 223 | 6.1 | 10.4 | 0.00 | 0.13 | 0.13 | 68 | 1021.5 |
| 20260905124201 | 71 | 263 | 6.1 | 10.4 | 0.00 | 0.13 | 0.13 | 67 | 1021.6 |
| 20260905124152 | 71 | 243 | 6.1 | 10.4 | 0.00 | 0.13 | 0.13 | 67 | 1021.6 |
| 20260905124146 | 71 | 275 | 6.1 | 10.4 | 0.00 | 0.13 | 0.13 | 68 | 1021.5 |
| 20260905124142 | 71 | 227 | 6.1 | 10.4 | 0.00 | 0.13 | 0.13 | 69 | 1021.6 |
| 20260905123921 | 71 | 279 | 6.1 | 10.4 | 0.00 | 0.13 | 0.13 | 68 | 1021.6 |
| 20260905123917 | 71 | 277 | 6.1 | 10.4 | 0.00 | 0.13 | 0.13 | 68 | 1021.6 |
| 20260905123913 | 71 | 243 | 6.1 | 10.4 | 0.00 | 0.13 | 0.13 | 67 | 1021.6 |
| 20260905123601 | 71 | 219 | 5.2 | 10.4 | 0.00 | 0.13 | 0.13 | 69 | 1021.6 |
| 20260905123501 | 71 | 213 | 5.2 | 9.6 | 0.00 | 0.13 | 0.13 | 68 | 1021.5 |
| 20260905123401 | 71 | 277 | 5.2 | 9.6 | 0.00 | 0.13 | 0.13 | 69 | 1021.6 |
| 20260905123301 | 71 | 266 | 4.3 | 9.6 | 0.00 | 0.13 | 0.13 | 69 | 1021.6 |
| 20260905123200 | 70 | 256 | 4.3 | 7.8 | 0.00 | 0.13 | 0.13 | 69 | 1021.5 |
| 20260905123101 | 70 | 265 | 4.3 | 7.8 | 0.00 | 0.13 | 0.13 | 70 | 1021.6 |
| 20260905123001 | 70 | 235 | 4.3 | 8.7 | 0.00 | 0.13 | 0.13 | 70 | 1021.6 |
| 20260905122900 | 70 | 278 | 4.3 | 8.7 | 0.00 | 0.13 | 0.13 | 71 | 1021.5 |
| 20260905122801 | 70 | 267 | 4.3 | 8.7 | 0.00 | 0.13 | 0.13 | 72 | 1021.6 |
| 20260905122701 | 70 | 237 | 4.3 | 9.6 | 0.00 | 0.13 | 0.13 | 72 | 1021.6 |
| 20260905122601 | 70 | 286 | 4.3 | 9.6 | 0.00 | 0.13 | 0.13 | 73 | 1021.6 |
| 20260905122501 | 70 | 227 | 5.2 | 9.6 | 0.00 | 0.13 | 0.13 | 72 | 1021.6 |
| 20260905122401 | 70 | 221 | 5.2 | 10.4 | 0.00 | 0.13 | 0.13 | 74 | 1021.6 |
| 20260905122301 | 69 | 271 | 5.2 | 10.4 | 0.00 | 0.13 | 0.13 | 74 | 1021.5 |
| 20260905122201 | 69 | 254 | 5.2 | 10.4 | 0.00 | 0.13 | 0.13 | 74 | 1021.5 |
| 20260905122101 | 69 | 267 | 5.2 | 10.4 | 0.00 | 0.13 | 0.13 | 72 | 1021.5 |
| 20260905122001 | 69 | 271 | 5.2 | 10.4 | 0.00 | 0.13 | 0.13 | 71 | 1021.5 |
| 20260905121901 | 69 | 258 | 5.2 | 10.4 | 0.00 | 0.13 | 0.13 | 72 | 1021.6 |
| 20260905121802 | 69 | 279 | 5.2 | 10.4 | 0.00 | 0.13 | 0.13 | 73 | 1021.6 |
| 20260905121700 | 69 | 256 | 5.2 | 10.4 | 0.00 | 0.13 | 0.13 | 73 | 1021.5 |
| 20260905121600 | 69 | 259 | 5.2 | 10.4 | 0.00 | 0.13 | 0.13 | 73 | 1021.6 |
| 20260905121501 | 69 | 233 | 5.2 | 10.4 | 0.00 | 0.13 | 0.13 | 73 | 1021.5 |
| 20260905121401 | 69 | 271 | 4.3 | 9.6 | 0.00 | 0.13 | 0.13 | 74 | 1021.5 |
| 20260905121301 | 69 | 266 | 4.3 | 9.6 | 0.00 | 0.13 | 0.13 | 76 | 1021.5 |
| 20260905121201 | 69 | 247 | 4.3 | 9.6 | 0.00 | 0.13 | 0.13 | 75 | 1021.6 |
| 20260905121101 | 68 | 225 | 4.3 | 9.6 | 0.00 | 0.13 | 0.13 | 76 | 1021.5 |
| 20260905121001 | 68 | 291 | 3.5 | 9.6 | 0.00 | 0.13 | 0.13 | 76 | 1021.5 |
| 20260905120901 | 68 | 251 | 3.5 | 7.8 | 0.00 | 0.13 | 0.13 | 76 | 1021.6 |
| 20260905120801 | 68 | 263 | 3.5 | 7.8 | 0.00 | 0.13 | 0.13 | 77 | 1021.6 |
| 20260905120701 | 68 | 229 | 3.5 | 7.8 | 0.00 | 0.13 | 0.13 | 77 | 1021.6 |
| 20260905120601 | 68 | 263 | 3.5 | 7.8 | 0.00 | 0.13 | 0.13 | 77 | 1021.6 |
| 20260905120501 | 68 | 273 | 3.5 | 7.8 | 0.00 | 0.13 | 0.13 | 78 | 1021.6 |
| 20260905120401 | 68 | 284 | 3.5 | 7.8 | 0.00 | 0.13 | 0.13 | 79 | 1021.6 |
| 20260905120302 | 68 | 216 | 3.5 | 7.8 | 0.00 | 0.13 | 0.13 | 77 | 1021.6 |
| 20260905120200 | 68 | 254 | 3.5 | 7.8 | 0.00 | 0.13 | 0.13 | 78 | 1021.6 |
| 20260905120001 | 67 | 222 | 3.5 | 7.8 | 0.00 | 0.13 | 0.13 | 78 | 1021.6 |
| 20260905115901 | 67 | 225 | 3.5 | 7.8 | 0.00 | 0.13 | 0.13 | 77 | 1021.6 |
| 20260905115801 | 67 | 219 | 3.5 | 7.8 | 0.00 | 0.13 | 0.13 | 77 | 1021.6 |
| 20260905115701 | 67 | 217 | 4.3 | 8.7 | 0.00 | 0.13 | 0.13 | 77 | 1021.6 |
| 20260905115601 | 67 | 282 | 4.3 | 9.6 | 0.00 | 0.13 | 0.13 | 78 | 1021.6 |
| 20260905115500 | 67 | 300 | 4.3 | 9.6 | 0.00 | 0.13 | 0.13 | 78 | 1021.6 |
| 20260905115401 | 67 | 255 | 4.3 | 9.6 | 0.00 | 0.13 | 0.13 | 79 | 1021.7 |
| 20260905115300 | 67 | 244 | 4.3 | 9.6 | 0.00 | 0.13 | 0.13 | 78 | 1021.6 |
| 20260905115200 | 67 | 285 | 4.3 | 9.6 | 0.00 | 0.13 | 0.13 | 78 | 1021.7 |
| 20260905115100 | 67 | 257 | 4.3 | 9.6 | 0.00 | 0.13 | 0.13 | 77 | 1021.7 |
| 20260905115001 | 67 | 262 | 5.2 | 9.6 | 0.00 | 0.13 | 0.13 | 77 | 1021.7 |
| 20260905114920 | 67 | 265 | 5.2 | 9.6 | 0.00 | 0.13 | 0.13 | 78 | 1021.7 |
| 20260905114916 | 67 | 277 | 5.2 | 9.6 | 0.00 | 0.13 | 0.13 | 81 | 1021.7 |
| 20260905114912 | 67 | 248 | 4.3 | 9.6 | 0.00 | 0.13 | 0.13 | 80 | 1021.7 |
| 20260905114601 | 67 | 265 | 4.3 | 9.6 | 0.00 | 0.13 | 0.13 | 80 | 1021.6 |
| 20260905114503 | 66 | 203 | 4.3 | 9.6 | 0.00 | 0.13 | 0.13 | 81 | 1021.7 |
| 20260905114401 | 66 | 240 | 4.3 | 9.6 | 0.00 | 0.13 | 0.13 | 81 | 1021.7 |
| 20260905114301 | 66 | 228 | 4.3 | 9.6 | 0.00 | 0.13 | 0.13 | 82 | 1021.7 |
| 20260905114201 | 66 | 202 | 4.3 | 9.6 | 0.00 | 0.13 | 0.13 | 81 | 1021.7 |
| 20260905114101 | 66 | 233 | 4.3 | 9.6 | 0.00 | 0.13 | 0.13 | 82 | 1021.8 |
| 20260905114001 | 66 | 240 | 4.3 | 9.6 | 0.00 | 0.13 | 0.13 | 82 | 1021.8 |
| 20260905113905 | 66 | 213 | 4.3 | 7.8 | 0.00 | 0.13 | 0.13 | 84 | 1021.8 |
| 20260905113802 | 66 | 222 | 3.5 | 7.8 | 0.00 | 0.13 | 0.13 | 84 | 1021.8 |
| 20260905113701 | 65 | 212 | 3.5 | 7.8 | 0.00 | 0.13 | 0.13 | 83 | 1021.8 |
| 20260905113601 | 65 | 252 | 3.5 | 7.8 | 0.00 | 0.13 | 0.13 | 83 | 1021.8 |
| 20260905113501 | 65 | 246 | 3.5 | 7.0 | 0.00 | 0.13 | 0.13 | 84 | 1021.7 |
| 20260905113401 | 65 | 279 | 3.5 | 7.0 | 0.00 | 0.13 | 0.13 | 85 | 1021.8 |
| 20260905113301 | 65 | 218 | 3.5 | 7.0 | 0.00 | 0.13 | 0.13 | 84 | 1021.7 |
| 20260905113200 | 65 | 202 | 3.5 | 7.0 | 0.00 | 0.13 | 0.13 | 85 | 1021.8 |
| 20260905113100 | 65 | 266 | 3.5 | 7.0 | 0.00 | 0.13 | 0.13 | 85 | 1021.8 |
| 20260905113000 | 65 | 297 | 3.5 | 7.0 | 0.00 | 0.13 | 0.13 | 85 | 1021.8 |
| 20260905112901 | 65 | 242 | 3.5 | 7.0 | 0.00 | 0.13 | 0.13 | 85 | 1021.7 |
| 20260905112800 | 65 | 244 | 3.5 | 7.0 | 0.00 | 0.13 | 0.13 | 86 | 1021.7 |
| 20260905112700 | 65 | 248 | 3.5 | 7.0 | 0.00 | 0.13 | 0.13 | 85 | 1021.7 |
| 20260905112601 | 64 | 229 | 3.5 | 7.0 | 0.00 | 0.13 | 0.13 | 85 | 1021.7 |
| 20260905112501 | 64 | 258 | 3.5 | 7.0 | 0.00 | 0.13 | 0.13 | 86 | 1021.7 |
| 20260905112401 | 64 | 247 | 3.5 | 7.0 | 0.00 | 0.13 | 0.13 | 87 | 1021.8 |
| 20260905112300 | 64 | 241 | 3.5 | 7.8 | 0.00 | 0.13 | 0.13 | 85 | 1021.7 |
| 20260905112201 | 64 | 228 | 3.5 | 7.8 | 0.00 | 0.13 | 0.13 | 85 | 1021.8 |
| 20260905112056 | 64 | 281 | 4.3 | 7.8 | 0.00 | 0.13 | 0.13 | 85 | 1021.7 |
| 20260905111956 | 64 | 300 | 4.3 | 9.6 | 0.00 | 0.13 | 0.13 | 86 | 1021.7 |
| 20260905111856 | 64 | 300 | 5.2 | 9.6 | 0.00 | 0.13 | 0.13 | 86 | 1021.7 |
| 20260905111756 | 64 | 298 | 5.2 | 9.6 | 0.00 | 0.13 | 0.13 | 86 | 1021.8 |
| 20260905111654 | 64 | 284 | 5.2 | 9.6 | 0.00 | 0.13 | 0.13 | 86 | 1021.7 |
| 20260905111548 | 64 | 275 | 5.2 | 9.6 | 0.01 | 0.13 | 0.13 | 86 | 1021.8 |
| 20260905111447 | 64 | 234 | 5.2 | 9.6 | 0.01 | 0.13 | 0.13 | 85 | 1021.7 |
| 20260905111418 | 64 | 246 | 6.1 | 9.6 | 0.01 | 0.13 | 0.13 | 85 | 1021.8 |
| 20260905111413 | 64 | 261 | 5.2 | 9.6 | 0.01 | 0.13 | 0.13 | 85 | 1021.7 |
| 20260905111403 | 64 | 233 | 6.1 | 9.6 | 0.01 | 0.13 | 0.13 | 85 | 1021.8 |
| 20260905111148 | 64 | 260 | 6.1 | 9.6 | 0.01 | 0.13 | 0.13 | 85 | 1021.8 |
| 20260905111044 | 64 | 247 | 5.2 | 9.6 | 0.01 | 0.13 | 0.13 | 85 | 1021.8 |
| 20260905110943 | 64 | 254 | 5.2 | 9.6 | 0.01 | 0.13 | 0.13 | 87 | 1021.7 |
| 20260905110846 | 63 | 275 | 5.2 | 9.6 | 0.01 | 0.13 | 0.13 | 86 | 1021.8 |
| 20260905110744 | 63 | 273 | 5.2 | 9.6 | 0.01 | 0.13 | 0.13 | 86 | 1021.7 |
| 20260905110641 | 63 | 265 | 5.2 | 9.6 | 0.01 | 0.13 | 0.13 | 87 | 1021.7 |
| 20260905110538 | 63 | 230 | 5.2 | 9.6 | 0.01 | 0.13 | 0.13 | 88 | 1021.8 |
| 20260905110436 | 63 | 286 | 5.2 | 9.6 | 0.01 | 0.13 | 0.13 | 87 | 1021.7 |
| 20260905110418 | 63 | 234 | 3.5 | 7.8 | 0.01 | 0.13 | 0.13 | 87 | 1021.7 |
| 20260905110407 | 63 | 312 | 4.3 | 9.6 | 0.01 | 0.13 | 0.13 | 88 | 1021.7 |
| 20260905110403 | 63 | 236 | 4.3 | 9.6 | 0.01 | 0.13 | 0.13 | 88 | 1021.8 |
| 20260905110136 | 63 | 198 | 3.5 | 7.8 | 0.01 | 0.13 | 0.13 | 87 | 1021.7 |
| 20260905110030 | 63 | 223 | 3.5 | 7.8 | 0.01 | 0.13 | 0.13 | 88 | 1021.7 |
| 20260905105929 | 62 | 210 | 3.5 | 7.8 | 0.01 | 0.13 | 0.13 | 90 | 1021.6 |
| 20260905105830 | 62 | 230 | 3.5 | 7.0 | 0.01 | 0.13 | 0.13 | 89 | 1021.7 |
| 20260905105730 | 62 | 269 | 2.6 | 6.1 | 0.01 | 0.13 | 0.13 | 89 | 1021.6 |
| 20260905105652 | 62 | 284 | 2.6 | 6.1 | 0.01 | 0.13 | 0.13 | 89 | 1021.6 |
| 20260905105629 | 62 | 267 | 2.6 | 6.1 | 0.01 | 0.13 | 0.13 | 89 | 1021.6 |
| 20260905105530 | 62 | 287 | 2.6 | 6.1 | 0.01 | 0.13 | 0.13 | 88 | 1021.6 |
| 20260905105430 | 62 | 278 | 2.6 | 6.1 | 0.01 | 0.13 | 0.13 | 88 | 1021.6 |
| 20260905105330 | 62 | 225 | 2.6 | 6.1 | 0.01 | 0.13 | 0.13 | 88 | 1021.6 |
| 20260905105230 | 62 | 242 | 2.6 | 6.1 | 0.01 | 0.13 | 0.13 | 88 | 1021.6 |
| 20260905105152 | 62 | 224 | 2.6 | 6.1 | 0.01 | 0.13 | 0.13 | 88 | 1021.6 |
| 20260905105130 | 62 | 224 | 2.6 | 6.1 | 0.01 | 0.13 | 0.13 | 89 | 1021.6 |
| 20260905105029 | 62 | 223 | 2.6 | 6.1 | 0.01 | 0.13 | 0.13 | 89 | 1021.6 |
| 20260905104930 | 62 | 265 | 1.7 | 5.2 | 0.01 | 0.13 | 0.13 | 89 | 1021.6 |
| 20260905104830 | 62 | 246 | 1.7 | 5.2 | 0.01 | 0.13 | 0.13 | 89 | 1021.6 |
| 20260905104730 | 62 | 227 | 1.7 | 5.2 | 0.01 | 0.13 | 0.13 | 89 | 1021.6 |
| 20260905104629 | 62 | 225 | 1.7 | 5.2 | 0.01 | 0.13 | 0.13 | 89 | 1021.6 |
| 20260905104529 | 62 | 225 | 1.7 | 5.2 | 0.01 | 0.13 | 0.13 | 88 | 1021.6 |
| 20260905104429 | 62 | 198 | 1.7 | 5.2 | 0.02 | 0.13 | 0.13 | 88 | 1021.6 |
| 20260905104329 | 62 | 195 | 1.7 | 5.2 | 0.02 | 0.13 | 0.13 | 89 | 1021.6 |
| 20260905104230 | 62 | 205 | 1.7 | 4.3 | 0.02 | 0.13 | 0.13 | 89 | 1021.6 |
| 20260905104150 | 62 | 223 | 1.7 | 4.3 | 0.02 | 0.13 | 0.13 | 89 | 1021.6 |
| 20260905104129 | 62 | 227 | 1.7 | 4.3 | 0.02 | 0.13 | 0.13 | 89 | 1021.6 |
| 20260905104029 | 62 | 296 | 1.7 | 4.3 | 0.02 | 0.13 | 0.13 | 89 | 1021.7 |
| 20260905103929 | 62 | 296 | 1.7 | 4.3 | 0.02 | 0.13 | 0.13 | 90 | 1021.7 |
| 20260905103915 | 61 | 234 | 1.7 | 4.3 | 0.02 | 0.13 | 0.13 | 90 | 1021.7 |
| 20260905103906 | 62 | 241 | 1.7 | 3.5 | 0.02 | 0.13 | 0.13 | 90 | 1021.7 |
| 20260905103902 | 61 | 241 | 1.7 | 4.3 | 0.02 | 0.13 | 0.13 | 90 | 1021.7 |
| 20260905103628 | 61 | 254 | 1.7 | 4.3 | 0.02 | 0.13 | 0.13 | 90 | 1021.7 |
| 20260905103526 | 61 | 209 | 1.7 | 4.3 | 0.02 | 0.13 | 0.13 | 90 | 1021.7 |
| 20260905103424 | 61 | 208 | 1.7 | 4.3 | 0.02 | 0.13 | 0.13 | 90 | 1021.6 |
| 20260905103415 | 61 | 208 | 1.7 | 5.2 | 0.02 | 0.13 | 0.13 | 89 | 1021.6 |
| 20260905103406 | 61 | 208 | 1.7 | 4.3 | 0.02 | 0.13 | 0.13 | 90 | 1021.6 |
| 20260905103402 | 61 | 208 | 1.7 | 5.2 | 0.02 | 0.13 | 0.13 | 89 | 1021.6 |
| 20260905103120 | 61 | 208 | 1.7 | 5.2 | 0.02 | 0.13 | 0.13 | 89 | 1021.6 |
| 20260905103020 | 61 | 208 | 1.7 | 5.2 | 0.02 | 0.13 | 0.13 | 90 | 1021.6 |
| 20260905102917 | 61 | 208 | 1.7 | 5.2 | 0.02 | 0.13 | 0.13 | 90 | 1021.5 |
| 20260905102913 | 61 | 208 | 1.7 | 5.2 | 0.02 | 0.13 | 0.13 | 90 | 1021.5 |
| 20260905102903 | 61 | 208 | 1.7 | 5.2 | 0.02 | 0.13 | 0.13 | 90 | 1021.5 |
| 20260905102859 | 61 | 208 | 1.7 | 5.2 | 0.02 | 0.13 | 0.13 | 90 | 1021.5 |
| 20260905102612 | 61 | 208 | 2.6 | 5.2 | 0.02 | 0.13 | 0.13 | 90 | 1021.5 |
| 20260905102511 | 61 | 208 | 2.6 | 5.2 | 0.02 | 0.13 | 0.13 | 90 | 1021.5 |
| 20260905102415 | 61 | 213 | 2.6 | 6.1 | 0.02 | 0.13 | 0.13 | 90 | 1021.3 |
| 20260905102411 | 61 | 207 | 2.6 | 5.2 | 0.02 | 0.13 | 0.13 | 90 | 1021.3 |
| 20260905102402 | 61 | 208 | 2.6 | 5.2 | 0.02 | 0.13 | 0.13 | 89 | 1021.3 |
| 20260905102358 | 61 | 213 | 2.6 | 6.1 | 0.02 | 0.13 | 0.13 | 90 | 1021.3 |
| 20260905102108 | 61 | 209 | 2.6 | 6.1 | 0.02 | 0.13 | 0.13 | 90 | 1021.3 |
| 20260905102007 | 61 | 216 | 2.6 | 6.1 | 0.02 | 0.13 | 0.13 | 90 | 1021.3 |
| 20260905101905 | 61 | 216 | 2.6 | 6.1 | 0.02 | 0.13 | 0.13 | 90 | 1021.3 |
| 20260905101801 | 61 | 216 | 3.5 | 6.1 | 0.03 | 0.13 | 0.13 | 90 | 1021.3 |
| 20260905101646 | 61 | 215 | 3.5 | 6.1 | 0.03 | 0.13 | 0.13 | 90 | 1021.3 |
| 20260905101600 | 61 | 214 | 3.5 | 6.1 | 0.03 | 0.13 | 0.13 | 90 | 1021.3 |
| 20260905101500 | 61 | 205 | 3.5 | 6.1 | 0.03 | 0.13 | 0.13 | 90 | 1021.5 |
| 20260905101400 | 60 | 212 | 3.5 | 6.1 | 0.04 | 0.13 | 0.13 | 90 | 1021.3 |
| 20260905101254 | 60 | 254 | 3.5 | 6.1 | 0.04 | 0.13 | 0.13 | 90 | 1021.3 |
| 20260905101146 | 60 | 227 | 3.5 | 6.1 | 0.05 | 0.13 | 0.13 | 90 | 1021.3 |
| 20260905101054 | 60 | 212 | 3.5 | 7.0 | 0.05 | 0.13 | 0.13 | 90 | 1021.3 |
| 20260905100954 | 60 | 211 | 2.6 | 7.0 | 0.05 | 0.13 | 0.13 | 91 | 1021.3 |
| 20260905100854 | 60 | 224 | 2.6 | 7.0 | 0.05 | 0.13 | 0.13 | 91 | 1021.3 |
| 20260905100748 | 60 | 229 | 2.6 | 7.0 | 0.05 | 0.13 | 0.13 | 91 | 1021.2 |
| 20260905100643 | 60 | 211 | 2.6 | 7.0 | 0.05 | 0.13 | 0.13 | 91 | 1021.2 |
| 20260905100547 | 60 | 232 | 2.6 | 7.0 | 0.05 | 0.13 | 0.13 | 91 | 1021.2 |
| 20260905100447 | 60 | 212 | 2.6 | 7.0 | 0.05 | 0.13 | 0.13 | 91 | 1021.3 |
| 20260905100347 | 60 | 223 | 2.6 | 7.0 | 0.05 | 0.13 | 0.13 | 91 | 1021.3 |
| 20260905100246 | 60 | 229 | 2.6 | 7.0 | 0.05 | 0.13 | 0.13 | 91 | 1021.3 |
| 20260905100143 | 60 | 242 | 1.7 | 7.0 | 0.05 | 0.13 | 0.13 | 91 | 1021.3 |
| 20260905100045 | 60 | 259 | 1.7 | 5.2 | 0.05 | 0.13 | 0.13 | 91 | 1021.3 |
| 20260905095946 | 60 | 293 | 1.7 | 5.2 | 0.05 | 0.13 | 0.13 | 91 | 1021.5 |
| 20260905095846 | 60 | 234 | 1.7 | 5.2 | 0.05 | 0.13 | 0.13 | 92 | 1021.5 |
| 20260905095745 | 60 | 234 | 1.7 | 5.2 | 0.05 | 0.13 | 0.13 | 92 | 1021.3 |
| 20260905095644 | 60 | 242 | 1.7 | 5.2 | 0.05 | 0.13 | 0.13 | 92 | 1021.3 |
| 20260905095544 | 60 | 200 | 1.7 | 5.2 | 0.06 | 0.13 | 0.13 | 92 | 1021.3 |
| 20260905095442 | 60 | 185 | 0.9 | 4.3 | 0.06 | 0.13 | 0.13 | 92 | 1021.3 |
| 20260905095342 | 60 | 184 | 0.9 | 4.3 | 0.06 | 0.13 | 0.13 | 92 | 1021.3 |
| 20260905095242 | 60 | 184 | 1.7 | 4.3 | 0.06 | 0.13 | 0.13 | 92 | 1021.3 |
| 20260905095142 | 60 | 184 | 0.9 | 4.3 | 0.06 | 0.13 | 0.13 | 91 | 1021.3 |
| 20260905095040 | 60 | 183 | 0.9 | 4.3 | 0.06 | 0.13 | 0.13 | 91 | 1021.3 |
| 20260905094940 | 59 | 127 | 0.9 | 4.3 | 0.06 | 0.13 | 0.13 | 92 | 1021.3 |
| 20260905094840 | 59 | 123 | 0.9 | 4.3 | 0.06 | 0.13 | 0.13 | 91 | 1021.2 |
| 20260905094740 | 59 | 123 | 0.9 | 4.3 | 0.06 | 0.13 | 0.13 | 91 | 1021.2 |
| 20260905094640 | 59 | 123 | 0.9 | 4.3 | 0.06 | 0.13 | 0.13 | 91 | 1021.2 |
| 20260905094540 | 59 | 127 | 0.9 | 4.3 | 0.06 | 0.13 | 0.12 | 91 | 1021.3 |
| 20260905094439 | 59 | 127 | 0.9 | 4.3 | 0.05 | 0.12 | 0.12 | 91 | 1021.2 |
| 20260905094402 | 59 | 127 | 0.9 | 4.3 | 0.05 | 0.12 | 0.12 | 91 | 1021.2 |
| 20260905094354 | 59 | 98 | 0.9 | 3.5 | 0.05 | 0.12 | 0.12 | 92 | 1021.2 |
| 20260905094350 | 59 | 100 | 0.9 | 3.5 | 0.05 | 0.12 | 0.12 | 91 | 1021.2 |
| 20260905094036 | 59 | 100 | 1.7 | 3.5 | 0.05 | 0.12 | 0.12 | 91 | 1021.3 |
| 20260905093934 | 59 | 101 | 1.7 | 7.8 | 0.05 | 0.12 | 0.12 | 91 | 1021.5 |
| 20260905093834 | 59 | 101 | 1.7 | 7.8 | 0.05 | 0.12 | 0.12 | 91 | 1021.5 |
| 20260905093734 | 59 | 101 | 2.6 | 7.8 | 0.05 | 0.12 | 0.12 | 91 | 1021.3 |
| 20260905093634 | 59 | 95 | 2.6 | 7.8 | 0.05 | 0.12 | 0.12 | 90 | 1021.3 |
| 20260905093532 | 59 | 105 | 2.6 | 7.8 | 0.05 | 0.12 | 0.12 | 90 | 1021.3 |
| 20260905093432 | 59 | 104 | 2.6 | 7.8 | 0.05 | 0.12 | 0.12 | 90 | 1021.2 |
| 20260905093350 | 59 | 148 | 2.6 | 7.0 | 0.05 | 0.12 | 0.12 | 90 | 1021.3 |
| 20260905093346 | 59 | 101 | 2.6 | 7.8 | 0.05 | 0.12 | 0.12 | 91 | 1021.2 |
| 20260905093338 | 59 | 90 | 2.6 | 7.8 | 0.05 | 0.12 | 0.12 | 91 | 1021.1 |
| 20260905093329 | 59 | 125 | 2.6 | 7.8 | 0.05 | 0.12 | 0.12 | 90 | 1021.3 |
| 20260905093114 | 59 | 134 | 2.6 | 7.8 | 0.05 | 0.12 | 0.12 | 90 | 1021.3 |
| 20260905093110 | 59 | 110 | 2.6 | 7.8 | 0.05 | 0.12 | 0.12 | 90 | 1021.3 |
| 20260905092854 | 59 | 142 | 2.6 | 7.0 | 0.05 | 0.12 | 0.12 | 90 | 1021.3 |
| 20260905092847 | 59 | 147 | 2.6 | 7.0 | 0.05 | 0.12 | 0.12 | 90 | 1021.5 |
| 20260905092632 | 59 | 148 | 2.6 | 7.0 | 0.05 | 0.12 | 0.12 | 90 | 1021.3 |
| 20260905092532 | 59 | 150 | 2.6 | 7.0 | 0.05 | 0.12 | 0.12 | 90 | 1021.5 |
| 20260905092432 | 59 | 127 | 2.6 | 7.0 | 0.05 | 0.12 | 0.12 | 90 | 1021.5 |
| 20260905092330 | 59 | 116 | 2.6 | 7.0 | 0.05 | 0.12 | 0.11 | 90 | 1021.5 |
| 20260905092230 | 59 | 144 | 2.6 | 6.1 | 0.04 | 0.11 | 0.11 | 90 | 1021.3 |
| 20260905092130 | 59 | 109 | 2.6 | 6.1 | 0.04 | 0.11 | 0.11 | 90 | 1021.3 |
| 20260905092030 | 59 | 167 | 2.6 | 6.1 | 0.05 | 0.11 | 0.11 | 90 | 1021.3 |
| 20260905091929 | 59 | 167 | 2.6 | 6.1 | 0.05 | 0.11 | 0.10 | 90 | 1021.3 |
| 20260905091900 | 59 | 128 | 3.5 | 6.1 | 0.05 | 0.09 | 0.09 | 89 | 1021.6 |
| 20260905091855 | 59 | 124 | 2.6 | 6.1 | 0.04 | 0.10 | 0.10 | 90 | 1021.3 |
| 20260905091847 | 59 | 132 | 2.6 | 6.1 | 0.05 | 0.10 | 0.09 | 89 | 1021.5 |
| 20260905091630 | 59 | 128 | 3.5 | 6.1 | 0.05 | 0.09 | 0.09 | 89 | 1021.6 |
| 20260905091530 | 59 | 128 | 3.5 | 6.1 | 0.06 | 0.09 | 0.09 | 89 | 1021.3 |
| 20260905091430 | 59 | 104 | 3.5 | 6.1 | 0.06 | 0.09 | 0.09 | 89 | 1021.3 |
| 20260905091401 | 59 | 169 | 2.6 | 6.1 | 0.06 | 0.08 | 0.08 | 89 | 1021.5 |
| 20260905091329 | 59 | 132 | 3.5 | 6.1 | 0.06 | 0.09 | 0.09 | 89 | 1021.5 |
| 20260905091229 | 59 | 168 | 3.5 | 6.1 | 0.06 | 0.09 | 0.08 | 89 | 1021.6 |
| 20260905091201 | 59 | 151 | 2.6 | 6.1 | 0.06 | 0.08 | 0.08 | 89 | 1021.5 |
| 20260905091029 | 59 | 146 | 2.6 | 6.1 | 0.06 | 0.08 | 0.08 | 89 | 1021.5 |
| 20260905090929 | 59 | 142 | 2.6 | 6.1 | 0.07 | 0.08 | 0.08 | 89 | 1021.3 |
| 20260905090830 | 59 | 116 | 2.6 | 6.1 | 0.07 | 0.08 | 0.08 | 89 | 1021.3 |
| 20260905090729 | 59 | 159 | 2.6 | 6.1 | 0.07 | 0.08 | 0.08 | 89 | 1021.3 |
| 20260905090634 | 59 | 144 | 2.6 | 6.1 | 0.07 | 0.08 | 0.08 | 89 | 1021.3 |
| 20260905090629 | 59 | 140 | 2.6 | 6.1 | 0.07 | 0.08 | 0.08 | 89 | 1021.3 |
| 20260905090529 | 59 | 136 | 2.6 | 6.1 | 0.07 | 0.08 | 0.08 | 89 | 1021.2 |
| 20260905090429 | 59 | 156 | 1.7 | 5.2 | 0.07 | 0.08 | 0.08 | 89 | 1021.2 |
| 20260905090329 | 59 | 132 | 1.7 | 5.2 | 0.07 | 0.08 | 0.08 | 89 | 1021.2 |
| 20260905090229 | 59 | 172 | 1.7 | 5.2 | 0.07 | 0.08 | 0.08 | 88 | 1021.2 |
| 20260905090124 | 59 | 153 | 1.7 | 5.2 | 0.07 | 0.08 | 0.08 | 88 | 1021.2 |
| 20260905090024 | 59 | 155 | 1.7 | 5.2 | 0.07 | 0.08 | 0.08 | 89 | 1021.1 |
| 20260905085924 | 59 | 128 | 1.7 | 5.2 | 0.07 | 0.08 | 0.08 | 89 | 1021.0 |
| 20260905085824 | 59 | 126 | 1.7 | 4.3 | 0.07 | 0.08 | 0.08 | 89 | 1021.0 |
| 20260905085723 | 59 | 123 | 1.7 | 4.3 | 0.07 | 0.08 | 0.08 | 89 | 1021.1 |
| 20260905085624 | 59 | 135 | 1.7 | 7.0 | 0.07 | 0.08 | 0.07 | 89 | 1021.1 |
| 20260905085521 | 59 | 126 | 1.7 | 7.8 | 0.06 | 0.07 | 0.07 | 89 | 1021.1 |
| 20260905085423 | 59 | 126 | 1.7 | 7.8 | 0.06 | 0.07 | 0.07 | 89 | 1021.1 |
| 20260905085322 | 59 | 126 | 2.6 | 7.8 | 0.06 | 0.07 | 0.07 | 89 | 1021.1 |
| 20260905085221 | 59 | 126 | 2.6 | 7.8 | 0.06 | 0.07 | 0.07 | 89 | 1021.1 |
| 20260905085131 | 59 | 127 | 2.6 | 7.8 | 0.06 | 0.07 | 0.07 | 89 | 1021.1 |
| 20260905085121 | 59 | 127 | 3.5 | 7.8 | 0.06 | 0.07 | 0.07 | 89 | 1021.0 |
| 20260905085113 | 58 | 133 | 4.3 | 8.7 | 0.06 | 0.07 | 0.07 | 90 | 1020.9 |
| 20260905085108 | 59 | 127 | 3.5 | 7.8 | 0.06 | 0.07 | 0.07 | 89 | 1021.0 |
| 20260905085104 | 58 | 127 | 3.5 | 7.8 | 0.06 | 0.07 | 0.07 | 89 | 1020.9 |
| 20260905084848 | 59 | 117 | 3.5 | 7.8 | 0.06 | 0.07 | 0.07 | 89 | 1020.9 |
| 20260905084840 | 58 | 143 | 3.5 | 8.7 | 0.06 | 0.07 | 0.07 | 90 | 1020.9 |
| 20260905084621 | 58 | 140 | 4.3 | 8.7 | 0.06 | 0.07 | 0.07 | 90 | 1020.9 |
| 20260905084522 | 58 | 146 | 4.3 | 8.7 | 0.06 | 0.07 | 0.07 | 89 | 1020.9 |
| 20260905084418 | 58 | 134 | 4.3 | 8.7 | 0.06 | 0.07 | 0.07 | 90 | 1020.9 |
| 20260905084357 | 58 | 125 | 4.3 | 8.7 | 0.06 | 0.07 | 0.07 | 89 | 1020.8 |
| 20260905084349 | 58 | 144 | 4.3 | 8.7 | 0.06 | 0.07 | 0.07 | 89 | 1020.9 |
| 20260905084341 | 58 | 174 | 4.3 | 8.7 | 0.06 | 0.07 | 0.07 | 89 | 1020.8 |
| 20260905084118 | 58 | 134 | 4.3 | 8.7 | 0.06 | 0.07 | 0.07 | 89 | 1020.8 |
| 20260905084018 | 58 | 143 | 4.3 | 8.7 | 0.06 | 0.07 | 0.07 | 89 | 1020.8 |
| 20260905083917 | 58 | 118 | 4.3 | 8.7 | 0.06 | 0.07 | 0.07 | 89 | 1020.7 |
| 20260905083817 | 58 | 132 | 4.3 | 8.7 | 0.06 | 0.07 | 0.07 | 89 | 1020.7 |
| 20260905083718 | 58 | 150 | 4.3 | 8.7 | 0.06 | 0.07 | 0.07 | 89 | 1020.8 |
| 20260905083629 | 58 | 140 | 4.3 | 8.7 | 0.06 | 0.07 | 0.07 | 89 | 1020.8 |
| 20260905083618 | 58 | 157 | 4.3 | 8.7 | 0.06 | 0.07 | 0.07 | 89 | 1020.8 |
| 20260905083518 | 58 | 125 | 3.5 | 8.7 | 0.06 | 0.07 | 0.07 | 89 | 1020.7 |
| 20260905083418 | 58 | 101 | 3.5 | 8.7 | 0.06 | 0.07 | 0.07 | 88 | 1020.7 |
| 20260905083359 | 59 | 144 | 3.5 | 7.8 | 0.06 | 0.07 | 0.07 | 88 | 1020.8 |
| 20260905083349 | 58 | 87 | 3.5 | 8.7 | 0.06 | 0.07 | 0.07 | 88 | 1020.8 |
| 20260905083345 | 58 | 107 | 3.5 | 8.7 | 0.06 | 0.07 | 0.07 | 88 | 1020.8 |
| 20260905083117 | 59 | 117 | 3.5 | 7.8 | 0.06 | 0.07 | 0.07 | 88 | 1020.8 |
| 20260905083017 | 59 | 117 | 3.5 | 7.0 | 0.06 | 0.07 | 0.07 | 88 | 1020.8 |
| 20260905082918 | 59 | 112 | 2.6 | 7.0 | 0.06 | 0.07 | 0.07 | 88 | 1020.8 |
| 20260905082818 | 59 | 123 | 2.6 | 7.0 | 0.06 | 0.07 | 0.07 | 88 | 1020.9 |
| 20260905082718 | 59 | 123 | 2.6 | 7.8 | 0.06 | 0.07 | 0.07 | 87 | 1021.0 |
| 20260905082629 | 59 | 133 | 2.6 | 7.8 | 0.06 | 0.07 | 0.07 | 87 | 1021.0 |
| 20260905082618 | 59 | 98 | 2.6 | 7.8 | 0.06 | 0.07 | 0.07 | 87 | 1021.0 |
| 20260905082515 | 59 | 96 | 2.6 | 7.8 | 0.06 | 0.07 | 0.07 | 87 | 1021.0 |
| 20260905082414 | 59 | 137 | 1.7 | 7.8 | 0.06 | 0.07 | 0.07 | 86 | 1021.1 |
| 20260905082313 | 59 | 138 | 1.7 | 7.8 | 0.06 | 0.07 | 0.07 | 86 | 1021.2 |
| 20260905082215 | 59 | 138 | 1.7 | 7.8 | 0.06 | 0.07 | 0.07 | 86 | 1021.2 |
| 20260905082130 | 59 | 147 | 1.7 | 7.8 | 0.06 | 0.07 | 0.06 | 86 | 1021.2 |
| 20260905082114 | 60 | 148 | 1.7 | 7.8 | 0.06 | 0.07 | 0.06 | 86 | 1021.2 |
| 20260905082014 | 60 | 148 | 2.6 | 7.8 | 0.06 | 0.06 | 0.06 | 86 | 1021.2 |
| 20260905081914 | 60 | 148 | 2.6 | 7.8 | 0.06 | 0.06 | 0.06 | 85 | 1021.2 |
| 20260905081813 | 60 | 151 | 2.6 | 7.8 | 0.05 | 0.06 | 0.06 | 85 | 1021.2 |
| 20260905081713 | 60 | 171 | 3.5 | 7.8 | 0.04 | 0.05 | 0.05 | 85 | 1021.2 |
| 20260905081630 | 60 | 146 | 3.5 | 7.8 | 0.04 | 0.05 | 0.04 | 85 | 1021.2 |
| 20260905081613 | 60 | 139 | 3.5 | 7.8 | 0.04 | 0.05 | 0.04 | 86 | 1021.2 |
| 20260905081513 | 60 | 82 | 3.5 | 7.8 | 0.03 | 0.04 | 0.03 | 86 | 1021.3 |
| 20260905081414 | 60 | 355 | 4.3 | 9.6 | 0.02 | 0.03 | 0.03 | 85 | 1021.5 |
| 20260905081314 | 60 | 355 | 4.3 | 9.6 | 0.02 | 0.03 | 0.02 | 85 | 1021.5 |
| 20260905081215 | 60 | 355 | 4.3 | 9.6 | 0.01 | 0.02 | 0.02 | 86 | 1021.5 |
| 20260905081129 | 60 | 344 | 4.3 | 9.6 | 0.01 | 0.02 | 0.02 | 85 | 1021.5 |
| 20260905081114 | 60 | 9 | 5.2 | 9.6 | 0.01 | 0.02 | 0.02 | 85 | 1021.5 |
| 20260905081014 | 60 | 355 | 5.2 | 9.6 | 0.01 | 0.02 | 0.01 | 85 | 1021.3 |
| 20260905080914 | 60 | 9 | 5.2 | 9.6 | 0.00 | 0.01 | 0.01 | 85 | 1021.3 |
| 20260905080814 | 60 | 5 | 4.3 | 9.6 | 0.00 | 0.01 | 0.01 | 84 | 1021.3 |
| 20260905080713 | 60 | 9 | 4.3 | 9.6 | 0.00 | 0.01 | 0.01 | 84 | 1021.3 |
| 20260905080630 | 60 | 5 | 4.3 | 9.6 | 0.00 | 0.01 | 0.01 | 84 | 1021.3 |
| 20260905080609 | 60 | 48 | 4.3 | 9.6 | 0.00 | 0.01 | 0.01 | 84 | 1021.2 |
| 20260905080509 | 60 | 20 | 3.5 | 9.6 | 0.00 | 0.01 | 0.01 | 84 | 1021.2 |
| 20260905080411 | 60 | 15 | 3.5 | 8.7 | 0.00 | 0.01 | 0.01 | 84 | 1021.2 |
| 20260905080309 | 60 | 15 | 2.6 | 8.7 | 0.00 | 0.01 | 0.01 | 83 | 1021.2 |
| 20260905080210 | 60 | 333 | 2.6 | 7.8 | 0.00 | 0.01 | 0.01 | 84 | 1021.2 |
| 20260905080129 | 60 | 22 | 2.6 | 7.8 | 0.00 | 0.01 | 0.01 | 83 | 1021.2 |
| 20260905080109 | 60 | 0 | 1.7 | 7.8 | 0.00 | 0.01 | 0.01 | 83 | 1021.2 |
| 20260905080010 | 60 | 332 | 1.7 | 5.2 | 0.00 | 0.01 | 0.01 | 83 | 1021.1 |
| 20260905075910 | 60 | 12 | 1.7 | 5.2 | 0.00 | 0.01 | 0.01 | 83 | 1021.0 |
| 20260905075810 | 60 | 16 | 1.7 | 5.2 | 0.00 | 0.01 | 0.01 | 83 | 1021.0 |
| 20260905075710 | 60 | 60 | 1.7 | 5.2 | 0.00 | 0.01 | 0.01 | 83 | 1020.9 |
| 20260905075629 | 60 | 61 | 1.7 | 5.2 | 0.00 | 0.01 | 0.01 | 83 | 1020.9 |
| 20260905075610 | 60 | 60 | 1.7 | 5.2 | 0.00 | 0.01 | 0.01 | 83 | 1020.9 |
| 20260905075510 | 60 | 82 | 1.7 | 5.2 | 0.00 | 0.01 | 0.01 | 83 | 1020.9 |
| 20260905075410 | 60 | 49 | 1.7 | 3.5 | 0.00 | 0.01 | 0.01 | 83 | 1020.9 |
| 20260905075355 | 60 | 67 | 1.7 | 3.5 | 0.00 | 0.01 | 0.01 | 83 | 1020.8 |
| 20260905075350 | 60 | 49 | 1.7 | 3.5 | 0.00 | 0.01 | 0.01 | 83 | 1020.9 |
| 20260905075346 | 60 | 67 | 1.7 | 3.5 | 0.00 | 0.01 | 0.01 | 83 | 1020.8 |
| 20260905075110 | 60 | 67 | 1.7 | 3.5 | 0.00 | 0.01 | 0.01 | 83 | 1020.9 |
| 20260905075010 | 60 | 67 | 1.7 | 3.5 | 0.00 | 0.01 | 0.01 | 83 | 1020.9 |
| 20260905074910 | 60 | 86 | 1.7 | 3.5 | 0.00 | 0.01 | 0.01 | 83 | 1020.9 |
| 20260905074810 | 60 | 32 | 1.7 | 3.5 | 0.00 | 0.01 | 0.01 | 83 | 1020.9 |
| 20260905074705 | 60 | 32 | 1.7 | 3.5 | 0.00 | 0.01 | 0.01 | 83 | 1020.9 |
| 20260905074605 | 60 | 30 | 1.7 | 3.5 | 0.00 | 0.01 | 0.01 | 83 | 1020.9 |
| 20260905074505 | 60 | 16 | 0.9 | 3.5 | 0.00 | 0.01 | 0.01 | 83 | 1021.0 |
| 20260905074405 | 60 | 17 | 0.9 | 3.5 | 0.00 | 0.01 | 0.01 | 83 | 1020.9 |
| 20260905074355 | 60 | 18 | 0.9 | 3.5 | 0.00 | 0.01 | 0.01 | 82 | 1020.8 |
| 20260905074349 | 60 | 17 | 0.9 | 2.6 | 0.00 | 0.01 | 0.01 | 82 | 1020.8 |
| 20260905074345 | 60 | 18 | 0.9 | 3.5 | 0.00 | 0.01 | 0.01 | 82 | 1020.8 |
| 20260905074106 | 60 | 18 | 1.7 | 3.5 | 0.00 | 0.01 | 0.01 | 82 | 1020.8 |
| 20260905074008 | 60 | 18 | 1.7 | 3.5 | 0.00 | 0.01 | 0.01 | 82 | 1020.9 |
| 20260905073906 | 60 | 17 | 1.7 | 3.5 | 0.00 | 0.01 | 0.01 | 82 | 1020.8 |
| 20260905073805 | 60 | 17 | 1.7 | 3.5 | 0.00 | 0.01 | 0.01 | 82 | 1020.8 |
| 20260905073706 | 60 | 17 | 1.7 | 3.5 | 0.00 | 0.01 | 0.01 | 82 | 1020.8 |
| 20260905073606 | 60 | 17 | 1.7 | 3.5 | 0.00 | 0.01 | 0.01 | 82 | 1020.8 |
| 20260905073505 | 60 | 17 | 1.7 | 3.5 | 0.00 | 0.01 | 0.01 | 82 | 1020.7 |
| 20260905073405 | 60 | 17 | 1.7 | 3.5 | 0.00 | 0.01 | 0.01 | 82 | 1020.7 |
| 20260905073305 | 60 | 17 | 0.9 | 3.5 | 0.00 | 0.01 | 0.01 | 83 | 1020.8 |
| 20260905073205 | 60 | 17 | 0.9 | 3.5 | 0.00 | 0.01 | 0.01 | 83 | 1020.7 |
| 20260905073105 | 60 | 17 | 0.9 | 3.5 | 0.00 | 0.01 | 0.01 | 83 | 1020.7 |
| 20260905073006 | 60 | 24 | 0.9 | 3.5 | 0.00 | 0.01 | 0.01 | 84 | 1020.7 |
| 20260905072906 | 60 | 80 | 0.9 | 2.6 | 0.00 | 0.01 | 0.01 | 83 | 1020.7 |
| 20260905072852 | 60 | 109 | 0.9 | 2.6 | 0.00 | 0.01 | 0.01 | 83 | 1020.7 |
| 20260905072848 | 60 | 90 | 0.9 | 2.6 | 0.00 | 0.01 | 0.01 | 83 | 1020.7 |
| 20260905072843 | 60 | 109 | 0.9 | 2.6 | 0.00 | 0.01 | 0.01 | 83 | 1020.7 |
| 20260905072601 | 60 | 109 | 0.9 | 2.6 | 0.00 | 0.01 | 0.01 | 83 | 1020.7 |
| 20260905072501 | 60 | 109 | 0.9 | 2.6 | 0.00 | 0.01 | 0.01 | 83 | 1020.7 |
| 20260905072401 | 60 | 109 | 0.9 | 2.6 | 0.00 | 0.01 | 0.01 | 83 | 1020.7 |
| 20260905072354 | 60 | 109 | 0.9 | 2.6 | 0.00 | 0.01 | 0.01 | 84 | 1020.6 |
| 20260905072349 | 60 | 109 | 0.9 | 2.6 | 0.00 | 0.01 | 0.01 | 84 | 1020.6 |
| 20260905072345 | 60 | 109 | 0.9 | 2.6 | 0.00 | 0.01 | 0.01 | 84 | 1020.6 |
| 20260905072101 | 60 | 109 | 0.9 | 2.6 | 0.00 | 0.01 | 0.01 | 84 | 1020.6 |
| 20260905072001 | 60 | 111 | 0.9 | 2.6 | 0.00 | 0.01 | 0.01 | 84 | 1020.6 |
| 20260905071901 | 60 | 111 | 0.9 | 2.6 | 0.00 | 0.01 | 0.01 | 85 | 1020.6 |
| 20260905071802 | 60 | 111 | 0.0 | 2.6 | 0.00 | 0.01 | 0.01 | 84 | 1020.6 |
| 20260905071702 | 60 | 113 | 0.0 | 1.7 | 0.00 | 0.01 | 0.01 | 84 | 1020.5 |
| 20260905071601 | 60 | 113 | 0.0 | 1.7 | 0.00 | 0.01 | 0.01 | 84 | 1020.5 |
| 20260905071501 | 60 | 113 | 0.0 | 1.7 | 0.00 | 0.01 | 0.01 | 84 | 1020.5 |
| 20260905071401 | 60 | 113 | 0.0 | 1.7 | 0.00 | 0.01 | 0.01 | 84 | 1020.4 |
| 20260905071301 | 60 | 113 | 0.0 | 1.7 | 0.00 | 0.01 | 0.01 | 85 | 1020.5 |
| 20260905071201 | 59 | 113 | 0.0 | 1.7 | 0.00 | 0.01 | 0.01 | 85 | 1020.5 |
| 20260905071129 | 59 | 113 | 0.0 | 2.6 | 0.00 | 0.01 | 0.01 | 85 | 1020.5 |
| 20260905071101 | 59 | 113 | 0.0 | 2.6 | 0.00 | 0.01 | 0.01 | 85 | 1020.4 |
| 20260905071002 | 59 | 113 | 0.0 | 2.6 | 0.00 | 0.01 | 0.01 | 84 | 1020.4 |
| 20260905070901 | 59 | 113 | 0.0 | 2.6 | 0.00 | 0.01 | 0.01 | 84 | 1020.4 |
| 20260905070801 | 59 | 113 | 0.0 | 2.6 | 0.01 | 0.01 | 0.01 | 84 | 1020.4 |
| 20260905070701 | 59 | 113 | 0.0 | 2.6 | 0.01 | 0.01 | 0.01 | 85 | 1020.4 |
| 20260905070629 | 59 | 113 | 0.0 | 2.6 | 0.01 | 0.01 | 0.01 | 85 | 1020.4 |
| 20260905070601 | 59 | 113 | 0.0 | 2.6 | 0.01 | 0.01 | 0.01 | 85 | 1020.5 |
| 20260905070501 | 59 | 113 | 0.0 | 2.6 | 0.01 | 0.01 | 0.01 | 84 | 1020.4 |
| 20260905070401 | 59 | 113 | 0.0 | 2.6 | 0.01 | 0.01 | 0.01 | 84 | 1020.5 |
| 20260905070301 | 59 | 113 | 0.0 | 2.6 | 0.01 | 0.01 | 0.01 | 84 | 1020.5 |
| 20260905070201 | 59 | 113 | 0.0 | 2.6 | 0.01 | 0.01 | 0.01 | 86 | 1020.5 |
| 20260905070132 | 59 | 113 | 0.0 | 2.6 | 0.01 | 0.01 | 0.01 | 86 | 1020.5 |
| 20260905070101 | 59 | 113 | 0.0 | 2.6 | 0.01 | 0.01 | 0.01 | 85 | 1020.5 |
| 20260905070001 | 59 | 113 | 0.0 | 2.6 | 0.01 | 0.01 | 0.01 | 85 | 1020.4 |
| 20260905065901 | 59 | 113 | 0.9 | 2.6 | 0.01 | 0.01 | 0.01 | 85 | 1020.4 |
| 20260905065801 | 59 | 113 | 0.9 | 2.6 | 0.01 | 0.01 | 0.01 | 85 | 1020.4 |
| 20260905065701 | 59 | 113 | 0.9 | 2.6 | 0.01 | 0.01 | 0.01 | 85 | 1020.4 |
| 20260905065632 | 59 | 113 | 0.9 | 2.6 | 0.01 | 0.01 | 0.01 | 85 | 1020.4 |
| 20260905065600 | 59 | 113 | 0.9 | 2.6 | 0.01 | 0.01 | 0.01 | 84 | 1020.3 |
| 20260905065500 | 59 | 113 | 0.9 | 2.6 | 0.01 | 0.01 | 0.01 | 85 | 1020.3 |
| 20260905065400 | 59 | 113 | 0.9 | 2.6 | 0.01 | 0.01 | 0.01 | 85 | 1020.3 |
| 20260905065353 | 59 | 116 | 0.9 | 2.6 | 0.01 | 0.01 | 0.01 | 85 | 1020.2 |
| 20260905065345 | 59 | 113 | 0.9 | 2.6 | 0.01 | 0.01 | 0.01 | 85 | 1020.3 |
| 20260905065341 | 59 | 113 | 0.9 | 2.6 | 0.01 | 0.01 | 0.01 | 85 | 1020.2 |
| 20260905065059 | 59 | 121 | 0.9 | 2.6 | 0.01 | 0.01 | 0.01 | 85 | 1020.2 |
| 20260905064959 | 59 | 126 | 0.9 | 2.6 | 0.01 | 0.01 | 0.01 | 84 | 1020.2 |
| 20260905064859 | 59 | 126 | 0.9 | 2.6 | 0.01 | 0.01 | 0.01 | 85 | 1020.2 |
| 20260905064759 | 59 | 128 | 0.0 | 2.6 | 0.01 | 0.01 | 0.01 | 85 | 1020.3 |
| 20260905064659 | 59 | 128 | 0.0 | 2.6 | 0.01 | 0.01 | 0.01 | 85 | 1020.3 |
| 20260905064629 | 59 | 131 | 0.0 | 1.7 | 0.01 | 0.01 | 0.01 | 84 | 1020.3 |
| 20260905064557 | 59 | 132 | 0.0 | 1.7 | 0.01 | 0.01 | 0.01 | 84 | 1020.3 |
| 20260905064455 | 59 | 132 | 0.0 | 1.7 | 0.01 | 0.01 | 0.01 | 84 | 1020.3 |
| 20260905064355 | 59 | 132 | 0.0 | 0.9 | 0.01 | 0.01 | 0.01 | 84 | 1020.3 |
| 20260905064256 | 59 | 132 | 0.0 | 0.0 | 0.01 | 0.01 | 0.01 | 84 | 1020.3 |
| 20260905064129 | 59 | 132 | 0.0 | 0.0 | 0.01 | 0.01 | 0.01 | 84 | 1020.3 |
| 20260905064051 | 59 | 132 | 0.0 | 0.0 | 0.01 | 0.01 | 0.01 | 84 | 1020.2 |
| 20260905063951 | 59 | 132 | 0.0 | 0.0 | 0.01 | 0.01 | 0.01 | 84 | 1020.3 |
| 20260905063849 | 59 | 132 | 0.0 | 0.0 | 0.01 | 0.01 | 0.01 | 84 | 1020.3 |
| 20260905063749 | 59 | 132 | 0.0 | 0.0 | 0.01 | 0.01 | 0.01 | 84 | 1020.3 |
| 20260905063628 | 59 | 132 | 0.0 | 0.0 | 0.01 | 0.01 | 0.01 | 84 | 1020.3 |
| 20260905063545 | 59 | 132 | 0.0 | 0.0 | 0.01 | 0.01 | 0.01 | 84 | 1020.4 |
| 20260905063445 | 59 | 132 | 0.0 | 0.0 | 0.01 | 0.01 | 0.01 | 84 | 1020.3 |
| 20260905063343 | 59 | 132 | 0.0 | 0.0 | 0.01 | 0.01 | 0.01 | 84 | 1020.4 |
| 20260905063243 | 59 | 132 | 0.0 | 0.0 | 0.01 | 0.01 | 0.01 | 84 | 1020.4 |
| 20260905063128 | 59 | 132 | 0.0 | 1.7 | 0.01 | 0.01 | 0.01 | 83 | 1020.4 |
| 20260905063039 | 59 | 132 | 0.0 | 1.7 | 0.01 | 0.01 | 0.01 | 84 | 1020.4 |
| 20260905062940 | 59 | 132 | 0.0 | 1.7 | 0.01 | 0.01 | 0.01 | 83 | 1020.4 |
| 20260905062838 | 59 | 132 | 0.0 | 1.7 | 0.01 | 0.01 | 0.01 | 84 | 1020.4 |
| 20260905062735 | 59 | 132 | 0.0 | 1.7 | 0.01 | 0.01 | 0.01 | 84 | 1020.4 |
| 20260905062628 | 60 | 132 | 0.0 | 1.7 | 0.01 | 0.01 | 0.01 | 84 | 1020.4 |
| 20260905062533 | 59 | 132 | 0.0 | 1.7 | 0.01 | 0.01 | 0.01 | 84 | 1020.4 |
| 20260905062433 | 60 | 132 | 0.0 | 1.7 | 0.01 | 0.01 | 0.01 | 84 | 1020.3 |
| 20260905062349 | 60 | 132 | 0.0 | 1.7 | 0.01 | 0.01 | 0.01 | 83 | 1020.2 |
| 20260905062345 | 60 | 132 | 0.0 | 1.7 | 0.01 | 0.01 | 0.01 | 83 | 1020.1 |
| 20260905062340 | 60 | 132 | 0.0 | 0.9 | 0.01 | 0.01 | 0.01 | 83 | 1020.1 |
| 20260905062029 | 60 | 132 | 0.0 | 0.9 | 0.01 | 0.01 | 0.01 | 83 | 1020.0 |
| 20260905061929 | 60 | 132 | 0.0 | 0.9 | 0.01 | 0.01 | 0.01 | 83 | 1020.1 |
| 20260905061829 | 60 | 132 | 0.0 | 1.7 | 0.01 | 0.01 | 0.01 | 83 | 1020.1 |
| 20260905061729 | 60 | 132 | 0.0 | 2.6 | 0.01 | 0.01 | 0.01 | 83 | 1020.0 |
| 20260905061629 | 60 | 132 | 0.0 | 2.6 | 0.01 | 0.01 | 0.01 | 83 | 1020.0 |
| 20260905061529 | 60 | 132 | 0.9 | 2.6 | 0.01 | 0.01 | 0.01 | 83 | 1020.0 |
| 20260905061429 | 60 | 132 | 0.9 | 2.6 | 0.01 | 0.01 | 0.01 | 83 | 1020.0 |
| 20260905061329 | 60 | 132 | 0.9 | 2.6 | 0.01 | 0.01 | 0.01 | 83 | 1020.0 |
| 20260905061229 | 60 | 132 | 0.9 | 2.6 | 0.01 | 0.01 | 0.01 | 83 | 1020.0 |
| 20260905061129 | 60 | 132 | 0.9 | 2.6 | 0.01 | 0.01 | 0.01 | 82 | 1020.0 |
| 20260905061029 | 60 | 132 | 0.9 | 2.6 | 0.01 | 0.01 | 0.01 | 81 | 1019.9 |
| 20260905060929 | 60 | 132 | 0.9 | 2.6 | 0.01 | 0.01 | 0.01 | 82 | 1019.9 |
| 20260905060828 | 60 | 132 | 0.9 | 2.6 | 0.01 | 0.01 | 0.00 | 82 | 1019.9 |
| 20260905060729 | 60 | 132 | 0.9 | 3.5 | 0.00 | 0.00 | 0.00 | 82 | 1019.8 |
| 20260905060629 | 60 | 136 | 0.9 | 3.5 | 0.00 | 0.00 | 0.00 | 81 | 1019.8 |
| 20260905060528 | 60 | 136 | 0.9 | 3.5 | 0.00 | 0.00 | 0.00 | 81 | 1019.8 |
| 20260905060428 | 60 | 141 | 0.9 | 3.5 | 0.00 | 0.00 | 0.00 | 81 | 1019.8 |
| 20260905060328 | 60 | 141 | 0.9 | 3.5 | 0.00 | 0.00 | 0.00 | 81 | 1019.8 |
| 20260905060228 | 60 | 141 | 0.9 | 3.5 | 0.00 | 0.00 | 0.00 | 81 | 1019.7 |
| 20260905060129 | 60 | 141 | 0.9 | 3.5 | 0.00 | 0.00 | 0.00 | 80 | 1019.7 |
| 20260905060028 | 60 | 141 | 1.7 | 3.5 | 0.00 | 0.00 | 0.00 | 79 | 1019.5 |
| 20260905055928 | 60 | 141 | 1.7 | 6.1 | 0.00 | 0.00 | 0.00 | 79 | 1019.4 |
| 20260905055829 | 60 | 141 | 1.7 | 6.1 | 0.00 | 0.00 | 0.00 | 79 | 1019.4 |
| 20260905055729 | 60 | 140 | 1.7 | 6.1 | 0.00 | 0.00 | 0.00 | 79 | 1019.4 |
| 20260905055629 | 60 | 133 | 1.7 | 6.1 | 0.00 | 0.00 | 0.00 | 79 | 1019.4 |
| 20260905055528 | 60 | 132 | 1.7 | 6.1 | 0.00 | 0.00 | 0.00 | 79 | 1019.3 |
| 20260905055428 | 60 | 132 | 1.7 | 6.1 | 0.00 | 0.00 | 0.00 | 79 | 1019.3 |
| 20260905055329 | 60 | 132 | 1.7 | 6.1 | 0.00 | 0.00 | 0.00 | 79 | 1019.2 |
| 20260905055230 | 60 | 132 | 1.7 | 6.1 | 0.00 | 0.00 | 0.00 | 79 | 1019.2 |
| 20260905055129 | 60 | 134 | 1.7 | 6.1 | 0.00 | 0.00 | 0.00 | 79 | 1019.3 |
| 20260905055030 | 60 | 133 | 1.7 | 6.1 | 0.00 | 0.00 | 0.00 | 79 | 1019.4 |
| 20260905054930 | 60 | 140 | 1.7 | 6.1 | 0.00 | 0.00 | 0.00 | 78 | 1019.3 |
| 20260905054829 | 60 | 134 | 1.7 | 6.1 | 0.00 | 0.00 | 0.00 | 78 | 1019.3 |
| 20260905054729 | 60 | 127 | 1.7 | 4.3 | 0.00 | 0.00 | 0.00 | 78 | 1019.1 |
| 20260905054629 | 60 | 110 | 1.7 | 4.3 | 0.00 | 0.00 | 0.00 | 78 | 1019.0 |
| 20260905054529 | 60 | 109 | 1.7 | 4.3 | 0.00 | 0.00 | 0.00 | 78 | 1018.9 |
| 20260905054429 | 60 | 99 | 1.7 | 4.3 | 0.00 | 0.00 | 0.00 | 78 | 1019.0 |
| 20260905054329 | 61 | 101 | 1.7 | 4.3 | 0.00 | 0.00 | 0.00 | 78 | 1019.0 |
| 20260905054229 | 61 | 101 | 1.7 | 4.3 | 0.00 | 0.00 | 0.00 | 78 | 1019.0 |
| 20260905054129 | 61 | 132 | 1.7 | 4.3 | 0.00 | 0.00 | 0.00 | 78 | 1019.1 |
| 20260905054029 | 61 | 123 | 1.7 | 3.5 | 0.00 | 0.00 | 0.00 | 78 | 1019.2 |
| 20260905053929 | 61 | 103 | 1.7 | 2.6 | 0.00 | 0.00 | 0.00 | 77 | 1019.3 |
| 20260905053849 | 61 | 97 | 1.7 | 2.6 | 0.00 | 0.00 | 0.00 | 77 | 1019.5 |
| 20260905053845 | 61 | 96 | 1.7 | 2.6 | 0.00 | 0.00 | 0.00 | 77 | 1019.5 |
| 20260905053841 | 61 | 95 | 1.7 | 2.6 | 0.00 | 0.00 | 0.00 | 77 | 1019.5 |
| 20260905053532 | 61 | 94 | 0.9 | 2.6 | 0.00 | 0.00 | 0.00 | 76 | 1019.5 |
| 20260905053428 | 61 | 92 | 1.7 | 2.6 | 0.00 | 0.00 | 0.00 | 76 | 1019.7 |
| 20260905053329 | 61 | 90 | 1.7 | 3.5 | 0.00 | 0.00 | 0.00 | 76 | 1019.8 |
| 20260905053229 | 61 | 100 | 0.9 | 3.5 | 0.00 | 0.00 | 0.00 | 76 | 1019.9 |
| 20260905053129 | 61 | 100 | 0.9 | 3.5 | 0.00 | 0.00 | 0.00 | 76 | 1019.9 |
| 20260905053031 | 61 | 101 | 0.9 | 3.5 | 0.00 | 0.00 | 0.00 | 75 | 1019.8 |
| 20260905052929 | 61 | 101 | 0.9 | 3.5 | 0.00 | 0.00 | 0.00 | 75 | 1019.7 |
| 20260905052847 | 61 | 101 | 0.9 | 3.5 | 0.00 | 0.00 | 0.00 | 75 | 1019.7 |
| 20260905052843 | 61 | 100 | 0.9 | 3.5 | 0.00 | 0.00 | 0.00 | 75 | 1019.7 |
| 20260905052839 | 61 | 98 | 0.9 | 3.5 | 0.00 | 0.00 | 0.00 | 75 | 1019.7 |
| 20260905052529 | 61 | 98 | 0.9 | 3.5 | 0.00 | 0.00 | 0.00 | 75 | 1019.7 |
| 20260905052429 | 61 | 97 | 0.9 | 3.5 | 0.00 | 0.00 | 0.00 | 74 | 1019.7 |
| 20260905052329 | 62 | 80 | 0.9 | 2.6 | 0.00 | 0.00 | 0.00 | 74 | 1019.8 |
| 20260905052229 | 62 | 80 | 0.9 | 2.6 | 0.00 | 0.00 | 0.00 | 74 | 1019.8 |
| 20260905052129 | 62 | 80 | 0.9 | 5.2 | 0.00 | 0.00 | 0.00 | 74 | 1019.8 |
| 20260905052029 | 62 | 80 | 0.9 | 5.2 | 0.00 | 0.00 | 0.00 | 74 | 1019.8 |
| 20260905051928 | 62 | 80 | 0.9 | 5.2 | 0.00 | 0.00 | 0.00 | 75 | 1019.8 |
| 20260905051829 | 62 | 80 | 0.9 | 5.2 | 0.00 | 0.00 | 0.00 | 75 | 1019.8 |
| 20260905051729 | 62 | 80 | 0.9 | 5.2 | 0.00 | 0.00 | 0.00 | 75 | 1019.8 |
| 20260905051629 | 62 | 80 | 0.9 | 5.2 | 0.00 | 0.00 | 0.00 | 74 | 1019.5 |
| 20260905051529 | 62 | 80 | 0.9 | 5.2 | 0.00 | 0.00 | 0.00 | 74 | 1019.4 |
| 20260905051429 | 62 | 79 | 0.9 | 5.2 | 0.00 | 0.00 | 0.00 | 74 | 1019.5 |
| 20260905051348 | 62 | 82 | 0.9 | 5.2 | 0.00 | 0.00 | 0.00 | 73 | 1019.5 |
| 20260905051344 | 62 | 101 | 0.9 | 5.2 | 0.00 | 0.00 | 0.00 | 73 | 1019.7 |
| 20260905051340 | 62 | 103 | 1.7 | 5.2 | 0.00 | 0.00 | 0.00 | 73 | 1019.7 |
| 20260905051029 | 62 | 103 | 1.7 | 5.2 | 0.00 | 0.00 | 0.00 | 73 | 1019.7 |
| 20260905050929 | 62 | 103 | 1.7 | 5.2 | 0.00 | 0.00 | 0.00 | 73 | 1019.5 |
| 20260905050829 | 62 | 103 | 1.7 | 5.2 | 0.00 | 0.00 | 0.00 | 72 | 1019.4 |
| 20260905050729 | 62 | 103 | 1.7 | 5.2 | 0.00 | 0.00 | 0.00 | 71 | 1019.4 |
| 20260905050629 | 62 | 103 | 1.7 | 5.2 | 0.00 | 0.00 | 0.00 | 71 | 1019.3 |
| 20260905050529 | 62 | 103 | 1.7 | 5.2 | 0.00 | 0.00 | 0.00 | 71 | 1019.3 |
| 20260905050428 | 62 | 131 | 1.7 | 5.2 | 0.00 | 0.00 | 0.00 | 70 | 1019.3 |
| 20260905050328 | 62 | 121 | 1.7 | 5.2 | 0.00 | 0.00 | 0.00 | 70 | 1019.3 |
| 20260905050228 | 62 | 99 | 1.7 | 5.2 | 0.00 | 0.00 | 0.00 | 71 | 1019.3 |
| 20260905050129 | 62 | 57 | 1.7 | 3.5 | 0.00 | 0.00 | 0.00 | 71 | 1019.4 |
| 20260905050029 | 62 | 345 | 1.7 | 3.5 | 0.00 | 0.00 | 0.00 | 71 | 1019.4 |
| 20260905045929 | 63 | 337 | 1.7 | 3.5 | 0.00 | 0.00 | 0.00 | 70 | 1019.5 |
| 20260905045849 | 63 | 335 | 1.7 | 3.5 | 0.00 | 0.00 | 0.00 | 70 | 1019.5 |
| 20260905045845 | 63 | 334 | 0.9 | 3.5 | 0.00 | 0.00 | 0.00 | 70 | 1019.7 |
| 20260905045841 | 63 | 355 | 0.9 | 2.6 | 0.00 | 0.00 | 0.00 | 70 | 1019.8 |
| 20260905045530 | 63 | 40 | 0.9 | 2.6 | 0.00 | 0.00 | 0.00 | 70 | 1019.8 |
| 20260905045429 | 63 | 40 | 0.9 | 4.3 | 0.00 | 0.00 | 0.00 | 70 | 1019.8 |
| 20260905045348 | 63 | 40 | 1.7 | 5.2 | 0.00 | 0.00 | 0.00 | 70 | 1019.8 |
| 20260905045344 | 63 | 40 | 1.7 | 5.2 | 0.00 | 0.00 | 0.00 | 70 | 1019.9 |
| 20260905045340 | 63 | 40 | 1.7 | 5.2 | 0.00 | 0.00 | 0.00 | 70 | 1019.8 |
| 20260905045029 | 63 | 40 | 1.7 | 5.2 | 0.00 | 0.00 | 0.00 | 69 | 1019.7 |
| 20260905044929 | 63 | 40 | 1.7 | 5.2 | 0.00 | 0.00 | 0.00 | 69 | 1019.7 |
| 20260905044829 | 63 | 40 | 1.7 | 5.2 | 0.00 | 0.00 | 0.00 | 68 | 1019.7 |
| 20260905044729 | 63 | 40 | 2.6 | 7.0 | 0.00 | 0.00 | 0.00 | 69 | 1019.7 |
| 20260905044628 | 63 | 40 | 2.6 | 7.0 | 0.00 | 0.00 | 0.00 | 69 | 1019.7 |
| 20260905044529 | 63 | 73 | 2.6 | 7.0 | 0.00 | 0.00 | 0.00 | 68 | 1019.7 |
| 20260905044429 | 63 | 50 | 2.6 | 7.0 | 0.00 | 0.00 | 0.00 | 69 | 1019.8 |
| 20260905044348 | 63 | 5 | 1.7 | 7.0 | 0.00 | 0.00 | 0.00 | 69 | 1019.8 |
| 20260905044344 | 63 | 346 | 1.7 | 7.0 | 0.00 | 0.00 | 0.00 | 68 | 1019.7 |
| 20260905044340 | 63 | 347 | 1.7 | 7.0 | 0.00 | 0.00 | 0.00 | 68 | 1019.7 |
| 20260905044029 | 63 | 345 | 1.7 | 7.0 | 0.00 | 0.00 | 0.00 | 69 | 1019.7 |
| 20260905043929 | 63 | 31 | 2.6 | 7.0 | 0.00 | 0.00 | 0.00 | 68 | 1019.4 |
| 20260905043829 | 63 | 329 | 2.6 | 7.0 | 0.00 | 0.00 | 0.00 | 68 | 1019.4 |
| 20260905043729 | 63 | 348 | 1.7 | 6.1 | 0.00 | 0.00 | 0.00 | 68 | 1019.5 |
| 20260905043629 | 63 | 13 | 1.7 | 6.1 | 0.00 | 0.00 | 0.00 | 68 | 1019.4 |
| 20260905043529 | 63 | 338 | 1.7 | 6.1 | 0.00 | 0.00 | 0.00 | 68 | 1019.3 |
| 20260905043429 | 63 | 338 | 2.6 | 8.7 | 0.00 | 0.00 | 0.00 | 68 | 1019.3 |
| 20260905043348 | 63 | 333 | 2.6 | 8.7 | 0.00 | 0.00 | 0.00 | 68 | 1019.3 |
| 20260905043344 | 63 | 333 | 2.6 | 8.7 | 0.00 | 0.00 | 0.00 | 68 | 1019.3 |
| 20260905043340 | 63 | 329 | 2.6 | 8.7 | 0.00 | 0.00 | 0.00 | 68 | 1019.4 |
| 20260905043028 | 64 | 11 | 3.5 | 8.7 | 0.00 | 0.00 | 0.00 | 68 | 1019.4 |
| 20260905042929 | 64 | 18 | 3.5 | 8.7 | 0.00 | 0.00 | 0.00 | 68 | 1019.3 |
| 20260905042829 | 64 | 46 | 3.5 | 8.7 | 0.00 | 0.00 | 0.00 | 67 | 1019.2 |
| 20260905042729 | 64 | 11 | 3.5 | 9.6 | 0.00 | 0.00 | 0.00 | 67 | 1019.2 |
| 20260905042628 | 64 | 11 | 3.5 | 9.6 | 0.00 | 0.00 | 0.00 | 67 | 1019.3 |
| 20260905042529 | 64 | 14 | 3.5 | 9.6 | 0.00 | 0.00 | 0.00 | 67 | 1019.3 |
| 20260905042429 | 64 | 5 | 3.5 | 10.4 | 0.00 | 0.00 | 0.00 | 68 | 1019.3 |
| 20260905042329 | 64 | 42 | 3.5 | 10.4 | 0.00 | 0.00 | 0.00 | 68 | 1019.3 |
| 20260905042229 | 64 | 5 | 3.5 | 10.4 | 0.00 | 0.00 | 0.00 | 68 | 1019.1 |
| 20260905042129 | 64 | 13 | 3.5 | 10.4 | 0.00 | 0.00 | 0.00 | 68 | 1019.1 |
| 20260905042029 | 64 | 339 | 3.5 | 10.4 | 0.00 | 0.00 | 0.00 | 68 | 1019.1 |
| 20260905041930 | 64 | 33 | 3.5 | 10.4 | 0.00 | 0.00 | 0.00 | 69 | 1019.1 |
| 20260905041830 | 64 | 17 | 3.5 | 10.4 | 0.00 | 0.00 | 0.00 | 69 | 1019.2 |
| 20260905041729 | 64 | 0 | 2.6 | 10.4 | 0.00 | 0.00 | 0.00 | 70 | 1019.1 |
| 20260905041629 | 64 | 347 | 2.6 | 10.4 | 0.00 | 0.00 | 0.00 | 70 | 1019.0 |
| 20260905041529 | 64 | 39 | 2.6 | 10.4 | 0.00 | 0.00 | 0.00 | 70 | 1018.9 |
| 20260905041429 | 64 | 5 | 2.6 | 9.6 | 0.00 | 0.00 | 0.00 | 70 | 1018.9 |
| 20260905041329 | 64 | 13 | 2.6 | 5.2 | 0.00 | 0.00 | 0.00 | 71 | 1018.9 |
| 20260905041229 | 64 | 295 | 2.6 | 5.2 | 0.00 | 0.00 | 0.00 | 71 | 1018.9 |
| 20260905041128 | 64 | 56 | 2.6 | 5.2 | 0.00 | 0.00 | 0.00 | 71 | 1018.9 |
| 20260905041029 | 64 | 56 | 2.6 | 5.2 | 0.00 | 0.00 | 0.00 | 71 | 1018.9 |
| 20260905040928 | 65 | 51 | 2.6 | 5.2 | 0.00 | 0.00 | 0.00 | 72 | 1018.8 |
| 20260905040847 | 65 | 25 | 2.6 | 5.2 | 0.00 | 0.00 | 0.00 | 72 | 1018.8 |
| 20260905040842 | 65 | 319 | 2.6 | 5.2 | 0.00 | 0.00 | 0.00 | 72 | 1018.8 |
| 20260905040839 | 65 | 337 | 2.6 | 5.2 | 0.00 | 0.00 | 0.00 | 72 | 1018.8 |
| 20260905040528 | 65 | 307 | 2.6 | 5.2 | 0.00 | 0.00 | 0.00 | 72 | 1018.8 |
| 20260905040429 | 65 | 334 | 1.7 | 5.2 | 0.00 | 0.00 | 0.00 | 72 | 1018.7 |
| 20260905040329 | 65 | 315 | 1.7 | 5.2 | 0.00 | 0.00 | 0.00 | 72 | 1018.7 |
| 20260905040229 | 65 | 313 | 1.7 | 5.2 | 0.00 | 0.00 | 0.00 | 72 | 1018.7 |
| 20260905040129 | 65 | 318 | 1.7 | 5.2 | 0.00 | 0.00 | 0.00 | 72 | 1018.6 |
| 20260905040122 | 65 | 315 | 1.7 | 4.3 | 0.00 | 0.00 | 0.00 | 72 | 1018.4 |
| 20260905040116 | 65 | 40 | 1.7 | 5.2 | 0.00 | 0.00 | 0.00 | 72 | 1018.6 |
| 20260905040108 | 65 | 40 | 1.7 | 5.2 | 0.00 | 0.00 | 0.00 | 72 | 1018.5 |
| 20260905035848 | 65 | 40 | 1.7 | 5.2 | 0.00 | 0.00 | 0.00 | 72 | 1018.5 |
| 20260905035844 | 65 | 30 | 1.7 | 5.2 | 0.00 | 0.00 | 0.00 | 72 | 1018.5 |
| 20260905035840 | 65 | 315 | 1.7 | 4.3 | 0.00 | 0.00 | 0.00 | 72 | 1018.4 |
| 20260905035529 | 65 | 41 | 1.7 | 4.3 | 0.00 | 0.00 | 0.00 | 72 | 1018.5 |
| 20260905035432 | 65 | 41 | 1.7 | 4.3 | 0.00 | 0.00 | 0.00 | 72 | 1018.4 |
| 20260905035347 | 65 | 49 | 1.7 | 4.3 | 0.00 | 0.00 | 0.00 | 72 | 1018.4 |
| 20260905035343 | 65 | 95 | 1.7 | 4.3 | 0.00 | 0.00 | 0.00 | 72 | 1018.3 |
| 20260905035339 | 65 | 95 | 1.7 | 4.3 | 0.00 | 0.00 | 0.00 | 72 | 1018.3 |
| 20260905035029 | 65 | 90 | 1.7 | 4.3 | 0.00 | 0.00 | 0.00 | 72 | 1018.3 |
| 20260905034929 | 65 | 90 | 1.7 | 4.3 | 0.00 | 0.00 | 0.00 | 72 | 1018.3 |
| 20260905034829 | 65 | 91 | 2.6 | 4.3 | 0.00 | 0.00 | 0.00 | 72 | 1018.3 |
| 20260905034729 | 65 | 5 | 2.6 | 7.0 | 0.00 | 0.00 | 0.00 | 72 | 1018.3 |
| 20260905034629 | 65 | 342 | 2.6 | 7.8 | 0.00 | 0.00 | 0.00 | 72 | 1018.2 |
| 20260905034529 | 65 | 30 | 2.6 | 7.8 | 0.00 | 0.00 | 0.00 | 72 | 1018.3 |
| 20260905034429 | 65 | 45 | 2.6 | 7.8 | 0.00 | 0.00 | 0.00 | 72 | 1018.3 |
| 20260905034329 | 65 | 340 | 2.6 | 7.8 | 0.00 | 0.00 | 0.00 | 72 | 1018.2 |
| 20260905034229 | 65 | 340 | 2.6 | 7.8 | 0.00 | 0.00 | 0.00 | 72 | 1018.2 |
| 20260905034128 | 65 | 30 | 3.5 | 7.8 | 0.00 | 0.00 | 0.00 | 72 | 1018.2 |
| 20260905034029 | 65 | 28 | 3.5 | 7.8 | 0.00 | 0.00 | 0.00 | 72 | 1018.1 |
| 20260905033929 | 65 | 34 | 3.5 | 7.8 | 0.00 | 0.00 | 0.00 | 72 | 1018.1 |
| 20260905033828 | 65 | 34 | 3.5 | 7.8 | 0.00 | 0.00 | 0.00 | 72 | 1018.1 |
| 20260905033728 | 65 | 0 | 2.6 | 7.8 | 0.00 | 0.00 | 0.00 | 72 | 1018.2 |
| 20260905033628 | 65 | 18 | 2.6 | 7.8 | 0.00 | 0.00 | 0.00 | 72 | 1018.1 |
| 20260905033528 | 65 | 15 | 2.6 | 7.8 | 0.00 | 0.00 | 0.00 | 72 | 1018.1 |
| 20260905033429 | 65 | 330 | 2.6 | 9.6 | 0.00 | 0.00 | 0.00 | 72 | 1018.1 |
| 20260905033347 | 65 | 55 | 3.5 | 9.6 | 0.00 | 0.00 | 0.00 | 72 | 1018.1 |
| 20260905033343 | 65 | 55 | 3.5 | 9.6 | 0.00 | 0.00 | 0.00 | 72 | 1018.1 |
| 20260905033339 | 65 | 0 | 3.5 | 9.6 | 0.00 | 0.00 | 0.00 | 71 | 1018.1 |
| 20260905033029 | 65 | 24 | 3.5 | 9.6 | 0.00 | 0.00 | 0.00 | 72 | 1018.0 |
| 20260905032929 | 66 | 345 | 3.5 | 9.6 | 0.00 | 0.00 | 0.00 | 72 | 1018.1 |
| 20260905032829 | 66 | 328 | 4.3 | 9.6 | 0.00 | 0.00 | 0.00 | 72 | 1018.1 |
| 20260905032729 | 66 | 0 | 4.3 | 9.6 | 0.00 | 0.00 | 0.00 | 72 | 1018.1 |
| 20260905032628 | 66 | 39 | 4.3 | 9.6 | 0.00 | 0.00 | 0.00 | 72 | 1018.0 |
| 20260905032529 | 66 | 46 | 5.2 | 9.6 | 0.00 | 0.00 | 0.00 | 72 | 1018.0 |
| 20260905032429 | 66 | 24 | 5.2 | 11.3 | 0.00 | 0.00 | 0.00 | 72 | 1018.0 |
| 20260905032328 | 66 | 5 | 5.2 | 11.3 | 0.00 | 0.00 | 0.00 | 72 | 1017.9 |
| 20260905032229 | 66 | 5 | 5.2 | 11.3 | 0.00 | 0.00 | 0.00 | 72 | 1017.9 |
| 20260905032129 | 66 | 12 | 5.2 | 11.3 | 0.00 | 0.00 | 0.00 | 72 | 1017.9 |
| 20260905032028 | 66 | 9 | 5.2 | 11.3 | 0.00 | 0.00 | 0.00 | 72 | 1018.0 |
| 20260905031923 | 66 | 5 | 4.3 | 11.3 | 0.00 | 0.00 | 0.00 | 72 | 1017.9 |
| 20260905031823 | 66 | 5 | 4.3 | 11.3 | 0.00 | 0.00 | 0.00 | 72 | 1017.9 |
| 20260905031723 | 66 | 342 | 4.3 | 11.3 | 0.00 | 0.00 | 0.00 | 72 | 1017.8 |
| 20260905031629 | 66 | 5 | 4.3 | 11.3 | 0.00 | 0.00 | 0.00 | 72 | 1017.8 |
| 20260905031623 | 66 | 347 | 4.3 | 11.3 | 0.00 | 0.00 | 0.00 | 72 | 1017.8 |
| 20260905031523 | 66 | 44 | 3.5 | 11.3 | 0.00 | 0.00 | 0.00 | 72 | 1017.6 |
| 20260905031417 | 66 | 350 | 3.5 | 10.4 | 0.00 | 0.00 | 0.00 | 72 | 1017.5 |
| 20260905031317 | 67 | 27 | 3.5 | 10.4 | 0.00 | 0.00 | 0.00 | 72 | 1017.4 |
| 20260905031216 | 67 | 83 | 3.5 | 10.4 | 0.00 | 0.00 | 0.00 | 72 | 1017.3 |
| 20260905031129 | 67 | 20 | 3.5 | 10.4 | 0.00 | 0.00 | 0.00 | 72 | 1017.3 |
| 20260905031117 | 67 | 31 | 3.5 | 10.4 | 0.00 | 0.00 | 0.00 | 72 | 1017.2 |
| 20260905031017 | 67 | 61 | 3.5 | 10.4 | 0.00 | 0.00 | 0.00 | 72 | 1017.2 |
| 20260905030911 | 67 | 55 | 3.5 | 10.4 | 0.00 | 0.00 | 0.00 | 73 | 1017.1 |
| 20260905030811 | 67 | 88 | 3.5 | 10.4 | 0.00 | 0.00 | 0.00 | 73 | 1017.1 |
| 20260905030711 | 67 | 94 | 3.5 | 10.4 | 0.00 | 0.00 | 0.00 | 73 | 1017.2 |
| 20260905030629 | 67 | 49 | 3.5 | 10.4 | 0.00 | 0.00 | 0.00 | 73 | 1017.2 |
| 20260905030611 | 67 | 65 | 4.3 | 10.4 | 0.00 | 0.00 | 0.00 | 73 | 1017.1 |
| 20260905030511 | 67 | 37 | 4.3 | 10.4 | 0.00 | 0.00 | 0.00 | 73 | 1017.1 |
| 20260905030404 | 67 | 65 | 4.3 | 10.4 | 0.00 | 0.00 | 0.00 | 73 | 1017.1 |
| 20260905030305 | 67 | 14 | 3.5 | 9.6 | 0.00 | 0.00 | 0.00 | 73 | 1017.1 |
| 20260905030205 | 67 | 58 | 3.5 | 9.6 | 0.00 | 0.00 | 0.00 | 73 | 1017.1 |
| 20260905030129 | 67 | 61 | 3.5 | 9.6 | 0.00 | 0.00 | 0.00 | 73 | 1017.1 |
| 20260905030105 | 67 | 53 | 3.5 | 9.6 | 0.00 | 0.00 | 0.00 | 73 | 1017.0 |
| 20260905030004 | 67 | 41 | 3.5 | 9.6 | 0.00 | 0.00 | 0.00 | 73 | 1017.0 |
| 20260905025903 | 67 | 350 | 3.5 | 9.6 | 0.00 | 0.00 | 0.00 | 73 | 1017.1 |
| 20260905025802 | 67 | 49 | 2.6 | 9.6 | 0.00 | 0.00 | 0.00 | 73 | 1017.1 |
| 20260905025701 | 67 | 19 | 2.6 | 9.6 | 0.00 | 0.00 | 0.00 | 73 | 1017.1 |
| 20260905025629 | 67 | 49 | 2.6 | 9.6 | 0.00 | 0.00 | 0.00 | 73 | 1017.1 |
| 20260905025617 | 67 | 304 | 1.7 | 3.5 | 0.00 | 0.00 | 0.00 | 73 | 1016.9 |
| 20260905025612 | 67 | 83 | 1.7 | 9.6 | 0.00 | 0.00 | 0.00 | 73 | 1017.1 |
| 20260905025609 | 67 | 29 | 1.7 | 9.6 | 0.00 | 0.00 | 0.00 | 73 | 1017.0 |
| 20260905025604 | 67 | 306 | 1.7 | 3.5 | 0.00 | 0.00 | 0.00 | 73 | 1017.0 |
| 20260905025345 | 67 | 306 | 1.7 | 3.5 | 0.00 | 0.00 | 0.00 | 73 | 1016.9 |
| 20260905025341 | 67 | 304 | 1.7 | 3.5 | 0.00 | 0.00 | 0.00 | 73 | 1016.9 |
| 20260905025101 | 67 | 304 | 1.7 | 3.5 | 0.00 | 0.00 | 0.00 | 73 | 1016.9 |
| 20260905025001 | 67 | 305 | 1.7 | 3.5 | 0.00 | 0.00 | 0.00 | 73 | 1016.9 |
| 20260905024901 | 67 | 305 | 1.7 | 2.6 | 0.00 | 0.00 | 0.00 | 72 | 1016.9 |
| 20260905024856 | 67 | 305 | 1.7 | 2.6 | 0.00 | 0.00 | 0.00 | 72 | 1016.8 |
| 20260905024844 | 67 | 305 | 1.7 | 2.6 | 0.00 | 0.00 | 0.00 | 72 | 1016.9 |
| 20260905024840 | 67 | 305 | 1.7 | 2.6 | 0.00 | 0.00 | 0.00 | 72 | 1016.8 |
| 20260905024601 | 67 | 305 | 1.7 | 2.6 | 0.00 | 0.00 | 0.00 | 72 | 1016.8 |
| 20260905024501 | 67 | 305 | 1.7 | 2.6 | 0.00 | 0.00 | 0.00 | 72 | 1016.9 |
| 20260905024401 | 67 | 305 | 0.9 | 2.6 | 0.00 | 0.00 | 0.00 | 72 | 1016.9 |
| 20260905024301 | 67 | 305 | 0.9 | 2.6 | 0.00 | 0.00 | 0.00 | 72 | 1016.9 |
| 20260905024201 | 67 | 305 | 0.9 | 2.6 | 0.00 | 0.00 | 0.00 | 72 | 1017.0 |
| 20260905024128 | 67 | 305 | 0.9 | 2.6 | 0.00 | 0.00 | 0.00 | 72 | 1017.0 |
| 20260905024101 | 67 | 305 | 0.9 | 2.6 | 0.00 | 0.00 | 0.00 | 72 | 1016.9 |
| 20260905024001 | 67 | 305 | 0.9 | 3.5 | 0.00 | 0.00 | 0.00 | 72 | 1016.9 |
| 20260905023901 | 67 | 305 | 0.9 | 3.5 | 0.00 | 0.00 | 0.00 | 72 | 1016.8 |
| 20260905023801 | 67 | 305 | 1.7 | 3.5 | 0.00 | 0.00 | 0.00 | 71 | 1016.7 |
| 20260905023701 | 67 | 305 | 1.7 | 3.5 | 0.00 | 0.00 | 0.00 | 71 | 1016.7 |
| 20260905023601 | 67 | 305 | 1.7 | 3.5 | 0.00 | 0.00 | 0.00 | 71 | 1016.7 |
| 20260905023500 | 67 | 305 | 1.7 | 3.5 | 0.00 | 0.00 | 0.00 | 71 | 1016.7 |
| 20260905023400 | 67 | 305 | 1.7 | 3.5 | 0.00 | 0.00 | 0.00 | 71 | 1016.7 |
| 20260905023301 | 67 | 305 | 1.7 | 3.5 | 0.00 | 0.00 | 0.00 | 71 | 1016.7 |
| 20260905023201 | 67 | 311 | 1.7 | 3.5 | 0.00 | 0.00 | 0.00 | 71 | 1016.7 |
| 20260905023129 | 67 | 312 | 1.7 | 3.5 | 0.00 | 0.00 | 0.00 | 71 | 1016.7 |
| 20260905023100 | 67 | 313 | 1.7 | 3.5 | 0.00 | 0.00 | 0.00 | 71 | 1016.6 |
| 20260905023000 | 67 | 322 | 1.7 | 2.6 | 0.00 | 0.00 | 0.00 | 71 | 1016.6 |
| 20260905022901 | 67 | 322 | 1.7 | 2.6 | 0.00 | 0.00 | 0.00 | 71 | 1016.6 |
| 20260905022852 | 67 | 322 | 1.7 | 2.6 | 0.00 | 0.00 | 0.00 | 71 | 1016.5 |
| 20260905022844 | 67 | 322 | 1.7 | 2.6 | 0.00 | 0.00 | 0.00 | 71 | 1016.5 |
| 20260905022840 | 67 | 322 | 1.7 | 2.6 | 0.00 | 0.00 | 0.00 | 71 | 1016.5 |
| 20260905022620 | 68 | 330 | 1.7 | 4.3 | 0.00 | 0.00 | 0.00 | 71 | 1016.4 |
| 20260905022614 | 67 | 322 | 0.9 | 2.6 | 0.00 | 0.00 | 0.00 | 71 | 1016.4 |
| 20260905022610 | 67 | 325 | 1.7 | 2.6 | 0.00 | 0.00 | 0.00 | 71 | 1016.5 |
| 20260905022606 | 67 | 325 | 1.7 | 2.6 | 0.00 | 0.00 | 0.00 | 71 | 1016.4 |
| 20260905022345 | 67 | 330 | 1.7 | 3.5 | 0.00 | 0.00 | 0.00 | 71 | 1016.4 |
| 20260905022341 | 68 | 330 | 1.7 | 3.5 | 0.00 | 0.00 | 0.00 | 71 | 1016.4 |
| 20260905022101 | 68 | 330 | 1.7 | 4.3 | 0.00 | 0.00 | 0.00 | 71 | 1016.4 |
| 20260905022001 | 68 | 330 | 1.7 | 4.3 | 0.00 | 0.00 | 0.00 | 71 | 1016.4 |
| 20260905021901 | 68 | 330 | 1.7 | 4.3 | 0.00 | 0.00 | 0.00 | 71 | 1016.3 |
| 20260905021855 | 68 | 330 | 1.7 | 4.3 | 0.00 | 0.00 | 0.00 | 71 | 1016.4 |
| 20260905021844 | 68 | 330 | 1.7 | 4.3 | 0.00 | 0.00 | 0.00 | 71 | 1016.3 |
| 20260905021840 | 67 | 330 | 1.7 | 4.3 | 0.00 | 0.00 | 0.00 | 71 | 1016.4 |
| 20260905021601 | 67 | 330 | 2.6 | 4.3 | 0.00 | 0.00 | 0.00 | 71 | 1016.3 |
| 20260905021501 | 68 | 330 | 2.6 | 4.3 | 0.00 | 0.00 | 0.00 | 71 | 1016.4 |
| 20260905021401 | 67 | 330 | 2.6 | 4.3 | 0.00 | 0.00 | 0.00 | 71 | 1016.4 |
| 20260905021301 | 67 | 330 | 1.7 | 4.3 | 0.00 | 0.00 | 0.00 | 71 | 1016.4 |
| 20260905021201 | 67 | 329 | 1.7 | 4.3 | 0.00 | 0.00 | 0.00 | 71 | 1016.4 |
| 20260905021101 | 67 | 328 | 1.7 | 4.3 | 0.00 | 0.00 | 0.00 | 71 | 1016.4 |
| 20260905021001 | 67 | 321 | 1.7 | 4.3 | 0.00 | 0.00 | 0.00 | 71 | 1016.4 |
| 20260905020901 | 67 | 325 | 1.7 | 4.3 | 0.00 | 0.00 | 0.00 | 71 | 1016.5 |
| 20260905020801 | 67 | 325 | 1.7 | 4.3 | 0.00 | 0.00 | 0.00 | 71 | 1016.5 |
| 20260905020701 | 67 | 320 | 1.7 | 4.3 | 0.00 | 0.00 | 0.00 | 71 | 1016.5 |
| 20260905020628 | 67 | 320 | 1.7 | 4.3 | 0.00 | 0.00 | 0.00 | 71 | 1016.5 |
| 20260905020601 | 67 | 312 | 1.7 | 3.5 | 0.00 | 0.00 | 0.00 | 71 | 1016.5 |
| 20260905020501 | 67 | 312 | 1.7 | 3.5 | 0.00 | 0.00 | 0.00 | 71 | 1016.5 |
| 20260905020400 | 67 | 311 | 1.7 | 3.5 | 0.00 | 0.00 | 0.00 | 71 | 1016.5 |
| 20260905020301 | 67 | 311 | 0.9 | 3.5 | 0.00 | 0.00 | 0.00 | 71 | 1016.5 |
| 20260905020201 | 68 | 311 | 0.9 | 3.5 | 0.00 | 0.00 | 0.00 | 71 | 1016.5 |
| 20260905020100 | 68 | 300 | 0.9 | 2.6 | 0.00 | 0.00 | 0.00 | 71 | 1016.5 |
| 20260905020000 | 68 | 288 | 0.9 | 2.6 | 0.00 | 0.00 | 0.00 | 71 | 1016.5 |
| 20260905015900 | 68 | 289 | 0.9 | 2.6 | 0.00 | 0.00 | 0.00 | 71 | 1016.5 |
| 20260905015800 | 68 | 288 | 0.9 | 1.7 | 0.00 | 0.00 | 0.00 | 71 | 1016.5 |
| 20260905015701 | 68 | 288 | 0.9 | 1.7 | 0.00 | 0.00 | 0.00 | 71 | 1016.4 |
| 20260905015628 | 68 | 288 | 0.9 | 1.7 | 0.00 | 0.00 | 0.00 | 71 | 1016.4 |
| 20260905015620 | 68 | 288 | 0.9 | 1.7 | 0.00 | 0.00 | 0.00 | 70 | 1016.4 |
| 20260905015614 | 68 | 288 | 0.9 | 1.7 | 0.00 | 0.00 | 0.00 | 71 | 1016.5 |
| 20260905015610 | 68 | 288 | 0.9 | 1.7 | 0.00 | 0.00 | 0.00 | 70 | 1016.4 |
| 20260905015606 | 68 | 288 | 0.9 | 1.7 | 0.00 | 0.00 | 0.00 | 70 | 1016.4 |
| 20260905015345 | 68 | 288 | 0.9 | 1.7 | 0.00 | 0.00 | 0.00 | 70 | 1016.3 |
| 20260905015341 | 68 | 288 | 0.9 | 1.7 | 0.00 | 0.00 | 0.00 | 70 | 1016.4 |
| 20260905015101 | 68 | 288 | 0.9 | 1.7 | 0.00 | 0.00 | 0.00 | 70 | 1016.3 |
| 20260905015001 | 68 | 288 | 0.9 | 1.7 | 0.00 | 0.00 | 0.00 | 70 | 1016.3 |
| 20260905014900 | 68 | 288 | 0.9 | 1.7 | 0.00 | 0.00 | 0.00 | 70 | 1016.3 |
| 20260905014800 | 68 | 288 | 0.9 | 1.7 | 0.00 | 0.00 | 0.00 | 70 | 1016.3 |
| 20260905014700 | 68 | 288 | 0.9 | 1.7 | 0.00 | 0.00 | 0.00 | 70 | 1016.4 |
| 20260905014629 | 68 | 288 | 0.9 | 1.7 | 0.00 | 0.00 | 0.00 | 70 | 1016.4 |
| 20260905014600 | 68 | 288 | 0.9 | 1.7 | 0.00 | 0.00 | 0.00 | 70 | 1016.3 |
| 20260905014500 | 68 | 288 | 0.9 | 1.7 | 0.00 | 0.00 | 0.00 | 70 | 1016.3 |
| 20260905014401 | 68 | 288 | 0.9 | 1.7 | 0.00 | 0.00 | 0.00 | 70 | 1016.3 |
| 20260905014300 | 68 | 288 | 0.9 | 1.7 | 0.00 | 0.00 | 0.00 | 70 | 1016.3 |
| 20260905014201 | 68 | 288 | 0.9 | 1.7 | 0.00 | 0.00 | 0.00 | 70 | 1016.2 |
| 20260905014101 | 68 | 288 | 0.9 | 1.7 | 0.00 | 0.00 | 0.00 | 70 | 1016.2 |
| 20260905014001 | 68 | 288 | 0.9 | 1.7 | 0.00 | 0.00 | 0.00 | 70 | 1016.2 |
| 20260905013901 | 68 | 288 | 0.9 | 1.7 | 0.00 | 0.00 | 0.00 | 69 | 1016.2 |
| 20260905013801 | 68 | 288 | 0.9 | 1.7 | 0.00 | 0.00 | 0.00 | 69 | 1016.2 |
| 20260905013701 | 68 | 288 | 0.9 | 1.7 | 0.00 | 0.00 | 0.00 | 70 | 1016.2 |
| 20260905013601 | 68 | 288 | 0.9 | 1.7 | 0.00 | 0.00 | 0.00 | 70 | 1016.2 |
| 20260905013501 | 68 | 288 | 0.9 | 1.7 | 0.00 | 0.00 | 0.00 | 70 | 1016.2 |
| 20260905013356 | 68 | 288 | 0.9 | 1.7 | 0.00 | 0.00 | 0.00 | 70 | 1016.1 |
| 20260905013255 | 68 | 288 | 0.9 | 1.7 | 0.00 | 0.00 | 0.00 | 70 | 1016.1 |
| 20260905013154 | 68 | 288 | 0.9 | 1.7 | 0.00 | 0.00 | 0.00 | 70 | 1016.1 |
| 20260905013129 | 68 | 288 | 0.9 | 1.7 | 0.00 | 0.00 | 0.00 | 69 | 1016.1 |
| 20260905013052 | 68 | 288 | 0.9 | 1.7 | 0.00 | 0.00 | 0.00 | 69 | 1016.1 |
| 20260905012952 | 68 | 288 | 0.9 | 1.7 | 0.00 | 0.00 | 0.00 | 69 | 1016.1 |
| 20260905012849 | 68 | 288 | 0.9 | 1.7 | 0.00 | 0.00 | 0.00 | 69 | 1016.1 |
| 20260905012748 | 68 | 288 | 0.9 | 1.7 | 0.00 | 0.00 | 0.00 | 69 | 1016.1 |
| 20260905012629 | 68 | 288 | 0.9 | 1.7 | 0.00 | 0.00 | 0.00 | 69 | 1016.1 |
| 20260905012548 | 68 | 288 | 0.9 | 1.7 | 0.00 | 0.00 | 0.00 | 69 | 1016.2 |
| 20260905012445 | 68 | 288 | 0.9 | 1.7 | 0.00 | 0.00 | 0.00 | 69 | 1016.1 |
| 20260905012353 | 68 | 288 | 0.9 | 1.7 | 0.00 | 0.00 | 0.00 | 69 | 1016.2 |
| 20260905012344 | 68 | 288 | 0.9 | 1.7 | 0.00 | 0.00 | 0.00 | 69 | 1016.2 |
| 20260905012340 | 68 | 288 | 0.9 | 1.7 | 0.00 | 0.00 | 0.00 | 69 | 1016.1 |
| 20260905012036 | 69 | 288 | 0.9 | 1.7 | 0.00 | 0.00 | 0.00 | 69 | 1016.1 |
| 20260905011937 | 69 | 288 | 0.9 | 1.7 | 0.00 | 0.00 | 0.00 | 69 | 1016.1 |
| 20260905011833 | 69 | 288 | 0.9 | 1.7 | 0.00 | 0.00 | 0.00 | 69 | 1016.2 |
| 20260905011732 | 69 | 288 | 0.9 | 1.7 | 0.00 | 0.00 | 0.00 | 69 | 1016.1 |
| 20260905011629 | 69 | 288 | 0.9 | 1.7 | 0.00 | 0.00 | 0.00 | 69 | 1016.2 |
| 20260905011533 | 69 | 288 | 0.9 | 1.7 | 0.00 | 0.00 | 0.00 | 69 | 1016.2 |
| 20260905011433 | 69 | 288 | 0.9 | 1.7 | 0.00 | 0.00 | 0.00 | 69 | 1016.2 |
| 20260905011333 | 69 | 288 | 0.9 | 1.7 | 0.00 | 0.00 | 0.00 | 69 | 1016.2 |
| 20260905011233 | 69 | 288 | 0.9 | 1.7 | 0.00 | 0.00 | 0.00 | 68 | 1016.2 |
| 20260905011128 | 69 | 288 | 0.9 | 1.7 | 0.00 | 0.00 | 0.00 | 69 | 1016.2 |
| 20260905011032 | 69 | 288 | 0.9 | 1.7 | 0.00 | 0.00 | 0.00 | 69 | 1016.2 |
| 20260905010932 | 69 | 288 | 0.9 | 1.7 | 0.00 | 0.00 | 0.00 | 68 | 1016.3 |
| 20260905010832 | 69 | 288 | 0.9 | 2.6 | 0.00 | 0.00 | 0.00 | 69 | 1016.2 |
| 20260905010733 | 69 | 288 | 0.9 | 2.6 | 0.00 | 0.00 | 0.00 | 68 | 1016.2 |
| 20260905010628 | 69 | 288 | 0.9 | 3.5 | 0.00 | 0.00 | 0.00 | 68 | 1016.2 |
| 20260905010532 | 69 | 288 | 0.9 | 3.5 | 0.00 | 0.00 | 0.00 | 68 | 1016.3 |
| 20260905010433 | 69 | 288 | 1.7 | 3.5 | 0.00 | 0.00 | 0.00 | 68 | 1016.3 |
| 20260905010353 | 69 | 288 | 1.7 | 3.5 | 0.00 | 0.00 | 0.00 | 68 | 1016.3 |
| 20260905010344 | 69 | 288 | 1.7 | 3.5 | 0.00 | 0.00 | 0.00 | 68 | 1016.2 |
| 20260905010340 | 69 | 288 | 1.7 | 3.5 | 0.00 | 0.00 | 0.00 | 68 | 1016.2 |
| 20260905010029 | 69 | 288 | 1.7 | 3.5 | 0.00 | 0.00 | 0.00 | 68 | 1016.2 |
| 20260905005929 | 69 | 288 | 1.7 | 3.5 | 0.00 | 0.00 | 0.00 | 68 | 1016.2 |
| 20260905005828 | 69 | 288 | 1.7 | 3.5 | 0.00 | 0.00 | 0.00 | 68 | 1016.2 |
| 20260905005728 | 69 | 288 | 1.7 | 3.5 | 0.00 | 0.00 | 0.00 | 68 | 1016.2 |
| 20260905005629 | 69 | 286 | 1.7 | 2.6 | 0.00 | 0.00 | 0.00 | 68 | 1016.2 |
| 20260905005528 | 69 | 287 | 1.7 | 2.6 | 0.00 | 0.00 | 0.00 | 68 | 1016.1 |
| 20260905005428 | 69 | 246 | 0.9 | 2.6 | 0.00 | 0.00 | 0.00 | 68 | 1016.1 |
| 20260905005329 | 69 | 246 | 0.9 | 2.6 | 0.00 | 0.00 | 0.00 | 68 | 1016.1 |
| 20260905005228 | 69 | 246 | 0.9 | 2.6 | 0.00 | 0.00 | 0.00 | 69 | 1016.1 |
| 20260905005129 | 69 | 265 | 0.9 | 2.6 | 0.00 | 0.00 | 0.00 | 68 | 1016.1 |
| 20260905005029 | 69 | 265 | 0.9 | 2.6 | 0.00 | 0.00 | 0.00 | 68 | 1016.1 |
| 20260905004929 | 69 | 265 | 0.9 | 2.6 | 0.00 | 0.00 | 0.00 | 68 | 1016.1 |
| 20260905004829 | 69 | 265 | 0.9 | 2.6 | 0.00 | 0.00 | 0.00 | 68 | 1016.1 |
| 20260905004729 | 69 | 266 | 0.0 | 1.7 | 0.00 | 0.00 | 0.00 | 68 | 1016.2 |
| 20260905004629 | 69 | 266 | 0.0 | 1.7 | 0.00 | 0.00 | 0.00 | 68 | 1016.1 |
| 20260905004529 | 69 | 266 | 0.0 | 1.7 | 0.00 | 0.00 | 0.00 | 68 | 1016.1 |
| 20260905004428 | 69 | 266 | 0.0 | 1.7 | 0.00 | 0.00 | 0.00 | 67 | 1016.1 |
| 20260905004329 | 69 | 267 | 0.0 | 0.9 | 0.00 | 0.00 | 0.00 | 67 | 1016.1 |
| 20260905004228 | 69 | 267 | 0.0 | 0.9 | 0.00 | 0.00 | 0.00 | 67 | 1016.1 |
| 20260905004128 | 69 | 267 | 0.0 | 0.9 | 0.00 | 0.00 | 0.00 | 68 | 1016.1 |
| 20260905004028 | 69 | 267 | 0.0 | 1.7 | 0.00 | 0.00 | 0.00 | 67 | 1016.1 |
| 20260905003928 | 69 | 267 | 0.0 | 1.7 | 0.00 | 0.00 | 0.00 | 67 | 1016.1 |
| 20260905003828 | 69 | 267 | 0.9 | 1.7 | 0.00 | 0.00 | 0.00 | 67 | 1016.0 |
| 20260905003728 | 69 | 267 | 0.9 | 1.7 | 0.00 | 0.00 | 0.00 | 67 | 1016.0 |
| 20260905003628 | 70 | 267 | 0.9 | 1.7 | 0.00 | 0.00 | 0.00 | 67 | 1016.0 |
| 20260905003528 | 70 | 267 | 0.9 | 1.7 | 0.00 | 0.00 | 0.00 | 67 | 1016.1 |
| 20260905003428 | 70 | 267 | 0.9 | 1.7 | 0.00 | 0.00 | 0.00 | 67 | 1016.1 |
| 20260905003329 | 70 | 267 | 0.9 | 1.7 | 0.00 | 0.00 | 0.00 | 66 | 1016.1 |
| 20260905003228 | 70 | 267 | 0.9 | 1.7 | 0.00 | 0.00 | 0.00 | 67 | 1016.1 |
| 20260905003129 | 70 | 267 | 0.9 | 1.7 | 0.00 | 0.00 | 0.00 | 66 | 1016.1 |
| 20260905003029 | 70 | 267 | 0.9 | 1.7 | 0.00 | 0.00 | 0.00 | 67 | 1016.1 |
| 20260905002929 | 70 | 267 | 0.9 | 2.6 | 0.00 | 0.00 | 0.00 | 67 | 1016.0 |
| 20260905002829 | 70 | 267 | 0.9 | 3.5 | 0.00 | 0.00 | 0.00 | 66 | 1016.0 |
| 20260905002729 | 70 | 267 | 0.9 | 3.5 | 0.00 | 0.00 | 0.00 | 66 | 1016.0 |
| 20260905002628 | 70 | 267 | 0.9 | 3.5 | 0.00 | 0.00 | 0.00 | 66 | 1016.0 |
| 20260905002528 | 70 | 267 | 1.7 | 3.5 | 0.00 | 0.00 | 0.00 | 66 | 1016.0 |
| 20260905002429 | 70 | 267 | 1.7 | 3.5 | 0.00 | 0.00 | 0.00 | 66 | 1016.0 |
| 20260905002328 | 70 | 267 | 1.7 | 3.5 | 0.00 | 0.00 | 0.00 | 65 | 1016.0 |
| 20260905002229 | 70 | 267 | 1.7 | 5.2 | 0.00 | 0.00 | 0.00 | 65 | 1016.0 |
| 20260905002128 | 70 | 267 | 2.6 | 5.2 | 0.00 | 0.00 | 0.00 | 65 | 1016.0 |
| 20260905002028 | 70 | 267 | 2.6 | 6.1 | 0.00 | 0.00 | 0.00 | 65 | 1016.0 |
| 20260905001928 | 70 | 267 | 2.6 | 6.1 | 0.00 | 0.00 | 0.00 | 65 | 1016.1 |
| 20260905001828 | 71 | 267 | 2.6 | 6.1 | 0.00 | 0.00 | 0.00 | 65 | 1016.0 |
| 20260905001733 | 71 | 291 | 2.6 | 6.1 | 0.00 | 0.00 | 0.00 | 65 | 1016.1 |
| 20260905001629 | 71 | 292 | 2.6 | 6.1 | 0.00 | 0.00 | 0.00 | 65 | 1016.1 |
| 20260905001528 | 71 | 295 | 3.5 | 6.1 | 0.00 | 0.00 | 0.00 | 65 | 1016.1 |
| 20260905001428 | 71 | 295 | 3.5 | 6.1 | 0.00 | 0.00 | 0.00 | 65 | 1016.1 |
| 20260905001328 | 71 | 287 | 3.5 | 6.1 | 0.00 | 0.00 | 0.00 | 64 | 1016.1 |
| 20260905001228 | 71 | 299 | 3.5 | 6.1 | 0.00 | 0.00 | 0.00 | 65 | 1016.1 |
| 20260905001128 | 71 | 293 | 3.5 | 8.7 | 0.00 | 0.00 | 0.00 | 64 | 1016.1 |
| 20260905001028 | 71 | 281 | 3.5 | 8.7 | 0.00 | 0.00 | 0.00 | 64 | 1016.1 |
| 20260905000929 | 71 | 300 | 4.3 | 10.4 | 0.00 | 0.00 | 0.00 | 64 | 1016.1 |
| 20260905000829 | 71 | 325 | 4.3 | 10.4 | 0.00 | 0.00 | 0.00 | 64 | 1016.1 |
| 20260905000729 | 71 | 306 | 4.3 | 10.4 | 0.00 | 0.00 | 0.00 | 63 | 1016.1 |
| 20260905000629 | 71 | 291 | 5.2 | 10.4 | 0.00 | 0.00 | 0.00 | 63 | 1016.2 |
| 20260905000529 | 71 | 304 | 5.2 | 10.4 | 0.00 | 0.00 | 0.00 | 63 | 1016.1 |
| 20260905000429 | 71 | 292 | 5.2 | 10.4 | 0.00 | 0.00 | 0.00 | 63 | 1016.1 |
| 20260905000352 | 71 | 293 | 5.2 | 10.4 | 0.00 | 0.00 | 0.00 | 63 | 1016.1 |
| 20260905000348 | 71 | 323 | 5.2 | 10.4 | 0.00 | 0.00 | 0.00 | 63 | 1016.1 |
| 20260905000340 | 72 | 331 | 5.2 | 10.4 | 0.00 | 0.00 | 0.00 | 63 | 1016.1 |
| 20260905000028 | 72 | 304 | 5.2 | 10.4 | 0.00 | 0.00 | 0.00 | 62 | 1016.1 |
| 20260904235929 | 72 | 344 | 4.3 | 9.6 | 0.00 | 0.00 | 0.00 | 62 | 1016.0 |
| 20260904235829 | 72 | 346 | 4.3 | 8.7 | 0.00 | 0.00 | 0.00 | 62 | 1016.1 |
| 20260904235729 | 72 | 311 | 4.3 | 8.7 | 0.00 | 0.00 | 0.00 | 62 | 1016.0 |
| 20260904235629 | 72 | 318 | 4.3 | 8.7 | 0.00 | 0.00 | 0.00 | 61 | 1016.0 |
| 20260904235529 | 72 | 304 | 4.3 | 8.7 | 0.00 | 0.00 | 0.00 | 61 | 1016.0 |
| 20260904235429 | 72 | 281 | 4.3 | 8.7 | 0.00 | 0.00 | 0.00 | 61 | 1016.0 |
| 20260904235328 | 73 | 317 | 4.3 | 8.7 | 0.00 | 0.00 | 0.00 | 61 | 1015.8 |
| 20260904235228 | 73 | 310 | 4.3 | 8.7 | 0.00 | 0.00 | 0.00 | 61 | 1015.8 |
| 20260904235128 | 73 | 319 | 4.3 | 8.7 | 0.00 | 0.00 | 0.00 | 61 | 1015.8 |
| 20260904235028 | 73 | 316 | 4.3 | 8.7 | 0.00 | 0.00 | 0.00 | 61 | 1015.8 |
| 20260904234928 | 73 | 298 | 4.3 | 8.7 | 0.00 | 0.00 | 0.00 | 60 | 1015.7 |
| 20260904234830 | 73 | 287 | 4.3 | 8.7 | 0.00 | 0.00 | 0.00 | 60 | 1015.7 |
| 20260904234728 | 73 | 293 | 4.3 | 8.7 | 0.00 | 0.00 | 0.00 | 60 | 1015.6 |
| 20260904234628 | 73 | 286 | 4.3 | 8.7 | 0.00 | 0.00 | 0.00 | 60 | 1015.6 |
| 20260904234528 | 73 | 259 | 4.3 | 8.7 | 0.00 | 0.00 | 0.00 | 60 | 1015.6 |
| 20260904234428 | 73 | 275 | 5.2 | 10.4 | 0.00 | 0.00 | 0.00 | 60 | 1015.5 |
| 20260904234328 | 73 | 226 | 5.2 | 10.4 | 0.00 | 0.00 | 0.00 | 60 | 1015.5 |
| 20260904234229 | 73 | 258 | 5.2 | 10.4 | 0.00 | 0.00 | 0.00 | 60 | 1015.5 |
| 20260904234128 | 73 | 235 | 5.2 | 10.4 | 0.00 | 0.00 | 0.00 | 60 | 1015.5 |
| 20260904234028 | 73 | 259 | 5.2 | 10.4 | 0.00 | 0.00 | 0.00 | 60 | 1015.4 |
| 20260904233928 | 73 | 214 | 5.2 | 10.4 | 0.00 | 0.00 | 0.00 | 60 | 1015.5 |
| 20260904233828 | 73 | 238 | 5.2 | 10.4 | 0.00 | 0.00 | 0.00 | 60 | 1015.4 |
| 20260904233729 | 73 | 276 | 5.2 | 10.4 | 0.00 | 0.00 | 0.00 | 60 | 1015.4 |
| 20260904233628 | 73 | 258 | 5.2 | 10.4 | 0.00 | 0.00 | 0.00 | 60 | 1015.4 |
| 20260904233528 | 73 | 229 | 5.2 | 10.4 | 0.00 | 0.00 | 0.00 | 60 | 1015.4 |
| 20260904233428 | 73 | 220 | 5.2 | 9.6 | 0.00 | 0.00 | 0.00 | 60 | 1015.4 |
| 20260904233328 | 73 | 237 | 4.3 | 9.6 | 0.00 | 0.00 | 0.00 | 60 | 1015.4 |
| 20260904233229 | 73 | 245 | 4.3 | 8.7 | 0.00 | 0.00 | 0.00 | 60 | 1015.4 |
| 20260904233130 | 73 | 231 | 4.3 | 8.7 | 0.00 | 0.00 | 0.00 | 60 | 1015.3 |
| 20260904233030 | 73 | 219 | 4.3 | 8.7 | 0.00 | 0.00 | 0.00 | 60 | 1015.4 |
| 20260904232929 | 73 | 246 | 5.2 | 8.7 | 0.00 | 0.00 | 0.00 | 60 | 1015.4 |
| 20260904232828 | 73 | 214 | 5.2 | 8.7 | 0.00 | 0.00 | 0.00 | 60 | 1015.4 |
| 20260904232729 | 73 | 231 | 4.3 | 8.7 | 0.00 | 0.00 | 0.00 | 60 | 1015.4 |
| 20260904232629 | 73 | 239 | 4.3 | 9.6 | 0.00 | 0.00 | 0.00 | 60 | 1015.4 |
| 20260904232529 | 73 | 207 | 4.3 | 9.6 | 0.00 | 0.00 | 0.00 | 60 | 1015.4 |
| 20260904232429 | 73 | 222 | 4.3 | 9.6 | 0.00 | 0.00 | 0.00 | 60 | 1015.4 |
| 20260904232329 | 73 | 258 | 4.3 | 9.6 | 0.00 | 0.00 | 0.00 | 60 | 1015.4 |
| 20260904232229 | 73 | 229 | 4.3 | 9.6 | 0.00 | 0.00 | 0.00 | 60 | 1015.4 |
| 20260904232131 | 73 | 255 | 4.3 | 9.6 | 0.00 | 0.00 | 0.00 | 60 | 1015.4 |
| 20260904232127 | 73 | 259 | 4.3 | 9.6 | 0.00 | 0.00 | 0.00 | 60 | 1015.4 |
| 20260904232024 | 73 | 273 | 4.3 | 9.6 | 0.00 | 0.00 | 0.00 | 59 | 1015.3 |
| 20260904231918 | 73 | 234 | 4.3 | 9.6 | 0.00 | 0.00 | 0.00 | 59 | 1015.4 |
| 20260904231818 | 73 | 190 | 4.3 | 9.6 | 0.00 | 0.00 | 0.00 | 59 | 1015.4 |
| 20260904231718 | 73 | 234 | 4.3 | 9.6 | 0.00 | 0.00 | 0.00 | 59 | 1015.4 |
| 20260904231629 | 73 | 273 | 4.3 | 8.7 | 0.00 | 0.00 | 0.00 | 59 | 1015.4 |
| 20260904231618 | 73 | 216 | 4.3 | 8.7 | 0.00 | 0.00 | 0.00 | 59 | 1015.3 |
| 20260904231517 | 73 | 231 | 4.3 | 8.7 | 0.00 | 0.00 | 0.00 | 59 | 1015.4 |
| 20260904231414 | 73 | 259 | 4.3 | 8.7 | 0.00 | 0.00 | 0.00 | 59 | 1015.4 |
| 20260904231314 | 73 | 236 | 4.3 | 8.7 | 0.00 | 0.00 | 0.00 | 59 | 1015.4 |
| 20260904231214 | 73 | 223 | 4.3 | 8.7 | 0.00 | 0.00 | 0.00 | 59 | 1015.4 |
| 20260904231128 | 73 | 211 | 4.3 | 8.7 | 0.00 | 0.00 | 0.00 | 59 | 1015.4 |
| 20260904231114 | 73 | 230 | 4.3 | 8.7 | 0.00 | 0.00 | 0.00 | 59 | 1015.3 |
| 20260904231012 | 73 | 246 | 4.3 | 8.7 | 0.00 | 0.00 | 0.00 | 59 | 1015.4 |
| 20260904230907 | 73 | 242 | 4.3 | 8.7 | 0.00 | 0.00 | 0.00 | 59 | 1015.3 |
| 20260904230807 | 73 | 252 | 4.3 | 9.6 | 0.00 | 0.00 | 0.00 | 59 | 1015.4 |
| 20260904230707 | 73 | 213 | 4.3 | 9.6 | 0.00 | 0.00 | 0.00 | 59 | 1015.3 |
| 20260904230629 | 73 | 261 | 4.3 | 9.6 | 0.00 | 0.00 | 0.00 | 59 | 1015.3 |
| 20260904230607 | 73 | 239 | 4.3 | 9.6 | 0.00 | 0.00 | 0.00 | 59 | 1015.3 |
| 20260904230505 | 73 | 220 | 4.3 | 9.6 | 0.00 | 0.00 | 0.00 | 59 | 1015.4 |
| 20260904230402 | 73 | 225 | 4.3 | 9.6 | 0.00 | 0.00 | 0.00 | 59 | 1015.3 |
| 20260904230301 | 73 | 230 | 4.3 | 9.6 | 0.00 | 0.00 | 0.00 | 59 | 1015.3 |
| 20260904230201 | 73 | 215 | 4.3 | 9.6 | 0.00 | 0.00 | 0.00 | 59 | 1015.4 |
| 20260904230130 | 73 | 227 | 4.3 | 9.6 | 0.00 | 0.00 | 0.00 | 59 | 1015.4 |
| 20260904230101 | 73 | 213 | 4.3 | 9.6 | 0.00 | 0.00 | 0.00 | 59 | 1015.4 |
| 20260904230001 | 73 | 215 | 4.3 | 9.6 | 0.00 | 0.00 | 0.00 | 59 | 1015.4 |
| 20260904225901 | 73 | 206 | 4.3 | 9.6 | 0.00 | 0.00 | 0.00 | 59 | 1015.4 |
| 20260904225801 | 73 | 242 | 4.3 | 9.6 | 0.00 | 0.00 | 0.00 | 59 | 1015.4 |
| 20260904225701 | 73 | 241 | 4.3 | 9.6 | 0.00 | 0.00 | 0.00 | 59 | 1015.4 |
| 20260904225601 | 73 | 235 | 4.3 | 9.6 | 0.00 | 0.00 | 0.00 | 59 | 1015.4 |
| 20260904225501 | 73 | 214 | 4.3 | 9.6 | 0.00 | 0.00 | 0.00 | 59 | 1015.3 |
| 20260904225401 | 73 | 224 | 4.3 | 9.6 | 0.00 | 0.00 | 0.00 | 58 | 1015.4 |
| 20260904225354 | 73 | 217 | 4.3 | 10.4 | 0.00 | 0.00 | 0.00 | 59 | 1015.4 |
| 20260904225348 | 73 | 246 | 4.3 | 10.4 | 0.00 | 0.00 | 0.00 | 59 | 1015.4 |
| 20260904225344 | 73 | 249 | 4.3 | 10.4 | 0.00 | 0.00 | 0.00 | 59 | 1015.4 |
| 20260904225100 | 73 | 231 | 4.3 | 10.4 | 0.00 | 0.00 | 0.00 | 59 | 1015.4 |
| 20260904225001 | 73 | 241 | 4.3 | 10.4 | 0.00 | 0.00 | 0.00 | 59 | 1015.4 |
| 20260904224901 | 73 | 258 | 5.2 | 10.4 | 0.00 | 0.00 | 0.00 | 59 | 1015.4 |
| 20260904224801 | 73 | 234 | 5.2 | 10.4 | 0.00 | 0.00 | 0.00 | 58 | 1015.3 |
| 20260904224701 | 73 | 231 | 5.2 | 10.4 | 0.00 | 0.00 | 0.00 | 58 | 1015.3 |
| 20260904224629 | 73 | 264 | 5.2 | 10.4 | 0.00 | 0.00 | 0.00 | 58 | 1015.3 |
| 20260904224601 | 73 | 233 | 5.2 | 10.4 | 0.00 | 0.00 | 0.00 | 58 | 1015.3 |
| 20260904224501 | 73 | 219 | 5.2 | 10.4 | 0.00 | 0.00 | 0.00 | 58 | 1015.3 |
| 20260904224401 | 73 | 242 | 5.2 | 10.4 | 0.00 | 0.00 | 0.00 | 59 | 1015.4 |
| 20260904224300 | 73 | 242 | 5.2 | 9.6 | 0.00 | 0.00 | 0.00 | 59 | 1015.4 |
| 20260904224200 | 73 | 213 | 4.3 | 9.6 | 0.00 | 0.00 | 0.00 | 59 | 1015.3 |
| 20260904224129 | 73 | 245 | 4.3 | 9.6 | 0.00 | 0.00 | 0.00 | 59 | 1015.3 |
| 20260904224100 | 73 | 202 | 4.3 | 9.6 | 0.00 | 0.00 | 0.00 | 59 | 1015.3 |
| 20260904224000 | 73 | 208 | 4.3 | 9.6 | 0.00 | 0.00 | 0.00 | 58 | 1015.4 |
| 20260904223900 | 73 | 254 | 4.3 | 9.6 | 0.00 | 0.00 | 0.00 | 58 | 1015.3 |
| 20260904223800 | 73 | 238 | 4.3 | 9.6 | 0.00 | 0.00 | 0.00 | 59 | 1015.4 |
| 20260904223700 | 73 | 219 | 4.3 | 9.6 | 0.00 | 0.00 | 0.00 | 58 | 1015.4 |
| 20260904223628 | 73 | 230 | 4.3 | 9.6 | 0.00 | 0.00 | 0.00 | 58 | 1015.4 |
| 20260904223600 | 73 | 261 | 3.5 | 9.6 | 0.00 | 0.00 | 0.00 | 58 | 1015.4 |
| 20260904223500 | 73 | 244 | 3.5 | 9.6 | 0.00 | 0.00 | 0.00 | 58 | 1015.4 |
| 20260904223401 | 73 | 243 | 3.5 | 9.6 | 0.00 | 0.00 | 0.00 | 58 | 1015.4 |
| 20260904223302 | 73 | 236 | 3.5 | 9.6 | 0.00 | 0.00 | 0.00 | 58 | 1015.4 |
| 20260904223202 | 73 | 250 | 3.5 | 9.6 | 0.00 | 0.00 | 0.00 | 58 | 1015.3 |
| 20260904223129 | 73 | 273 | 3.5 | 9.6 | 0.00 | 0.00 | 0.00 | 58 | 1015.3 |
| 20260904223101 | 73 | 210 | 3.5 | 9.6 | 0.00 | 0.00 | 0.00 | 59 | 1015.4 |
| 20260904223001 | 73 | 229 | 3.5 | 9.6 | 0.00 | 0.00 | 0.00 | 58 | 1015.4 |
| 20260904222901 | 73 | 229 | 3.5 | 7.8 | 0.00 | 0.00 | 0.00 | 59 | 1015.4 |
| 20260904222801 | 73 | 202 | 3.5 | 7.8 | 0.00 | 0.00 | 0.00 | 58 | 1015.4 |
| 20260904222701 | 73 | 252 | 3.5 | 7.8 | 0.00 | 0.00 | 0.00 | 58 | 1015.4 |
| 20260904222628 | 74 | 252 | 3.5 | 7.8 | 0.00 | 0.00 | 0.00 | 58 | 1015.4 |
| 20260904222605 | 74 | 252 | 3.5 | 7.8 | 0.00 | 0.00 | 0.00 | 58 | 1015.3 |
| 20260904222501 | 74 | 217 | 3.5 | 7.8 | 0.00 | 0.00 | 0.00 | 58 | 1015.4 |
| 20260904222401 | 74 | 242 | 3.5 | 7.8 | 0.00 | 0.00 | 0.00 | 59 | 1015.4 |
| 20260904222301 | 74 | 209 | 4.3 | 7.8 | 0.00 | 0.00 | 0.00 | 58 | 1015.3 |
| 20260904222201 | 74 | 264 | 4.3 | 7.8 | 0.00 | 0.00 | 0.00 | 58 | 1015.3 |
| 20260904222128 | 74 | 239 | 4.3 | 7.8 | 0.00 | 0.00 | 0.00 | 58 | 1015.3 |
| 20260904222101 | 74 | 242 | 4.3 | 7.8 | 0.00 | 0.00 | 0.00 | 58 | 1015.4 |
| 20260904222001 | 74 | 225 | 4.3 | 7.8 | 0.00 | 0.00 | 0.00 | 58 | 1015.4 |
| 20260904221901 | 74 | 218 | 4.3 | 10.4 | 0.00 | 0.00 | 0.00 | 58 | 1015.4 |
| 20260904221801 | 74 | 246 | 4.3 | 10.4 | 0.00 | 0.00 | 0.00 | 58 | 1015.3 |
| 20260904221701 | 74 | 236 | 4.3 | 10.4 | 0.00 | 0.00 | 0.00 | 58 | 1015.3 |
| 20260904221629 | 74 | 238 | 4.3 | 10.4 | 0.00 | 0.00 | 0.00 | 58 | 1015.3 |
| 20260904221601 | 74 | 255 | 4.3 | 10.4 | 0.00 | 0.00 | 0.00 | 58 | 1015.3 |
| 20260904221501 | 74 | 210 | 4.3 | 10.4 | 0.00 | 0.00 | 0.00 | 58 | 1015.3 |
| 20260904221401 | 74 | 234 | 5.2 | 10.4 | 0.00 | 0.00 | 0.00 | 58 | 1015.3 |
| 20260904221301 | 74 | 234 | 5.2 | 10.4 | 0.00 | 0.00 | 0.00 | 58 | 1015.3 |
| 20260904221201 | 74 | 231 | 5.2 | 10.4 | 0.00 | 0.00 | 0.00 | 58 | 1015.3 |
| 20260904221129 | 74 | 244 | 5.2 | 10.4 | 0.00 | 0.00 | 0.00 | 58 | 1015.3 |
| 20260904221100 | 74 | 275 | 5.2 | 10.4 | 0.00 | 0.00 | 0.00 | 58 | 1015.3 |
| 20260904221001 | 74 | 232 | 5.2 | 10.4 | 0.00 | 0.00 | 0.00 | 58 | 1015.3 |
| 20260904220901 | 74 | 227 | 5.2 | 10.4 | 0.00 | 0.00 | 0.00 | 58 | 1015.3 |
| 20260904220800 | 74 | 282 | 5.2 | 10.4 | 0.00 | 0.00 | 0.00 | 58 | 1015.3 |
| 20260904220700 | 74 | 211 | 5.2 | 10.4 | 0.00 | 0.00 | 0.00 | 58 | 1015.3 |
| 20260904220629 | 74 | 236 | 5.2 | 10.4 | 0.00 | 0.00 | 0.00 | 58 | 1015.3 |
| 20260904220600 | 74 | 252 | 5.2 | 11.3 | 0.00 | 0.00 | 0.00 | 58 | 1015.3 |
| 20260904220500 | 74 | 238 | 5.2 | 11.3 | 0.00 | 0.00 | 0.00 | 58 | 1015.2 |
| 20260904220401 | 74 | 200 | 4.3 | 11.3 | 0.00 | 0.00 | 0.00 | 58 | 1015.2 |
| 20260904220301 | 74 | 224 | 4.3 | 11.3 | 0.00 | 0.00 | 0.00 | 58 | 1015.2 |
| 20260904220201 | 74 | 232 | 4.3 | 11.3 | 0.00 | 0.00 | 0.00 | 58 | 1015.2 |
| 20260904220129 | 74 | 216 | 4.3 | 11.3 | 0.00 | 0.00 | 0.00 | 58 | 1015.2 |
| 20260904220001 | 74 | 232 | 4.3 | 11.3 | 0.00 | 0.00 | 0.00 | 58 | 1015.1 |
| 20260904215901 | 74 | 215 | 4.3 | 11.3 | 0.00 | 0.00 | 0.00 | 58 | 1015.1 |
| 20260904215802 | 74 | 224 | 4.3 | 11.3 | 0.00 | 0.00 | 0.00 | 58 | 1015.1 |
| 20260904215701 | 74 | 227 | 4.3 | 11.3 | 0.00 | 0.00 | 0.00 | 58 | 1015.1 |
| 20260904215629 | 74 | 238 | 4.3 | 11.3 | 0.00 | 0.00 | 0.00 | 58 | 1015.1 |
| 20260904215601 | 74 | 188 | 4.3 | 9.6 | 0.00 | 0.00 | 0.00 | 58 | 1015.1 |
| 20260904215501 | 74 | 250 | 4.3 | 9.6 | 0.00 | 0.00 | 0.00 | 58 | 1015.1 |
| 20260904215401 | 74 | 244 | 4.3 | 9.6 | 0.00 | 0.00 | 0.00 | 58 | 1015.1 |
| 20260904215305 | 74 | 237 | 3.5 | 9.6 | 0.00 | 0.00 | 0.00 | 58 | 1015.0 |
| 20260904215200 | 74 | 220 | 3.5 | 9.6 | 0.00 | 0.00 | 0.00 | 58 | 1015.0 |
| 20260904215129 | 74 | 221 | 3.5 | 9.6 | 0.00 | 0.00 | 0.00 | 58 | 1015.0 |
| 20260904215101 | 74 | 238 | 3.5 | 9.6 | 0.00 | 0.00 | 0.00 | 58 | 1015.1 |
| 20260904215001 | 74 | 232 | 4.3 | 7.8 | 0.00 | 0.00 | 0.00 | 58 | 1015.1 |
| 20260904214901 | 74 | 246 | 4.3 | 7.8 | 0.00 | 0.00 | 0.00 | 58 | 1015.0 |
| 20260904214801 | 74 | 211 | 4.3 | 7.8 | 0.00 | 0.00 | 0.00 | 58 | 1015.0 |
| 20260904214701 | 74 | 217 | 4.3 | 7.8 | 0.00 | 0.00 | 0.00 | 58 | 1015.1 |
| 20260904214629 | 74 | 227 | 4.3 | 7.8 | 0.00 | 0.00 | 0.00 | 58 | 1015.1 |
| 20260904214624 | 74 | 244 | 4.3 | 8.7 | 0.00 | 0.00 | 0.00 | 58 | 1015.0 |
| 20260904214616 | 74 | 223 | 4.3 | 7.8 | 0.00 | 0.00 | 0.00 | 58 | 1015.0 |
| 20260904214609 | 74 | 225 | 4.3 | 7.8 | 0.00 | 0.00 | 0.00 | 58 | 1015.0 |
| 20260904214604 | 74 | 244 | 4.3 | 7.8 | 0.00 | 0.00 | 0.00 | 58 | 1015.0 |
| 20260904214343 | 74 | 263 | 4.3 | 7.8 | 0.00 | 0.00 | 0.00 | 58 | 1015.0 |
| 20260904214339 | 74 | 278 | 4.3 | 8.7 | 0.00 | 0.00 | 0.00 | 58 | 1015.0 |
| 20260904214101 | 74 | 252 | 4.3 | 8.7 | 0.00 | 0.00 | 0.00 | 58 | 1015.0 |
| 20260904214001 | 74 | 237 | 4.3 | 8.7 | 0.00 | 0.00 | 0.00 | 58 | 1015.0 |
| 20260904213901 | 74 | 251 | 4.3 | 8.7 | 0.00 | 0.00 | 0.00 | 58 | 1015.1 |
| 20260904213801 | 74 | 265 | 4.3 | 8.7 | 0.00 | 0.00 | 0.00 | 58 | 1015.0 |
| 20260904213700 | 74 | 231 | 4.3 | 8.7 | 0.00 | 0.00 | 0.00 | 58 | 1015.0 |
| 20260904213629 | 74 | 243 | 4.3 | 8.7 | 0.00 | 0.00 | 0.00 | 58 | 1015.0 |
| 20260904213600 | 74 | 235 | 4.3 | 8.7 | 0.00 | 0.00 | 0.00 | 58 | 1015.0 |
| 20260904213504 | 74 | 244 | 4.3 | 8.7 | 0.00 | 0.00 | 0.00 | 58 | 1015.1 |
| 20260904213401 | 74 | 236 | 4.3 | 8.7 | 0.00 | 0.00 | 0.00 | 58 | 1015.0 |
| 20260904213301 | 74 | 236 | 3.5 | 8.7 | 0.00 | 0.00 | 0.00 | 58 | 1015.0 |
| 20260904213201 | 74 | 240 | 4.3 | 7.8 | 0.00 | 0.00 | 0.00 | 58 | 1015.1 |
| 20260904213129 | 74 | 238 | 4.3 | 7.8 | 0.00 | 0.00 | 0.00 | 58 | 1015.1 |
| 20260904213101 | 74 | 213 | 3.5 | 7.8 | 0.00 | 0.00 | 0.00 | 58 | 1015.0 |
| 20260904213001 | 74 | 252 | 3.5 | 7.8 | 0.00 | 0.00 | 0.00 | 58 | 1015.0 |
| 20260904212901 | 74 | 247 | 3.5 | 7.8 | 0.00 | 0.00 | 0.00 | 58 | 1015.0 |
| 20260904212801 | 74 | 220 | 4.3 | 7.8 | 0.00 | 0.00 | 0.00 | 58 | 1015.0 |
| 20260904212702 | 74 | 252 | 4.3 | 7.8 | 0.00 | 0.00 | 0.00 | 58 | 1015.0 |
| 20260904212631 | 74 | 215 | 4.3 | 7.8 | 0.00 | 0.00 | 0.00 | 58 | 1015.0 |
| 20260904212601 | 74 | 252 | 4.3 | 7.8 | 0.00 | 0.00 | 0.00 | 58 | 1015.0 |
| 20260904212501 | 74 | 272 | 3.5 | 7.8 | 0.00 | 0.00 | 0.00 | 58 | 1015.0 |
| 20260904212401 | 74 | 227 | 3.5 | 7.8 | 0.00 | 0.00 | 0.00 | 58 | 1015.0 |
| 20260904212356 | 74 | 220 | 3.5 | 7.8 | 0.00 | 0.00 | 0.00 | 58 | 1015.0 |
| 20260904212343 | 74 | 237 | 3.5 | 7.8 | 0.00 | 0.00 | 0.00 | 58 | 1015.0 |
| 20260904212339 | 74 | 253 | 3.5 | 7.8 | 0.00 | 0.00 | 0.00 | 58 | 1015.0 |
| 20260904212101 | 74 | 232 | 3.5 | 7.8 | 0.00 | 0.00 | 0.00 | 57 | 1015.0 |
| 20260904212001 | 74 | 232 | 3.5 | 7.8 | 0.00 | 0.00 | 0.00 | 57 | 1015.0 |
| 20260904211900 | 74 | 288 | 3.5 | 7.8 | 0.00 | 0.00 | 0.00 | 57 | 1015.0 |
| 20260904211856 | 74 | 262 | 3.5 | 7.0 | 0.00 | 0.00 | 0.00 | 57 | 1015.0 |
| 20260904211844 | 74 | 229 | 3.5 | 7.8 | 0.00 | 0.00 | 0.00 | 57 | 1015.0 |
| 20260904211840 | 74 | 227 | 3.5 | 7.8 | 0.00 | 0.00 | 0.00 | 57 | 1015.0 |
| 20260904211601 | 74 | 235 | 3.5 | 7.0 | 0.00 | 0.00 | 0.00 | 57 | 1014.9 |
| 20260904211501 | 74 | 213 | 4.3 | 7.0 | 0.00 | 0.00 | 0.00 | 57 | 1014.9 |
| 20260904211405 | 74 | 206 | 3.5 | 7.0 | 0.00 | 0.00 | 0.00 | 57 | 1014.9 |
| 20260904211347 | 74 | 234 | 4.3 | 7.0 | 0.00 | 0.00 | 0.00 | 57 | 1014.9 |
| 20260904211343 | 74 | 236 | 3.5 | 7.0 | 0.00 | 0.00 | 0.00 | 57 | 1014.9 |
| 20260904211339 | 74 | 234 | 4.3 | 7.0 | 0.00 | 0.00 | 0.00 | 57 | 1014.9 |
| 20260904211101 | 74 | 236 | 3.5 | 7.0 | 0.00 | 0.00 | 0.00 | 57 | 1014.9 |
| 20260904211000 | 74 | 229 | 4.3 | 7.0 | 0.00 | 0.00 | 0.00 | 57 | 1014.9 |
| 20260904210900 | 74 | 238 | 3.5 | 7.0 | 0.00 | 0.00 | 0.00 | 57 | 1014.9 |
| 20260904210800 | 74 | 216 | 4.3 | 7.8 | 0.00 | 0.00 | 0.00 | 57 | 1015.0 |
| 20260904210700 | 74 | 235 | 3.5 | 7.8 | 0.00 | 0.00 | 0.00 | 57 | 1014.9 |
| 20260904210629 | 74 | 258 | 3.5 | 7.8 | 0.00 | 0.00 | 0.00 | 57 | 1014.9 |
| 20260904210601 | 74 | 222 | 4.3 | 7.8 | 0.00 | 0.00 | 0.00 | 57 | 1014.9 |
| 20260904210501 | 74 | 246 | 3.5 | 7.8 | 0.00 | 0.00 | 0.00 | 57 | 1015.0 |
| 20260904210401 | 74 | 242 | 4.3 | 7.8 | 0.00 | 0.00 | 0.00 | 56 | 1015.0 |
| 20260904210301 | 74 | 298 | 4.3 | 7.8 | 0.00 | 0.00 | 0.00 | 57 | 1014.9 |
| 20260904210201 | 74 | 230 | 4.3 | 7.8 | 0.00 | 0.00 | 0.00 | 57 | 1015.0 |
| 20260904210129 | 74 | 209 | 4.3 | 7.8 | 0.00 | 0.00 | 0.00 | 57 | 1015.0 |
| 20260904210101 | 74 | 247 | 4.3 | 7.8 | 0.00 | 0.00 | 0.00 | 57 | 1015.0 |
| 20260904210000 | 74 | 212 | 4.3 | 7.8 | 0.00 | 0.00 | 0.00 | 57 | 1015.0 |
| 20260904205901 | 74 | 263 | 4.3 | 7.8 | 0.00 | 0.00 | 0.00 | 57 | 1015.0 |
| 20260904205801 | 74 | 223 | 4.3 | 7.8 | 0.00 | 0.00 | 0.00 | 56 | 1014.9 |
| 20260904205709 | 74 | 238 | 4.3 | 7.8 | 0.00 | 0.00 | 0.00 | 56 | 1015.0 |
| 20260904205630 | 74 | 217 | 4.3 | 8.7 | 0.00 | 0.00 | 0.00 | 57 | 1015.0 |
| 20260904205601 | 74 | 231 | 4.3 | 8.7 | 0.00 | 0.00 | 0.00 | 57 | 1015.0 |
| 20260904205501 | 74 | 244 | 4.3 | 8.7 | 0.00 | 0.00 | 0.00 | 56 | 1015.0 |
| 20260904205401 | 74 | 229 | 4.3 | 8.7 | 0.00 | 0.00 | 0.00 | 56 | 1014.9 |
| 20260904205301 | 74 | 234 | 4.3 | 8.7 | 0.00 | 0.00 | 0.00 | 56 | 1015.0 |
| 20260904205201 | 74 | 246 | 4.3 | 8.7 | 0.00 | 0.00 | 0.00 | 56 | 1014.9 |
| 20260904205130 | 74 | 244 | 4.3 | 8.7 | 0.00 | 0.00 | 0.00 | 56 | 1014.9 |
| 20260904205101 | 74 | 223 | 4.3 | 8.7 | 0.00 | 0.00 | 0.00 | 56 | 1015.0 |
| 20260904205002 | 74 | 220 | 4.3 | 9.6 | 0.00 | 0.00 | 0.00 | 57 | 1015.0 |
| 20260904204902 | 75 | 223 | 4.3 | 9.6 | 0.00 | 0.00 | 0.00 | 56 | 1015.0 |
| 20260904204801 | 75 | 240 | 4.3 | 9.6 | 0.00 | 0.00 | 0.00 | 56 | 1015.0 |
| 20260904204701 | 75 | 217 | 4.3 | 9.6 | 0.00 | 0.00 | 0.00 | 56 | 1015.0 |
| 20260904204629 | 75 | 275 | 4.3 | 9.6 | 0.00 | 0.00 | 0.00 | 56 | 1015.0 |
| 20260904204623 | 75 | 229 | 5.2 | 9.6 | 0.00 | 0.00 | 0.00 | 56 | 1015.0 |
| 20260904204617 | 75 | 212 | 4.3 | 9.6 | 0.00 | 0.00 | 0.00 | 56 | 1015.0 |
| 20260904204611 | 75 | 217 | 4.3 | 9.6 | 0.00 | 0.00 | 0.00 | 56 | 1015.0 |
| 20260904204606 | 75 | 234 | 4.3 | 9.6 | 0.00 | 0.00 | 0.00 | 56 | 1015.0 |
| 20260904204345 | 75 | 231 | 5.2 | 9.6 | 0.00 | 0.00 | 0.00 | 56 | 1015.0 |
| 20260904204341 | 75 | 225 | 5.2 | 9.6 | 0.00 | 0.00 | 0.00 | 56 | 1015.0 |
| 20260904204100 | 75 | 244 | 5.2 | 9.6 | 0.00 | 0.00 | 0.00 | 56 | 1015.0 |
| 20260904204000 | 75 | 218 | 5.2 | 8.7 | 0.00 | 0.00 | 0.00 | 56 | 1015.0 |
| 20260904203901 | 75 | 216 | 5.2 | 8.7 | 0.00 | 0.00 | 0.00 | 56 | 1015.0 |
| 20260904203800 | 75 | 250 | 5.2 | 8.7 | 0.00 | 0.00 | 0.00 | 56 | 1015.0 |
| 20260904203701 | 75 | 219 | 5.2 | 8.7 | 0.00 | 0.00 | 0.00 | 56 | 1015.0 |
| 20260904203629 | 75 | 245 | 5.2 | 8.7 | 0.00 | 0.00 | 0.00 | 56 | 1015.0 |
| 20260904203601 | 75 | 251 | 5.2 | 8.7 | 0.00 | 0.00 | 0.00 | 56 | 1015.0 |
| 20260904203502 | 75 | 240 | 5.2 | 8.7 | 0.00 | 0.00 | 0.00 | 56 | 1015.0 |
| 20260904203402 | 75 | 236 | 5.2 | 8.7 | 0.00 | 0.00 | 0.00 | 56 | 1015.0 |
| 20260904203358 | 75 | 232 | 4.3 | 8.7 | 0.00 | 0.00 | 0.00 | 56 | 1015.0 |
| 20260904203353 | 75 | 223 | 4.3 | 8.7 | 0.00 | 0.00 | 0.00 | 56 | 1015.0 |
| 20260904203345 | 75 | 205 | 4.3 | 8.7 | 0.00 | 0.00 | 0.00 | 56 | 1015.0 |
| 20260904203341 | 75 | 227 | 4.3 | 8.7 | 0.00 | 0.00 | 0.00 | 56 | 1015.0 |
| 20260904203106 | 75 | 223 | 4.3 | 8.7 | 0.00 | 0.00 | 0.00 | 56 | 1015.0 |
| 20260904203000 | 75 | 236 | 4.3 | 8.7 | 0.00 | 0.00 | 0.00 | 56 | 1015.0 |
| 20260904202901 | 75 | 224 | 4.3 | 8.7 | 0.00 | 0.00 | 0.00 | 56 | 1015.0 |
| 20260904202801 | 75 | 200 | 4.3 | 8.7 | 0.00 | 0.00 | 0.00 | 56 | 1015.0 |
| 20260904202700 | 75 | 223 | 4.3 | 9.6 | 0.00 | 0.00 | 0.00 | 56 | 1015.0 |
| 20260904202629 | 75 | 262 | 4.3 | 9.6 | 0.00 | 0.00 | 0.00 | 56 | 1015.0 |
| 20260904202601 | 75 | 217 | 4.3 | 9.6 | 0.00 | 0.00 | 0.00 | 56 | 1015.0 |
| 20260904202501 | 75 | 234 | 4.3 | 9.6 | 0.00 | 0.00 | 0.00 | 56 | 1015.0 |
| 20260904202402 | 75 | 240 | 4.3 | 10.4 | 0.00 | 0.00 | 0.00 | 56 | 1015.0 |
| 20260904202301 | 75 | 240 | 4.3 | 10.4 | 0.00 | 0.00 | 0.00 | 56 | 1015.0 |
| 20260904202201 | 75 | 243 | 4.3 | 10.4 | 0.00 | 0.00 | 0.00 | 55 | 1014.9 |
| 20260904202128 | 75 | 235 | 4.3 | 10.4 | 0.00 | 0.00 | 0.00 | 56 | 1014.9 |
| 20260904202101 | 75 | 211 | 4.3 | 10.4 | 0.00 | 0.00 | 0.00 | 56 | 1015.0 |
| 20260904202001 | 75 | 228 | 4.3 | 10.4 | 0.00 | 0.00 | 0.00 | 55 | 1015.0 |
| 20260904201901 | 75 | 261 | 4.3 | 10.4 | 0.00 | 0.00 | 0.00 | 55 | 1015.0 |
| 20260904201801 | 75 | 234 | 4.3 | 10.4 | 0.00 | 0.00 | 0.00 | 55 | 1015.0 |
| 20260904201701 | 75 | 219 | 4.3 | 10.4 | 0.00 | 0.00 | 0.00 | 55 | 1014.9 |
| 20260904201628 | 75 | 223 | 4.3 | 10.4 | 0.00 | 0.00 | 0.00 | 55 | 1014.9 |
| 20260904201601 | 75 | 234 | 4.3 | 10.4 | 0.00 | 0.00 | 0.00 | 55 | 1014.9 |
| 20260904201501 | 75 | 234 | 4.3 | 10.4 | 0.00 | 0.00 | 0.00 | 55 | 1014.9 |
| 20260904201401 | 75 | 235 | 4.3 | 8.7 | 0.00 | 0.00 | 0.00 | 55 | 1014.9 |
| 20260904201300 | 75 | 269 | 4.3 | 8.7 | 0.00 | 0.00 | 0.00 | 55 | 1014.9 |
| 20260904201200 | 75 | 236 | 4.3 | 8.7 | 0.00 | 0.00 | 0.00 | 55 | 1014.9 |
| 20260904201129 | 75 | 250 | 4.3 | 8.7 | 0.00 | 0.00 | 0.00 | 55 | 1014.9 |
| 20260904201101 | 75 | 250 | 4.3 | 8.7 | 0.00 | 0.00 | 0.00 | 54 | 1014.9 |
| 20260904201001 | 75 | 233 | 4.3 | 8.7 | 0.00 | 0.00 | 0.00 | 54 | 1014.9 |
| 20260904200901 | 75 | 212 | 4.3 | 8.7 | 0.00 | 0.00 | 0.00 | 55 | 1014.9 |
| 20260904200856 | 76 | 219 | 4.3 | 7.8 | 0.00 | 0.00 | 0.00 | 54 | 1014.9 |
| 20260904200846 | 75 | 231 | 4.3 | 7.8 | 0.00 | 0.00 | 0.00 | 54 | 1014.9 |
| 20260904200841 | 76 | 232 | 4.3 | 7.8 | 0.00 | 0.00 | 0.00 | 55 | 1014.9 |
| 20260904200601 | 76 | 217 | 4.3 | 7.8 | 0.00 | 0.00 | 0.00 | 54 | 1014.9 |
| 20260904200501 | 76 | 263 | 4.3 | 7.8 | 0.00 | 0.00 | 0.00 | 54 | 1014.9 |
| 20260904200401 | 76 | 260 | 4.3 | 7.8 | 0.00 | 0.00 | 0.00 | 54 | 1015.0 |
| 20260904200354 | 76 | 244 | 4.3 | 7.8 | 0.00 | 0.00 | 0.00 | 54 | 1014.9 |
| 20260904200345 | 76 | 238 | 4.3 | 7.8 | 0.00 | 0.00 | 0.00 | 54 | 1014.9 |
| 20260904200340 | 76 | 224 | 4.3 | 7.8 | 0.00 | 0.00 | 0.00 | 54 | 1014.9 |
| 20260904200033 | 76 | 273 | 4.3 | 7.8 | 0.00 | 0.00 | 0.00 | 54 | 1014.9 |
| 20260904200002 | 76 | 273 | 4.3 | 7.8 | 0.00 | 0.00 | 0.00 | 54 | 1014.9 |
| 20260904195901 | 76 | 236 | 4.3 | 7.8 | 0.00 | 0.00 | 0.00 | 54 | 1014.9 |
| 20260904195801 | 76 | 243 | 4.3 | 7.8 | 0.00 | 0.00 | 0.00 | 54 | 1014.8 |
| 20260904195701 | 76 | 253 | 4.3 | 7.8 | 0.00 | 0.00 | 0.00 | 54 | 1014.9 |
| 20260904195628 | 76 | 269 | 4.3 | 7.8 | 0.00 | 0.00 | 0.00 | 54 | 1014.9 |
| 20260904195601 | 76 | 257 | 4.3 | 7.0 | 0.00 | 0.00 | 0.00 | 54 | 1014.9 |
| 20260904195501 | 76 | 237 | 5.2 | 7.0 | 0.00 | 0.00 | 0.00 | 54 | 1014.9 |
| 20260904195401 | 76 | 269 | 5.2 | 7.0 | 0.00 | 0.00 | 0.00 | 54 | 1014.9 |
| 20260904195300 | 76 | 257 | 5.2 | 7.0 | 0.00 | 0.00 | 0.00 | 54 | 1014.9 |
| 20260904195155 | 76 | 236 | 5.2 | 7.8 | 0.00 | 0.00 | 0.00 | 54 | 1014.9 |
| 20260904195128 | 76 | 243 | 5.2 | 7.8 | 0.00 | 0.00 | 0.00 | 54 | 1014.9 |
| 20260904195100 | 76 | 278 | 5.2 | 7.8 | 0.00 | 0.00 | 0.00 | 54 | 1014.8 |
| 20260904194955 | 76 | 281 | 5.2 | 7.8 | 0.00 | 0.00 | 0.00 | 53 | 1014.9 |
| 20260904194855 | 76 | 277 | 5.2 | 7.8 | 0.00 | 0.00 | 0.00 | 54 | 1014.8 |
| 20260904194755 | 76 | 234 | 5.2 | 7.8 | 0.00 | 0.00 | 0.00 | 53 | 1014.9 |
| 20260904194649 | 76 | 251 | 5.2 | 7.8 | 0.00 | 0.00 | 0.00 | 53 | 1014.9 |
| 20260904194630 | 76 | 260 | 5.2 | 7.8 | 0.00 | 0.00 | 0.00 | 53 | 1014.9 |
| 20260904194548 | 76 | 241 | 5.2 | 7.8 | 0.00 | 0.00 | 0.00 | 53 | 1014.8 |
| 20260904194448 | 76 | 229 | 5.2 | 8.7 | 0.00 | 0.00 | 0.00 | 53 | 1014.9 |
| 20260904194348 | 76 | 222 | 5.2 | 9.6 | 0.00 | 0.00 | 0.00 | 53 | 1014.8 |
| 20260904194249 | 76 | 248 | 5.2 | 9.6 | 0.00 | 0.00 | 0.00 | 53 | 1014.8 |
| 20260904194144 | 76 | 254 | 5.2 | 9.6 | 0.00 | 0.00 | 0.00 | 53 | 1014.8 |
| 20260904194128 | 76 | 246 | 5.2 | 9.6 | 0.00 | 0.00 | 0.00 | 53 | 1014.8 |
| 20260904194044 | 76 | 219 | 5.2 | 9.6 | 0.00 | 0.00 | 0.00 | 53 | 1014.8 |
| 20260904193945 | 76 | 273 | 5.2 | 9.6 | 0.00 | 0.00 | 0.00 | 53 | 1014.7 |
| 20260904193859 | 76 | 262 | 5.2 | 10.4 | 0.00 | 0.00 | 0.00 | 53 | 1014.7 |
| 20260904193854 | 76 | 225 | 5.2 | 9.6 | 0.00 | 0.00 | 0.00 | 53 | 1014.8 |
| 20260904193845 | 76 | 262 | 5.2 | 9.6 | 0.00 | 0.00 | 0.00 | 53 | 1014.8 |
| 20260904193842 | 76 | 243 | 5.2 | 9.6 | 0.00 | 0.00 | 0.00 | 53 | 1014.7 |
| 20260904193542 | 76 | 281 | 5.2 | 10.4 | 0.00 | 0.00 | 0.00 | 53 | 1014.7 |
| 20260904193442 | 76 | 279 | 6.1 | 10.4 | 0.00 | 0.00 | 0.00 | 52 | 1014.8 |
| 20260904193342 | 76 | 243 | 6.1 | 10.4 | 0.00 | 0.00 | 0.00 | 52 | 1014.7 |
| 20260904193243 | 76 | 257 | 6.1 | 10.4 | 0.00 | 0.00 | 0.00 | 52 | 1014.7 |
| 20260904193142 | 76 | 249 | 6.1 | 10.4 | 0.00 | 0.00 | 0.00 | 52 | 1014.7 |
| 20260904193129 | 76 | 256 | 6.1 | 10.4 | 0.00 | 0.00 | 0.00 | 52 | 1014.7 |
| 20260904193043 | 76 | 261 | 6.1 | 10.4 | 0.00 | 0.00 | 0.00 | 52 | 1014.7 |
| 20260904192943 | 76 | 299 | 6.1 | 10.4 | 0.00 | 0.00 | 0.00 | 52 | 1014.8 |
| 20260904192856 | 76 | 221 | 6.1 | 10.4 | 0.00 | 0.00 | 0.00 | 52 | 1014.7 |
| 20260904192851 | 76 | 258 | 6.1 | 10.4 | 0.00 | 0.00 | 0.00 | 52 | 1014.8 |
| 20260904192843 | 76 | 226 | 6.1 | 10.4 | 0.00 | 0.00 | 0.00 | 52 | 1014.7 |
| 20260904192839 | 76 | 239 | 6.1 | 10.4 | 0.00 | 0.00 | 0.00 | 52 | 1014.7 |
| 20260904192541 | 76 | 275 | 6.1 | 10.4 | 0.00 | 0.00 | 0.00 | 52 | 1014.7 |
| 20260904192441 | 76 | 269 | 6.1 | 10.4 | 0.00 | 0.00 | 0.00 | 52 | 1014.6 |
| 20260904192346 | 76 | 236 | 6.1 | 11.3 | 0.00 | 0.00 | 0.00 | 52 | 1014.7 |
| 20260904192241 | 76 | 269 | 6.1 | 11.3 | 0.00 | 0.00 | 0.00 | 52 | 1014.6 |
| 20260904192141 | 76 | 240 | 7.0 | 11.3 | 0.00 | 0.00 | 0.00 | 52 | 1014.6 |
| 20260904192128 | 76 | 259 | 7.0 | 11.3 | 0.00 | 0.00 | 0.00 | 52 | 1014.6 |
| 20260904192040 | 76 | 235 | 7.0 | 11.3 | 0.00 | 0.00 | 0.00 | 52 | 1014.6 |
| 20260904191936 | 76 | 255 | 7.0 | 11.3 | 0.00 | 0.00 | 0.00 | 52 | 1014.6 |
| 20260904191837 | 76 | 267 | 7.0 | 11.3 | 0.00 | 0.00 | 0.00 | 52 | 1014.6 |
| 20260904191737 | 76 | 225 | 7.0 | 11.3 | 0.00 | 0.00 | 0.00 | 52 | 1014.6 |
| 20260904191638 | 76 | 269 | 7.0 | 11.3 | 0.00 | 0.00 | 0.00 | 52 | 1014.6 |
| 20260904191629 | 76 | 251 | 7.0 | 11.3 | 0.00 | 0.00 | 0.00 | 52 | 1014.6 |
| 20260904191535 | 76 | 236 | 7.0 | 11.3 | 0.00 | 0.00 | 0.00 | 52 | 1014.6 |
| 20260904191432 | 76 | 270 | 7.0 | 11.3 | 0.00 | 0.00 | 0.00 | 52 | 1014.5 |
| 20260904191332 | 76 | 253 | 7.0 | 10.4 | 0.00 | 0.00 | 0.00 | 52 | 1014.5 |
| 20260904191230 | 76 | 267 | 6.1 | 10.4 | 0.00 | 0.00 | 0.00 | 52 | 1014.5 |
| 20260904191132 | 76 | 254 | 6.1 | 10.4 | 0.00 | 0.00 | 0.00 | 52 | 1014.5 |
| 20260904191128 | 76 | 261 | 6.1 | 10.4 | 0.00 | 0.00 | 0.00 | 52 | 1014.5 |
| 20260904191031 | 76 | 248 | 6.1 | 10.4 | 0.00 | 0.00 | 0.00 | 52 | 1014.5 |
| 20260904190929 | 76 | 252 | 5.2 | 9.6 | 0.00 | 0.00 | 0.00 | 52 | 1014.5 |
| 20260904190829 | 76 | 265 | 5.2 | 10.4 | 0.00 | 0.00 | 0.00 | 52 | 1014.4 |
| 20260904190729 | 76 | 275 | 5.2 | 10.4 | 0.00 | 0.00 | 0.00 | 52 | 1014.4 |
| 20260904190629 | 76 | 261 | 5.2 | 10.4 | 0.00 | 0.00 | 0.00 | 52 | 1014.5 |
| 20260904190529 | 76 | 264 | 5.2 | 10.4 | 0.00 | 0.00 | 0.00 | 52 | 1014.4 |
| 20260904190428 | 76 | 221 | 5.2 | 10.4 | 0.00 | 0.00 | 0.00 | 52 | 1014.4 |
| 20260904190328 | 76 | 277 | 5.2 | 10.4 | 0.00 | 0.00 | 0.00 | 52 | 1014.3 |
| 20260904190228 | 76 | 273 | 5.2 | 10.4 | 0.00 | 0.00 | 0.00 | 52 | 1014.3 |
| 20260904190129 | 76 | 267 | 5.2 | 10.4 | 0.00 | 0.00 | 0.00 | 52 | 1014.3 |
| 20260904190029 | 76 | 250 | 5.2 | 10.4 | 0.00 | 0.00 | 0.00 | 52 | 1014.3 |
| 20260904185929 | 76 | 261 | 5.2 | 10.4 | 0.00 | 0.00 | 0.00 | 52 | 1014.3 |
| 20260904185829 | 76 | 250 | 5.2 | 9.6 | 0.00 | 0.00 | 0.00 | 52 | 1014.3 |
| 20260904185729 | 76 | 258 | 5.2 | 9.6 | 0.00 | 0.00 | 0.00 | 52 | 1014.3 |
| 20260904185629 | 76 | 253 | 5.2 | 9.6 | 0.00 | 0.00 | 0.00 | 52 | 1014.3 |
| 20260904185529 | 76 | 255 | 5.2 | 9.6 | 0.00 | 0.00 | 0.00 | 51 | 1014.2 |
| 20260904185430 | 76 | 235 | 4.3 | 9.6 | 0.00 | 0.00 | 0.00 | 52 | 1014.2 |
| 20260904185329 | 76 | 252 | 4.3 | 9.6 | 0.00 | 0.00 | 0.00 | 51 | 1014.2 |
| 20260904185229 | 76 | 271 | 4.3 | 9.6 | 0.00 | 0.00 | 0.00 | 51 | 1014.2 |
| 20260904185129 | 77 | 250 | 4.3 | 9.6 | 0.00 | 0.00 | 0.00 | 51 | 1014.2 |
| 20260904185028 | 77 | 246 | 4.3 | 9.6 | 0.00 | 0.00 | 0.00 | 51 | 1014.2 |
| 20260904184929 | 77 | 279 | 4.3 | 7.0 | 0.00 | 0.00 | 0.00 | 51 | 1014.2 |
| 20260904184829 | 77 | 248 | 4.3 | 7.0 | 0.00 | 0.00 | 0.00 | 51 | 1014.2 |
| 20260904184728 | 77 | 244 | 3.5 | 7.0 | 0.00 | 0.00 | 0.00 | 51 | 1014.2 |
| 20260904184628 | 77 | 255 | 3.5 | 7.0 | 0.00 | 0.00 | 0.00 | 51 | 1014.2 |
| 20260904184529 | 77 | 253 | 3.5 | 7.0 | 0.00 | 0.00 | 0.00 | 51 | 1014.1 |
| 20260904184429 | 77 | 276 | 3.5 | 7.0 | 0.00 | 0.00 | 0.00 | 51 | 1014.2 |
| 20260904184353 | 77 | 266 | 3.5 | 7.0 | 0.00 | 0.00 | 0.00 | 51 | 1014.2 |
| 20260904184345 | 77 | 227 | 3.5 | 7.0 | 0.00 | 0.00 | 0.00 | 51 | 1014.1 |
| 20260904184340 | 77 | 263 | 3.5 | 7.0 | 0.00 | 0.00 | 0.00 | 50 | 1014.1 |
| 20260904184028 | 77 | 253 | 3.5 | 7.0 | 0.00 | 0.00 | 0.00 | 50 | 1014.1 |
| 20260904183928 | 77 | 255 | 3.5 | 7.0 | 0.00 | 0.00 | 0.00 | 50 | 1014.1 |
| 20260904183858 | 77 | 261 | 3.5 | 7.8 | 0.00 | 0.00 | 0.00 | 50 | 1013.9 |
| 20260904183849 | 77 | 248 | 3.5 | 7.0 | 0.00 | 0.00 | 0.00 | 50 | 1014.1 |
| 20260904183841 | 77 | 241 | 3.5 | 7.8 | 0.00 | 0.00 | 0.00 | 50 | 1014.1 |
| 20260904183837 | 77 | 259 | 3.5 | 7.8 | 0.00 | 0.00 | 0.00 | 50 | 1014.1 |
| 20260904183528 | 77 | 279 | 3.5 | 7.8 | 0.00 | 0.00 | 0.00 | 50 | 1013.9 |
| 20260904183428 | 77 | 271 | 3.5 | 7.8 | 0.00 | 0.00 | 0.00 | 50 | 1014.1 |
| 20260904183329 | 77 | 250 | 3.5 | 7.8 | 0.00 | 0.00 | 0.00 | 50 | 1014.1 |
| 20260904183229 | 77 | 256 | 3.5 | 7.8 | 0.00 | 0.00 | 0.00 | 50 | 1013.9 |
| 20260904183129 | 77 | 267 | 3.5 | 7.8 | 0.00 | 0.00 | 0.00 | 50 | 1013.9 |
| 20260904183120 | 77 | 268 | 3.5 | 7.8 | 0.00 | 0.00 | 0.00 | 50 | 1013.9 |
| 20260904183028 | 77 | 270 | 3.5 | 7.8 | 0.00 | 0.00 | 0.00 | 50 | 1013.9 |
| 20260904182929 | 77 | 270 | 3.5 | 7.8 | 0.00 | 0.00 | 0.00 | 50 | 1013.9 |
| 20260904182829 | 77 | 267 | 3.5 | 7.8 | 0.00 | 0.00 | 0.00 | 50 | 1013.9 |
| 20260904182728 | 77 | 278 | 3.5 | 6.1 | 0.00 | 0.00 | 0.00 | 50 | 1013.9 |
| 20260904182629 | 77 | 254 | 3.5 | 6.1 | 0.00 | 0.00 | 0.00 | 50 | 1013.9 |
| 20260904182615 | 78 | 243 | 3.5 | 6.1 | 0.00 | 0.00 | 0.00 | 50 | 1013.9 |
| 20260904182529 | 78 | 252 | 3.5 | 7.0 | 0.00 | 0.00 | 0.00 | 50 | 1013.9 |
| 20260904182429 | 78 | 238 | 3.5 | 7.8 | 0.00 | 0.00 | 0.00 | 49 | 1013.9 |
| 20260904182338 | 78 | 265 | 3.5 | 7.8 | 0.00 | 0.00 | 0.00 | 49 | 1013.8 |
| 20260904182334 | 78 | 239 | 3.5 | 7.8 | 0.00 | 0.00 | 0.00 | 50 | 1013.9 |
| 20260904182325 | 78 | 263 | 3.5 | 7.8 | 0.00 | 0.00 | 0.00 | 49 | 1013.9 |
| 20260904182321 | 78 | 265 | 3.5 | 7.8 | 0.00 | 0.00 | 0.00 | 49 | 1013.9 |
| 20260904182030 | 78 | 254 | 3.5 | 7.8 | 0.00 | 0.00 | 0.00 | 49 | 1013.8 |
| 20260904181929 | 78 | 259 | 3.5 | 7.8 | 0.00 | 0.00 | 0.00 | 49 | 1013.9 |
| 20260904181829 | 78 | 267 | 4.3 | 7.8 | 0.00 | 0.00 | 0.00 | 49 | 1013.8 |
| 20260904181729 | 78 | 244 | 4.3 | 7.8 | 0.00 | 0.00 | 0.00 | 49 | 1013.8 |
| 20260904181629 | 78 | 242 | 4.3 | 7.8 | 0.00 | 0.00 | 0.00 | 49 | 1013.8 |
| 20260904181611 | 78 | 252 | 4.3 | 7.8 | 0.00 | 0.00 | 0.00 | 49 | 1013.8 |
| 20260904181529 | 78 | 244 | 4.3 | 7.8 | 0.00 | 0.00 | 0.00 | 49 | 1013.8 |
| 20260904181429 | 78 | 248 | 4.3 | 7.0 | 0.00 | 0.00 | 0.00 | 49 | 1013.8 |
| 20260904181329 | 78 | 244 | 4.3 | 7.0 | 0.00 | 0.00 | 0.00 | 49 | 1013.8 |
| 20260904181229 | 78 | 223 | 4.3 | 7.0 | 0.00 | 0.00 | 0.00 | 49 | 1013.8 |
| 20260904181129 | 78 | 257 | 4.3 | 9.6 | 0.00 | 0.00 | 0.00 | 49 | 1013.8 |
| 20260904181110 | 78 | 258 | 4.3 | 9.6 | 0.00 | 0.00 | 0.00 | 49 | 1013.7 |
| 20260904181028 | 78 | 247 | 4.3 | 9.6 | 0.00 | 0.00 | 0.00 | 49 | 1013.7 |
| 20260904180928 | 78 | 291 | 4.3 | 9.6 | 0.00 | 0.00 | 0.00 | 49 | 1013.7 |
| 20260904180828 | 78 | 273 | 4.3 | 9.6 | 0.00 | 0.00 | 0.00 | 49 | 1013.7 |
| 20260904180732 | 78 | 246 | 4.3 | 9.6 | 0.00 | 0.00 | 0.00 | 48 | 1013.7 |
| 20260904180623 | 78 | 285 | 4.3 | 9.6 | 0.00 | 0.00 | 0.00 | 48 | 1013.6 |
| 20260904180611 | 78 | 249 | 4.3 | 9.6 | 0.00 | 0.00 | 0.00 | 48 | 1013.6 |
| 20260904180523 | 78 | 280 | 4.3 | 9.6 | 0.00 | 0.00 | 0.00 | 49 | 1013.7 |
| 20260904180423 | 78 | 280 | 4.3 | 9.6 | 0.00 | 0.00 | 0.00 | 48 | 1013.6 |
| 20260904180323 | 78 | 257 | 4.3 | 9.6 | 0.00 | 0.00 | 0.00 | 48 | 1013.6 |
| 20260904180227 | 78 | 279 | 4.3 | 9.6 | 0.00 | 0.00 | 0.00 | 48 | 1013.6 |
| 20260904180123 | 78 | 257 | 4.3 | 7.8 | 0.00 | 0.00 | 0.00 | 48 | 1013.6 |
| 20260904180110 | 79 | 262 | 4.3 | 7.8 | 0.00 | 0.00 | 0.00 | 48 | 1013.6 |
| 20260904180023 | 79 | 265 | 4.3 | 7.8 | 0.00 | 0.00 | 0.00 | 48 | 1013.6 |
| 20260904175922 | 79 | 270 | 3.5 | 7.8 | 0.00 | 0.00 | 0.00 | 48 | 1013.6 |
| 20260904175822 | 79 | 238 | 3.5 | 7.8 | 0.00 | 0.00 | 0.00 | 47 | 1013.6 |
| 20260904175724 | 79 | 236 | 3.5 | 7.8 | 0.00 | 0.00 | 0.00 | 48 | 1013.6 |
| 20260904175622 | 79 | 265 | 4.3 | 7.8 | 0.00 | 0.00 | 0.00 | 48 | 1013.6 |
| 20260904175611 | 79 | 275 | 4.3 | 7.8 | 0.00 | 0.00 | 0.00 | 47 | 1013.6 |
| 20260904175559 | 79 | 247 | 4.3 | 7.8 | 0.00 | 0.00 | 0.00 | 47 | 1013.6 |
| 20260904175553 | 79 | 265 | 4.3 | 7.8 | 0.00 | 0.00 | 0.00 | 48 | 1013.6 |
| 20260904175549 | 79 | 239 | 4.3 | 7.8 | 0.00 | 0.00 | 0.00 | 47 | 1013.6 |
| 20260904175334 | 79 | 242 | 4.3 | 7.8 | 0.00 | 0.00 | 0.00 | 47 | 1013.6 |
| 20260904175329 | 79 | 259 | 4.3 | 7.8 | 0.00 | 0.00 | 0.00 | 47 | 1013.6 |
| 20260904175321 | 79 | 236 | 3.5 | 7.8 | 0.00 | 0.00 | 0.00 | 47 | 1013.6 |
| 20260904175023 | 79 | 261 | 3.5 | 7.8 | 0.00 | 0.00 | 0.00 | 48 | 1013.6 |
| 20260904174919 | 79 | 274 | 4.3 | 7.8 | 0.00 | 0.00 | 0.00 | 47 | 1013.6 |
| 20260904174818 | 79 | 286 | 3.5 | 7.8 | 0.00 | 0.00 | 0.00 | 47 | 1013.5 |
| 20260904174720 | 79 | 248 | 3.5 | 7.8 | 0.00 | 0.00 | 0.00 | 47 | 1013.6 |
| 20260904174619 | 79 | 226 | 3.5 | 7.8 | 0.00 | 0.00 | 0.00 | 47 | 1013.5 |
| 20260904174610 | 79 | 225 | 3.5 | 7.8 | 0.00 | 0.00 | 0.00 | 47 | 1013.5 |
| 20260904174518 | 79 | 252 | 3.5 | 7.8 | 0.00 | 0.00 | 0.00 | 47 | 1013.6 |
| 20260904174416 | 79 | 216 | 3.5 | 7.8 | 0.00 | 0.00 | 0.00 | 47 | 1013.6 |
| 20260904174316 | 80 | 236 | 3.5 | 7.8 | 0.00 | 0.00 | 0.00 | 47 | 1013.6 |
| 20260904174218 | 80 | 246 | 3.5 | 7.8 | 0.00 | 0.00 | 0.00 | 47 | 1013.5 |
| 20260904174116 | 80 | 267 | 3.5 | 7.8 | 0.00 | 0.00 | 0.00 | 47 | 1013.6 |
| 20260904174109 | 80 | 232 | 3.5 | 7.8 | 0.00 | 0.00 | 0.00 | 47 | 1013.6 |
| 20260904174017 | 80 | 209 | 3.5 | 7.8 | 0.00 | 0.00 | 0.00 | 46 | 1013.6 |
| 20260904173917 | 80 | 259 | 3.5 | 7.8 | 0.00 | 0.00 | 0.00 | 46 | 1013.6 |
| 20260904173832 | 80 | 216 | 3.5 | 7.8 | 0.00 | 0.00 | 0.00 | 46 | 1013.6 |
| 20260904173828 | 80 | 231 | 3.5 | 7.8 | 0.00 | 0.00 | 0.00 | 46 | 1013.6 |
| 20260904173820 | 80 | 230 | 4.3 | 7.8 | 0.00 | 0.00 | 0.00 | 46 | 1013.5 |
| 20260904173513 | 80 | 262 | 4.3 | 7.8 | 0.00 | 0.00 | 0.00 | 46 | 1013.6 |
| 20260904173413 | 80 | 235 | 4.3 | 7.8 | 0.00 | 0.00 | 0.00 | 46 | 1013.5 |
| 20260904173313 | 80 | 223 | 4.3 | 8.7 | 0.00 | 0.00 | 0.00 | 46 | 1013.5 |
| 20260904173214 | 80 | 221 | 4.3 | 8.7 | 0.00 | 0.00 | 0.00 | 46 | 1013.5 |
| 20260904173113 | 80 | 216 | 3.5 | 8.7 | 0.00 | 0.00 | 0.00 | 46 | 1013.4 |
| 20260904173109 | 80 | 236 | 3.5 | 8.7 | 0.00 | 0.00 | 0.00 | 46 | 1013.4 |
| 20260904173013 | 80 | 273 | 4.3 | 8.7 | 0.00 | 0.00 | 0.00 | 46 | 1013.4 |
| 20260904172913 | 80 | 287 | 4.3 | 8.7 | 0.00 | 0.00 | 0.00 | 46 | 1013.4 |
| 20260904172813 | 80 | 242 | 4.3 | 8.7 | 0.00 | 0.00 | 0.00 | 45 | 1013.5 |
| 20260904172713 | 80 | 234 | 4.3 | 8.7 | 0.00 | 0.00 | 0.00 | 46 | 1013.5 |
| 20260904172608 | 80 | 225 | 4.3 | 8.7 | 0.00 | 0.00 | 0.00 | 45 | 1013.5 |
| 20260904172512 | 81 | 238 | 4.3 | 8.7 | 0.00 | 0.00 | 0.00 | 45 | 1013.5 |
| 20260904172412 | 81 | 223 | 4.3 | 8.7 | 0.00 | 0.00 | 0.00 | 45 | 1013.5 |
| 20260904172323 | 81 | 228 | 5.2 | 10.4 | 0.00 | 0.00 | 0.00 | 45 | 1013.5 |
| 20260904172319 | 81 | 227 | 4.3 | 7.8 | 0.00 | 0.00 | 0.00 | 45 | 1013.5 |
| 20260904172315 | 81 | 232 | 4.3 | 7.8 | 0.00 | 0.00 | 0.00 | 45 | 1013.5 |
| 20260904172305 | 81 | 225 | 4.3 | 7.8 | 0.00 | 0.00 | 0.00 | 45 | 1013.4 |
| 20260904172047 | 81 | 208 | 4.3 | 7.8 | 0.00 | 0.00 | 0.00 | 45 | 1013.5 |
| 20260904172043 | 81 | 257 | 4.3 | 7.8 | 0.00 | 0.00 | 0.00 | 45 | 1013.5 |
| 20260904171828 | 81 | 240 | 5.2 | 9.6 | 0.00 | 0.00 | 0.00 | 45 | 1013.5 |
| 20260904171824 | 81 | 246 | 5.2 | 10.4 | 0.00 | 0.00 | 0.00 | 45 | 1013.5 |
| 20260904171816 | 81 | 220 | 5.2 | 10.4 | 0.00 | 0.00 | 0.00 | 45 | 1013.5 |
| 20260904171508 | 81 | 269 | 4.3 | 10.4 | 0.00 | 0.00 | 0.00 | 45 | 1013.5 |
| 20260904171408 | 81 | 200 | 4.3 | 10.4 | 0.00 | 0.00 | 0.00 | 44 | 1013.5 |
| 20260904171308 | 81 | 229 | 4.3 | 10.4 | 0.00 | 0.00 | 0.00 | 44 | 1013.5 |
| 20260904171208 | 81 | 231 | 4.3 | 10.4 | 0.00 | 0.00 | 0.00 | 44 | 1013.5 |
| 20260904171108 | 81 | 219 | 5.2 | 10.4 | 0.00 | 0.00 | 0.00 | 45 | 1013.5 |
| 20260904171104 | 81 | 226 | 5.2 | 10.4 | 0.00 | 0.00 | 0.00 | 45 | 1013.5 |
| 20260904171008 | 81 | 236 | 5.2 | 10.4 | 0.00 | 0.00 | 0.00 | 45 | 1013.5 |
| 20260904170908 | 81 | 251 | 5.2 | 10.4 | 0.00 | 0.00 | 0.00 | 44 | 1013.5 |
| 20260904170809 | 81 | 240 | 4.3 | 10.4 | 0.00 | 0.00 | 0.00 | 44 | 1013.5 |
| 20260904170715 | 82 | 244 | 4.3 | 8.7 | 0.00 | 0.00 | 0.00 | 45 | 1013.5 |
| 20260904170608 | 82 | 276 | 4.3 | 8.7 | 0.00 | 0.00 | 0.00 | 45 | 1013.5 |
| 20260904170604 | 82 | 221 | 4.3 | 8.7 | 0.00 | 0.00 | 0.00 | 45 | 1013.5 |
| 20260904170508 | 82 | 236 | 4.3 | 8.7 | 0.00 | 0.00 | 0.00 | 44 | 1013.5 |
| 20260904170409 | 82 | 215 | 4.3 | 8.7 | 0.00 | 0.00 | 0.00 | 44 | 1013.5 |
| 20260904170309 | 82 | 251 | 4.3 | 8.7 | 0.00 | 0.00 | 0.00 | 45 | 1013.5 |
| 20260904170209 | 82 | 265 | 5.2 | 8.7 | 0.00 | 0.00 | 0.00 | 45 | 1013.4 |
| 20260904170109 | 82 | 252 | 5.2 | 12.2 | 0.00 | 0.00 | 0.00 | 45 | 1013.6 |
| 20260904170105 | 82 | 255 | 5.2 | 12.2 | 0.00 | 0.00 | 0.00 | 45 | 1013.6 |
| 20260904170009 | 82 | 227 | 5.2 | 12.2 | 0.00 | 0.00 | 0.00 | 45 | 1013.5 |
| 20260904165904 | 82 | 273 | 5.2 | 12.2 | 0.00 | 0.00 | 0.00 | 44 | 1013.5 |
| 20260904165804 | 82 | 241 | 5.2 | 12.2 | 0.00 | 0.00 | 0.00 | 44 | 1013.5 |
| 20260904165704 | 82 | 238 | 5.2 | 12.2 | 0.00 | 0.00 | 0.00 | 44 | 1013.6 |
| 20260904165607 | 82 | 244 | 5.2 | 12.2 | 0.00 | 0.00 | 0.00 | 45 | 1013.6 |
| 20260904165603 | 82 | 246 | 5.2 | 12.2 | 0.00 | 0.00 | 0.00 | 45 | 1013.6 |
| 20260904165505 | 82 | 242 | 5.2 | 12.2 | 0.00 | 0.00 | 0.00 | 45 | 1013.6 |
| 20260904165405 | 82 | 235 | 5.2 | 12.2 | 0.00 | 0.00 | 0.00 | 45 | 1013.5 |
| 20260904165336 | 82 | 248 | 5.2 | 8.7 | 0.00 | 0.00 | 0.00 | 44 | 1013.6 |
| 20260904165327 | 82 | 248 | 5.2 | 12.2 | 0.00 | 0.00 | 0.00 | 44 | 1013.5 |
| 20260904165323 | 82 | 261 | 5.2 | 12.2 | 0.00 | 0.00 | 0.00 | 44 | 1013.6 |
| 20260904165315 | 82 | 236 | 5.2 | 8.7 | 0.00 | 0.00 | 0.00 | 44 | 1013.6 |
| 20260904165005 | 82 | 232 | 5.2 | 10.4 | 0.00 | 0.00 | 0.00 | 44 | 1013.5 |
| 20260904164905 | 82 | 295 | 5.2 | 10.4 | 0.00 | 0.00 | 0.00 | 44 | 1013.5 |
| 20260904164805 | 82 | 221 | 5.2 | 10.4 | 0.00 | 0.00 | 0.00 | 44 | 1013.5 |
| 20260904164704 | 83 | 202 | 5.2 | 10.4 | 0.00 | 0.00 | 0.00 | 45 | 1013.5 |
| 20260904164602 | 83 | 257 | 5.2 | 10.4 | 0.00 | 0.00 | 0.00 | 44 | 1013.6 |
| 20260904164502 | 83 | 227 | 5.2 | 10.4 | 0.00 | 0.00 | 0.00 | 44 | 1013.5 |
| 20260904164402 | 83 | 234 | 5.2 | 12.2 | 0.00 | 0.00 | 0.00 | 44 | 1013.5 |
| 20260904164302 | 83 | 217 | 5.2 | 12.2 | 0.00 | 0.00 | 0.00 | 44 | 1013.5 |
| 20260904164202 | 83 | 241 | 5.2 | 12.2 | 0.00 | 0.00 | 0.00 | 44 | 1013.5 |
| 20260904164101 | 83 | 204 | 5.2 | 12.2 | 0.00 | 0.00 | 0.00 | 44 | 1013.5 |
| 20260904164000 | 83 | 246 | 5.2 | 12.2 | 0.00 | 0.00 | 0.00 | 43 | 1013.5 |
| 20260904163900 | 83 | 258 | 5.2 | 12.2 | 0.00 | 0.00 | 0.00 | 44 | 1013.4 |
| 20260904163801 | 83 | 202 | 5.2 | 12.2 | 0.00 | 0.00 | 0.00 | 44 | 1013.5 |
| 20260904163701 | 83 | 267 | 5.2 | 12.2 | 0.00 | 0.00 | 0.00 | 43 | 1013.5 |
| 20260904163600 | 83 | 213 | 6.1 | 12.2 | 0.00 | 0.00 | 0.00 | 43 | 1013.5 |
| 20260904163500 | 83 | 228 | 6.1 | 12.2 | 0.00 | 0.00 | 0.00 | 43 | 1013.5 |
| 20260904163401 | 83 | 217 | 6.1 | 11.3 | 0.00 | 0.00 | 0.00 | 43 | 1013.5 |
| 20260904163301 | 83 | 244 | 6.1 | 11.3 | 0.00 | 0.00 | 0.00 | 43 | 1013.5 |
| 20260904163201 | 83 | 220 | 6.1 | 11.3 | 0.00 | 0.00 | 0.00 | 42 | 1013.5 |
| 20260904163101 | 83 | 243 | 6.1 | 11.3 | 0.00 | 0.00 | 0.00 | 43 | 1013.6 |
| 20260904163001 | 83 | 228 | 6.1 | 12.2 | 0.00 | 0.00 | 0.00 | 42 | 1013.5 |
| 20260904162900 | 83 | 251 | 6.1 | 12.2 | 0.00 | 0.00 | 0.00 | 43 | 1013.5 |
| 20260904162800 | 83 | 296 | 6.1 | 12.2 | 0.00 | 0.00 | 0.00 | 42 | 1013.5 |
| 20260904162700 | 83 | 252 | 6.1 | 12.2 | 0.00 | 0.00 | 0.00 | 43 | 1013.5 |
| 20260904162600 | 83 | 233 | 6.1 | 12.2 | 0.00 | 0.00 | 0.00 | 42 | 1013.6 |
| 20260904162501 | 83 | 222 | 6.1 | 12.2 | 0.00 | 0.00 | 0.00 | 43 | 1013.5 |
| 20260904162400 | 83 | 243 | 6.1 | 12.2 | 0.00 | 0.00 | 0.00 | 42 | 1013.6 |
| 20260904162300 | 83 | 226 | 6.1 | 12.2 | 0.00 | 0.00 | 0.00 | 42 | 1013.6 |
| 20260904162200 | 83 | 248 | 6.1 | 12.2 | 0.00 | 0.00 | 0.00 | 41 | 1013.6 |
| 20260904162102 | 83 | 275 | 6.1 | 12.2 | 0.00 | 0.00 | 0.00 | 42 | 1013.5 |
| 20260904162000 | 83 | 265 | 6.1 | 12.2 | 0.00 | 0.00 | 0.00 | 42 | 1013.5 |
| 20260904161900 | 83 | 265 | 6.1 | 12.2 | 0.00 | 0.00 | 0.00 | 43 | 1013.6 |
| 20260904161823 | 83 | 267 | 6.1 | 12.2 | 0.00 | 0.00 | 0.00 | 42 | 1013.6 |
| 20260904161819 | 83 | 281 | 6.1 | 12.2 | 0.00 | 0.00 | 0.00 | 42 | 1013.5 |
| 20260904161811 | 83 | 266 | 7.0 | 13.0 | 0.00 | 0.00 | 0.00 | 41 | 1013.6 |
| 20260904161500 | 83 | 271 | 7.0 | 13.9 | 0.00 | 0.00 | 0.00 | 41 | 1013.6 |
| 20260904161400 | 83 | 265 | 7.0 | 13.9 | 0.00 | 0.00 | 0.00 | 42 | 1013.6 |
| 20260904161324 | 83 | 255 | 6.1 | 13.9 | 0.00 | 0.00 | 0.00 | 42 | 1013.6 |
| 20260904161320 | 83 | 232 | 6.1 | 13.9 | 0.00 | 0.00 | 0.00 | 42 | 1013.6 |
| 20260904161312 | 83 | 255 | 7.0 | 14.8 | 0.00 | 0.00 | 0.00 | 42 | 1013.6 |
| 20260904161001 | 83 | 298 | 7.0 | 14.8 | 0.00 | 0.00 | 0.00 | 42 | 1013.6 |
| 20260904160901 | 84 | 234 | 7.0 | 14.8 | 0.00 | 0.00 | 0.00 | 42 | 1013.6 |
| 20260904160801 | 84 | 273 | 7.8 | 15.6 | 0.00 | 0.00 | 0.00 | 42 | 1013.6 |
| 20260904160701 | 84 | 298 | 7.0 | 15.6 | 0.00 | 0.00 | 0.00 | 41 | 1013.7 |
| 20260904160601 | 84 | 242 | 7.0 | 15.6 | 0.00 | 0.00 | 0.00 | 41 | 1013.7 |
| 20260904160501 | 84 | 268 | 7.0 | 15.6 | 0.00 | 0.00 | 0.00 | 41 | 1013.6 |
| 20260904160401 | 84 | 259 | 7.8 | 15.6 | 0.00 | 0.00 | 0.00 | 40 | 1013.7 |
| 20260904160301 | 84 | 234 | 7.8 | 15.6 | 0.00 | 0.00 | 0.00 | 41 | 1013.7 |
| 20260904160201 | 84 | 223 | 7.8 | 15.6 | 0.00 | 0.00 | 0.00 | 41 | 1013.6 |
| 20260904160001 | 84 | 277 | 7.8 | 15.6 | 0.00 | 0.00 | 0.00 | 41 | 1013.7 |
| 20260904155901 | 84 | 215 | 7.8 | 15.6 | 0.00 | 0.00 | 0.00 | 41 | 1013.7 |
| 20260904155801 | 84 | 206 | 7.0 | 13.9 | 0.00 | 0.00 | 0.00 | 40 | 1013.7 |
| 20260904155701 | 84 | 232 | 7.0 | 13.9 | 0.00 | 0.00 | 0.00 | 41 | 1013.6 |
| 20260904155600 | 84 | 251 | 7.0 | 13.9 | 0.00 | 0.00 | 0.00 | 41 | 1013.7 |
| 20260904155500 | 84 | 254 | 7.0 | 13.9 | 0.00 | 0.00 | 0.00 | 41 | 1013.6 |
| 20260904155401 | 84 | 0 | 7.0 | 13.9 | 0.00 | 0.00 | 0.00 | 41 | 1013.7 |
| 20260904155301 | 84 | 222 | 7.0 | 13.9 | 0.00 | 0.00 | 0.00 | 40 | 1013.7 |
| 20260904155201 | 84 | 241 | 6.1 | 13.9 | 0.00 | 0.00 | 0.00 | 40 | 1013.7 |
| 20260904155101 | 84 | 273 | 6.1 | 13.9 | 0.00 | 0.00 | 0.00 | 41 | 1013.7 |
| 20260904155001 | 84 | 222 | 6.1 | 12.2 | 0.00 | 0.00 | 0.00 | 42 | 1013.7 |
| 20260904154901 | 84 | 258 | 7.0 | 13.9 | 0.00 | 0.00 | 0.00 | 42 | 1013.7 |